<?xml version="1.0" encoding="UTF-8" standalone="no" ?>
<gpx xmlns="http://www.topografix.com/GPX/1/1" xmlns:xsi="http://www.w3.org/2001/XMLSchema-instance" xsi:schemaLocation="http://www.topografix.com/GPX/1/1 http://www.topografix.com/GPX/1/1/gpx.xsd" version="1.1" creator="VisuGPX - https://www.visugpx.com">
  <metadata>
    <name>Ski rando vers Vignemale 2014</name>
  </metadata>
  <trk>
    <name><![CDATA[Ski rando vers Vignemale 2014]]></name>
    <extensions>
      <line xmlns="http://www.topografix.com/GPX/gpx_style/0/2">
        <color>0000FF</color>
        <width>4</width>
      </line>
    </extensions>
    <trkseg>
      <trkpt lat="42.85156" lon="-0.13629">
        <ele>1489</ele>
        <time>2014-03-15T10:04:00Z</time>
      </trkpt>
      <trkpt lat="42.85152" lon="-0.13627">
        <ele>1490</ele>
        <time>2014-03-15T10:04:02Z</time>
      </trkpt>
      <trkpt lat="42.85151" lon="-0.13627">
        <ele>1490</ele>
        <time>2014-03-15T10:04:03Z</time>
      </trkpt>
      <trkpt lat="42.85141" lon="-0.13641">
        <ele>1491</ele>
        <time>2014-03-15T10:04:14Z</time>
      </trkpt>
      <trkpt lat="42.85137" lon="-0.1365">
        <ele>1491</ele>
        <time>2014-03-15T10:04:20Z</time>
      </trkpt>
      <trkpt lat="42.85133" lon="-0.13669">
        <ele>1487</ele>
        <time>2014-03-15T10:04:34Z</time>
      </trkpt>
      <trkpt lat="42.85134" lon="-0.1367">
        <ele>1487</ele>
        <time>2014-03-15T10:04:52Z</time>
      </trkpt>
      <trkpt lat="42.85133" lon="-0.13674">
        <ele>1487</ele>
        <time>2014-03-15T10:05:39Z</time>
      </trkpt>
      <trkpt lat="42.85133" lon="-0.13675">
        <ele>1487</ele>
        <time>2014-03-15T10:05:43Z</time>
      </trkpt>
      <trkpt lat="42.85125" lon="-0.13685">
        <ele>1489</ele>
        <time>2014-03-15T10:06:04Z</time>
      </trkpt>
      <trkpt lat="42.85126" lon="-0.13683">
        <ele>1489</ele>
        <time>2014-03-15T10:06:05Z</time>
      </trkpt>
      <trkpt lat="42.85127" lon="-0.13682">
        <ele>1489</ele>
        <time>2014-03-15T10:06:06Z</time>
      </trkpt>
      <trkpt lat="42.85128" lon="-0.13681">
        <ele>1488</ele>
        <time>2014-03-15T10:06:07Z</time>
      </trkpt>
      <trkpt lat="42.85128" lon="-0.1368">
        <ele>1488</ele>
        <time>2014-03-15T10:06:09Z</time>
      </trkpt>
      <trkpt lat="42.85128" lon="-0.13669">
        <ele>1488</ele>
        <time>2014-03-15T10:06:48Z</time>
      </trkpt>
      <trkpt lat="42.85127" lon="-0.13666">
        <ele>1493</ele>
        <time>2014-03-15T10:07:03Z</time>
      </trkpt>
      <trkpt lat="42.85127" lon="-0.13665">
        <ele>1493</ele>
        <time>2014-03-15T10:07:06Z</time>
      </trkpt>
      <trkpt lat="42.85125" lon="-0.13663">
        <ele>1494</ele>
        <time>2014-03-15T10:07:37Z</time>
      </trkpt>
      <trkpt lat="42.85125" lon="-0.13664">
        <ele>1494</ele>
        <time>2014-03-15T10:07:41Z</time>
      </trkpt>
      <trkpt lat="42.85126" lon="-0.13665">
        <ele>1494</ele>
        <time>2014-03-15T10:07:47Z</time>
      </trkpt>
      <trkpt lat="42.85126" lon="-0.13666">
        <ele>1494</ele>
        <time>2014-03-15T10:07:50Z</time>
      </trkpt>
      <trkpt lat="42.85127" lon="-0.13666">
        <ele>1493</ele>
        <time>2014-03-15T10:07:51Z</time>
      </trkpt>
      <trkpt lat="42.8513" lon="-0.13681">
        <ele>1488</ele>
        <time>2014-03-15T10:08:15Z</time>
      </trkpt>
      <trkpt lat="42.85135" lon="-0.13683">
        <ele>1487</ele>
        <time>2014-03-15T10:08:31Z</time>
      </trkpt>
      <trkpt lat="42.85134" lon="-0.13684">
        <ele>1487</ele>
        <time>2014-03-15T10:08:32Z</time>
      </trkpt>
      <trkpt lat="42.85135" lon="-0.13684">
        <ele>1487</ele>
        <time>2014-03-15T10:08:34Z</time>
      </trkpt>
      <trkpt lat="42.85125" lon="-0.13674">
        <ele>1489</ele>
        <time>2014-03-15T10:09:01Z</time>
      </trkpt>
      <trkpt lat="42.85125" lon="-0.13675">
        <ele>1489</ele>
        <time>2014-03-15T10:09:03Z</time>
      </trkpt>
      <trkpt lat="42.85125" lon="-0.13676">
        <ele>1489</ele>
        <time>2014-03-15T10:09:05Z</time>
      </trkpt>
      <trkpt lat="42.85125" lon="-0.13677">
        <ele>1489</ele>
        <time>2014-03-15T10:09:06Z</time>
      </trkpt>
      <trkpt lat="42.85123" lon="-0.13686">
        <ele>1489</ele>
        <time>2014-03-15T10:09:18Z</time>
      </trkpt>
      <trkpt lat="42.85122" lon="-0.13687">
        <ele>1490</ele>
        <time>2014-03-15T10:09:28Z</time>
      </trkpt>
      <trkpt lat="42.85122" lon="-0.13687">
        <ele>1490</ele>
        <time>2014-03-15T10:09:31Z</time>
      </trkpt>
      <trkpt lat="42.85117" lon="-0.1369">
        <ele>1491</ele>
        <time>2014-03-15T10:09:48Z</time>
      </trkpt>
      <trkpt lat="42.85116" lon="-0.1369">
        <ele>1491</ele>
        <time>2014-03-15T10:09:52Z</time>
      </trkpt>
      <trkpt lat="42.85116" lon="-0.13691">
        <ele>1491</ele>
        <time>2014-03-15T10:09:54Z</time>
      </trkpt>
      <trkpt lat="42.85115" lon="-0.13691">
        <ele>1491</ele>
        <time>2014-03-15T10:09:55Z</time>
      </trkpt>
      <trkpt lat="42.85116" lon="-0.13689">
        <ele>1491</ele>
        <time>2014-03-15T10:10:17Z</time>
      </trkpt>
      <trkpt lat="42.85112" lon="-0.13695">
        <ele>1491</ele>
        <time>2014-03-15T10:10:18Z</time>
      </trkpt>
      <trkpt lat="42.85113" lon="-0.13698">
        <ele>1491</ele>
        <time>2014-03-15T10:10:25Z</time>
      </trkpt>
      <trkpt lat="42.85113" lon="-0.13699">
        <ele>1491</ele>
        <time>2014-03-15T10:10:26Z</time>
      </trkpt>
      <trkpt lat="42.85115" lon="-0.13699">
        <ele>1490</ele>
        <time>2014-03-15T10:10:28Z</time>
      </trkpt>
      <trkpt lat="42.85115" lon="-0.137">
        <ele>1490</ele>
        <time>2014-03-15T10:10:30Z</time>
      </trkpt>
      <trkpt lat="42.85116" lon="-0.137">
        <ele>1490</ele>
        <time>2014-03-15T10:10:33Z</time>
      </trkpt>
      <trkpt lat="42.8513" lon="-0.13703">
        <ele>1488</ele>
        <time>2014-03-15T10:11:01Z</time>
      </trkpt>
      <trkpt lat="42.85139" lon="-0.13716">
        <ele>1486</ele>
        <time>2014-03-15T10:11:16Z</time>
      </trkpt>
      <trkpt lat="42.85139" lon="-0.13718">
        <ele>1485</ele>
        <time>2014-03-15T10:11:18Z</time>
      </trkpt>
      <trkpt lat="42.85139" lon="-0.1372">
        <ele>1485</ele>
        <time>2014-03-15T10:11:19Z</time>
      </trkpt>
      <trkpt lat="42.85138" lon="-0.13722">
        <ele>1485</ele>
        <time>2014-03-15T10:11:20Z</time>
      </trkpt>
      <trkpt lat="42.85143" lon="-0.13732">
        <ele>1484</ele>
        <time>2014-03-15T10:11:29Z</time>
      </trkpt>
      <trkpt lat="42.85146" lon="-0.13743">
        <ele>1482</ele>
        <time>2014-03-15T10:11:45Z</time>
      </trkpt>
      <trkpt lat="42.85141" lon="-0.13753">
        <ele>1484</ele>
        <time>2014-03-15T10:11:58Z</time>
      </trkpt>
      <trkpt lat="42.8514" lon="-0.13754">
        <ele>1484</ele>
        <time>2014-03-15T10:11:59Z</time>
      </trkpt>
      <trkpt lat="42.85137" lon="-0.13754">
        <ele>1485</ele>
        <time>2014-03-15T10:12:01Z</time>
      </trkpt>
      <trkpt lat="42.85136" lon="-0.13756">
        <ele>1485</ele>
        <time>2014-03-15T10:12:03Z</time>
      </trkpt>
      <trkpt lat="42.85131" lon="-0.13765">
        <ele>1486</ele>
        <time>2014-03-15T10:12:34Z</time>
      </trkpt>
      <trkpt lat="42.85129" lon="-0.13768">
        <ele>1487</ele>
        <time>2014-03-15T10:13:00Z</time>
      </trkpt>
      <trkpt lat="42.85129" lon="-0.13769">
        <ele>1487</ele>
        <time>2014-03-15T10:13:04Z</time>
      </trkpt>
      <trkpt lat="42.85126" lon="-0.13779">
        <ele>1488</ele>
        <time>2014-03-15T10:13:21Z</time>
      </trkpt>
      <trkpt lat="42.85126" lon="-0.1378">
        <ele>1488</ele>
        <time>2014-03-15T10:13:22Z</time>
      </trkpt>
      <trkpt lat="42.85128" lon="-0.13802">
        <ele>1489</ele>
        <time>2014-03-15T10:13:34Z</time>
      </trkpt>
      <trkpt lat="42.85128" lon="-0.13805">
        <ele>1489</ele>
        <time>2014-03-15T10:13:36Z</time>
      </trkpt>
      <trkpt lat="42.85128" lon="-0.13807">
        <ele>1489</ele>
        <time>2014-03-15T10:13:38Z</time>
      </trkpt>
      <trkpt lat="42.85126" lon="-0.13809">
        <ele>1489</ele>
        <time>2014-03-15T10:13:41Z</time>
      </trkpt>
      <trkpt lat="42.85127" lon="-0.13813">
        <ele>1489</ele>
        <time>2014-03-15T10:13:44Z</time>
      </trkpt>
      <trkpt lat="42.85118" lon="-0.13837">
        <ele>1496</ele>
        <time>2014-03-15T10:14:05Z</time>
      </trkpt>
      <trkpt lat="42.85114" lon="-0.13841">
        <ele>1497</ele>
        <time>2014-03-15T10:14:07Z</time>
      </trkpt>
      <trkpt lat="42.85113" lon="-0.13841">
        <ele>1497</ele>
        <time>2014-03-15T10:14:08Z</time>
      </trkpt>
      <trkpt lat="42.8511" lon="-0.13845">
        <ele>1497</ele>
        <time>2014-03-15T10:14:12Z</time>
      </trkpt>
      <trkpt lat="42.85107" lon="-0.13848">
        <ele>1497</ele>
        <time>2014-03-15T10:14:16Z</time>
      </trkpt>
      <trkpt lat="42.85098" lon="-0.13835">
        <ele>1499</ele>
        <time>2014-03-15T10:14:40Z</time>
      </trkpt>
      <trkpt lat="42.85097" lon="-0.13831">
        <ele>1496</ele>
        <time>2014-03-15T10:14:43Z</time>
      </trkpt>
      <trkpt lat="42.85095" lon="-0.13828">
        <ele>1496</ele>
        <time>2014-03-15T10:14:46Z</time>
      </trkpt>
      <trkpt lat="42.85095" lon="-0.13826">
        <ele>1496</ele>
        <time>2014-03-15T10:14:47Z</time>
      </trkpt>
      <trkpt lat="42.85094" lon="-0.13824">
        <ele>1496</ele>
        <time>2014-03-15T10:14:48Z</time>
      </trkpt>
      <trkpt lat="42.85093" lon="-0.13823">
        <ele>1496</ele>
        <time>2014-03-15T10:14:49Z</time>
      </trkpt>
      <trkpt lat="42.85085" lon="-0.13818">
        <ele>1496</ele>
        <time>2014-03-15T10:14:55Z</time>
      </trkpt>
      <trkpt lat="42.85082" lon="-0.13818">
        <ele>1511</ele>
        <time>2014-03-15T10:14:57Z</time>
      </trkpt>
      <trkpt lat="42.85081" lon="-0.13817">
        <ele>1511</ele>
        <time>2014-03-15T10:14:58Z</time>
      </trkpt>
      <trkpt lat="42.85077" lon="-0.13815">
        <ele>1513</ele>
        <time>2014-03-15T10:15:03Z</time>
      </trkpt>
      <trkpt lat="42.85079" lon="-0.13815">
        <ele>1512</ele>
        <time>2014-03-15T10:15:04Z</time>
      </trkpt>
      <trkpt lat="42.85076" lon="-0.13814">
        <ele>1513</ele>
        <time>2014-03-15T10:15:05Z</time>
      </trkpt>
      <trkpt lat="42.85077" lon="-0.13814">
        <ele>1513</ele>
        <time>2014-03-15T10:15:06Z</time>
      </trkpt>
      <trkpt lat="42.85073" lon="-0.13817">
        <ele>1513</ele>
        <time>2014-03-15T10:15:12Z</time>
      </trkpt>
      <trkpt lat="42.85073" lon="-0.13833">
        <ele>1510</ele>
        <time>2014-03-15T10:15:25Z</time>
      </trkpt>
      <trkpt lat="42.85075" lon="-0.13851">
        <ele>1513</ele>
        <time>2014-03-15T10:15:39Z</time>
      </trkpt>
      <trkpt lat="42.85075" lon="-0.13855">
        <ele>1514</ele>
        <time>2014-03-15T10:15:42Z</time>
      </trkpt>
      <trkpt lat="42.85077" lon="-0.13864">
        <ele>1515</ele>
        <time>2014-03-15T10:15:50Z</time>
      </trkpt>
      <trkpt lat="42.85077" lon="-0.13865">
        <ele>1516</ele>
        <time>2014-03-15T10:15:51Z</time>
      </trkpt>
      <trkpt lat="42.85077" lon="-0.13867">
        <ele>1516</ele>
        <time>2014-03-15T10:15:52Z</time>
      </trkpt>
      <trkpt lat="42.85076" lon="-0.13869">
        <ele>1516</ele>
        <time>2014-03-15T10:15:54Z</time>
      </trkpt>
      <trkpt lat="42.85076" lon="-0.1387">
        <ele>1516</ele>
        <time>2014-03-15T10:15:55Z</time>
      </trkpt>
      <trkpt lat="42.85075" lon="-0.13875">
        <ele>1516</ele>
        <time>2014-03-15T10:16:00Z</time>
      </trkpt>
      <trkpt lat="42.85075" lon="-0.13876">
        <ele>1516</ele>
        <time>2014-03-15T10:16:01Z</time>
      </trkpt>
      <trkpt lat="42.85075" lon="-0.13877">
        <ele>1516</ele>
        <time>2014-03-15T10:16:02Z</time>
      </trkpt>
      <trkpt lat="42.85075" lon="-0.13878">
        <ele>1516</ele>
        <time>2014-03-15T10:16:03Z</time>
      </trkpt>
      <trkpt lat="42.85075" lon="-0.13882">
        <ele>1516</ele>
        <time>2014-03-15T10:16:06Z</time>
      </trkpt>
      <trkpt lat="42.85075" lon="-0.13883">
        <ele>1516</ele>
        <time>2014-03-15T10:16:07Z</time>
      </trkpt>
      <trkpt lat="42.85069" lon="-0.13905">
        <ele>1514</ele>
        <time>2014-03-15T10:16:22Z</time>
      </trkpt>
      <trkpt lat="42.85076" lon="-0.13939">
        <ele>1513</ele>
        <time>2014-03-15T10:16:49Z</time>
      </trkpt>
      <trkpt lat="42.85078" lon="-0.13948">
        <ele>1514</ele>
        <time>2014-03-15T10:16:55Z</time>
      </trkpt>
      <trkpt lat="42.85079" lon="-0.13953">
        <ele>1514</ele>
        <time>2014-03-15T10:16:58Z</time>
      </trkpt>
      <trkpt lat="42.85081" lon="-0.13962">
        <ele>1514</ele>
        <time>2014-03-15T10:17:06Z</time>
      </trkpt>
      <trkpt lat="42.85083" lon="-0.13988">
        <ele>1510</ele>
        <time>2014-03-15T10:17:22Z</time>
      </trkpt>
      <trkpt lat="42.85084" lon="-0.13997">
        <ele>1505</ele>
        <time>2014-03-15T10:17:26Z</time>
      </trkpt>
      <trkpt lat="42.8509" lon="-0.14001">
        <ele>1507</ele>
        <time>2014-03-15T10:17:31Z</time>
      </trkpt>
      <trkpt lat="42.85114" lon="-0.13987">
        <ele>1506</ele>
        <time>2014-03-15T10:17:52Z</time>
      </trkpt>
      <trkpt lat="42.85132" lon="-0.13994">
        <ele>1507</ele>
        <time>2014-03-15T10:18:18Z</time>
      </trkpt>
      <trkpt lat="42.85129" lon="-0.14">
        <ele>1507</ele>
        <time>2014-03-15T10:18:35Z</time>
      </trkpt>
      <trkpt lat="42.8513" lon="-0.14">
        <ele>1512</ele>
        <time>2014-03-15T10:18:37Z</time>
      </trkpt>
      <trkpt lat="42.85129" lon="-0.14">
        <ele>1512</ele>
        <time>2014-03-15T10:18:38Z</time>
      </trkpt>
      <trkpt lat="42.8513" lon="-0.13999">
        <ele>1507</ele>
        <time>2014-03-15T10:19:13Z</time>
      </trkpt>
      <trkpt lat="42.85137" lon="-0.13986">
        <ele>1507</ele>
        <time>2014-03-15T10:20:33Z</time>
      </trkpt>
      <trkpt lat="42.85126" lon="-0.13984">
        <ele>1506</ele>
        <time>2014-03-15T10:20:42Z</time>
      </trkpt>
      <trkpt lat="42.85121" lon="-0.13988">
        <ele>1506</ele>
        <time>2014-03-15T10:20:47Z</time>
      </trkpt>
      <trkpt lat="42.8512" lon="-0.1399">
        <ele>1506</ele>
        <time>2014-03-15T10:20:48Z</time>
      </trkpt>
      <trkpt lat="42.85119" lon="-0.1399">
        <ele>1506</ele>
        <time>2014-03-15T10:20:49Z</time>
      </trkpt>
      <trkpt lat="42.85114" lon="-0.13995">
        <ele>1506</ele>
        <time>2014-03-15T10:20:53Z</time>
      </trkpt>
      <trkpt lat="42.85113" lon="-0.13997">
        <ele>1506</ele>
        <time>2014-03-15T10:20:54Z</time>
      </trkpt>
      <trkpt lat="42.8511" lon="-0.14">
        <ele>1506</ele>
        <time>2014-03-15T10:20:58Z</time>
      </trkpt>
      <trkpt lat="42.85108" lon="-0.13998">
        <ele>1506</ele>
        <time>2014-03-15T10:21:00Z</time>
      </trkpt>
      <trkpt lat="42.85107" lon="-0.13998">
        <ele>1506</ele>
        <time>2014-03-15T10:21:01Z</time>
      </trkpt>
      <trkpt lat="42.85105" lon="-0.13997">
        <ele>1506</ele>
        <time>2014-03-15T10:21:02Z</time>
      </trkpt>
      <trkpt lat="42.85092" lon="-0.13979">
        <ele>1505</ele>
        <time>2014-03-15T10:21:14Z</time>
      </trkpt>
      <trkpt lat="42.85091" lon="-0.1397">
        <ele>1505</ele>
        <time>2014-03-15T10:21:18Z</time>
      </trkpt>
      <trkpt lat="42.85092" lon="-0.13961">
        <ele>1505</ele>
        <time>2014-03-15T10:21:24Z</time>
      </trkpt>
      <trkpt lat="42.85093" lon="-0.1396">
        <ele>1505</ele>
        <time>2014-03-15T10:21:25Z</time>
      </trkpt>
      <trkpt lat="42.85093" lon="-0.13944">
        <ele>1505</ele>
        <time>2014-03-15T10:21:33Z</time>
      </trkpt>
      <trkpt lat="42.85096" lon="-0.13932">
        <ele>1504</ele>
        <time>2014-03-15T10:21:42Z</time>
      </trkpt>
      <trkpt lat="42.85097" lon="-0.13916">
        <ele>1501</ele>
        <time>2014-03-15T10:21:48Z</time>
      </trkpt>
      <trkpt lat="42.85093" lon="-0.13898">
        <ele>1500</ele>
        <time>2014-03-15T10:22:00Z</time>
      </trkpt>
      <trkpt lat="42.8509" lon="-0.13896">
        <ele>1500</ele>
        <time>2014-03-15T10:22:03Z</time>
      </trkpt>
      <trkpt lat="42.85088" lon="-0.13894">
        <ele>1500</ele>
        <time>2014-03-15T10:22:05Z</time>
      </trkpt>
      <trkpt lat="42.85086" lon="-0.13898">
        <ele>1500</ele>
        <time>2014-03-15T10:22:08Z</time>
      </trkpt>
      <trkpt lat="42.85085" lon="-0.13898">
        <ele>1501</ele>
        <time>2014-03-15T10:22:10Z</time>
      </trkpt>
      <trkpt lat="42.85085" lon="-0.13898">
        <ele>1501</ele>
        <time>2014-03-15T10:22:15Z</time>
      </trkpt>
      <trkpt lat="42.85085" lon="-0.13899">
        <ele>1501</ele>
        <time>2014-03-15T10:22:20Z</time>
      </trkpt>
      <trkpt lat="42.85085" lon="-0.13898">
        <ele>1501</ele>
        <time>2014-03-15T10:22:21Z</time>
      </trkpt>
      <trkpt lat="42.85085" lon="-0.13896">
        <ele>1500</ele>
        <time>2014-03-15T10:22:37Z</time>
      </trkpt>
      <trkpt lat="42.85084" lon="-0.13897">
        <ele>1500</ele>
        <time>2014-03-15T10:22:39Z</time>
      </trkpt>
      <trkpt lat="42.85082" lon="-0.13898">
        <ele>1513</ele>
        <time>2014-03-15T10:22:42Z</time>
      </trkpt>
      <trkpt lat="42.85076" lon="-0.13901">
        <ele>1513</ele>
        <time>2014-03-15T10:22:51Z</time>
      </trkpt>
      <trkpt lat="42.85065" lon="-0.13901">
        <ele>1516</ele>
        <time>2014-03-15T10:23:00Z</time>
      </trkpt>
      <trkpt lat="42.85068" lon="-0.13904">
        <ele>1514</ele>
        <time>2014-03-15T10:23:03Z</time>
      </trkpt>
      <trkpt lat="42.8505" lon="-0.13894">
        <ele>1521</ele>
        <time>2014-03-15T10:23:36Z</time>
      </trkpt>
      <trkpt lat="42.85043" lon="-0.1389">
        <ele>1523</ele>
        <time>2014-03-15T10:23:58Z</time>
      </trkpt>
      <trkpt lat="42.85044" lon="-0.13886">
        <ele>1522</ele>
        <time>2014-03-15T10:24:22Z</time>
      </trkpt>
      <trkpt lat="42.85047" lon="-0.13887">
        <ele>1522</ele>
        <time>2014-03-15T10:25:30Z</time>
      </trkpt>
      <trkpt lat="42.85047" lon="-0.1389">
        <ele>1522</ele>
        <time>2014-03-15T10:25:46Z</time>
      </trkpt>
      <trkpt lat="42.85047" lon="-0.13891">
        <ele>1522</ele>
        <time>2014-03-15T10:26:12Z</time>
      </trkpt>
      <trkpt lat="42.85042" lon="-0.13901">
        <ele>1523</ele>
        <time>2014-03-15T10:26:27Z</time>
      </trkpt>
      <trkpt lat="42.85042" lon="-0.139">
        <ele>1523</ele>
        <time>2014-03-15T10:26:30Z</time>
      </trkpt>
      <trkpt lat="42.85047" lon="-0.13898">
        <ele>1521</ele>
        <time>2014-03-15T10:26:47Z</time>
      </trkpt>
      <trkpt lat="42.85048" lon="-0.13898">
        <ele>1521</ele>
        <time>2014-03-15T10:26:50Z</time>
      </trkpt>
      <trkpt lat="42.85049" lon="-0.13898">
        <ele>1521</ele>
        <time>2014-03-15T10:26:51Z</time>
      </trkpt>
      <trkpt lat="42.8505" lon="-0.13898">
        <ele>1521</ele>
        <time>2014-03-15T10:26:52Z</time>
      </trkpt>
      <trkpt lat="42.85051" lon="-0.13898">
        <ele>1520</ele>
        <time>2014-03-15T10:26:54Z</time>
      </trkpt>
      <trkpt lat="42.85052" lon="-0.13897">
        <ele>1520</ele>
        <time>2014-03-15T10:26:55Z</time>
      </trkpt>
      <trkpt lat="42.85054" lon="-0.13895">
        <ele>1519</ele>
        <time>2014-03-15T10:26:56Z</time>
      </trkpt>
      <trkpt lat="42.85057" lon="-0.13891">
        <ele>1519</ele>
        <time>2014-03-15T10:27:00Z</time>
      </trkpt>
      <trkpt lat="42.85053" lon="-0.13885">
        <ele>1520</ele>
        <time>2014-03-15T10:27:15Z</time>
      </trkpt>
      <trkpt lat="42.85045" lon="-0.13886">
        <ele>1522</ele>
        <time>2014-03-15T10:27:19Z</time>
      </trkpt>
      <trkpt lat="42.85044" lon="-0.13887">
        <ele>1523</ele>
        <time>2014-03-15T10:27:20Z</time>
      </trkpt>
      <trkpt lat="42.85037" lon="-0.1389">
        <ele>1524</ele>
        <time>2014-03-15T10:27:28Z</time>
      </trkpt>
      <trkpt lat="42.85036" lon="-0.13891">
        <ele>1524</ele>
        <time>2014-03-15T10:27:29Z</time>
      </trkpt>
      <trkpt lat="42.85036" lon="-0.13896">
        <ele>1524</ele>
        <time>2014-03-15T10:27:36Z</time>
      </trkpt>
      <trkpt lat="42.8503" lon="-0.13905">
        <ele>1526</ele>
        <time>2014-03-15T10:27:45Z</time>
      </trkpt>
      <trkpt lat="42.85027" lon="-0.13906">
        <ele>1527</ele>
        <time>2014-03-15T10:27:48Z</time>
      </trkpt>
      <trkpt lat="42.85027" lon="-0.13907">
        <ele>1527</ele>
        <time>2014-03-15T10:27:49Z</time>
      </trkpt>
      <trkpt lat="42.85027" lon="-0.13909">
        <ele>1527</ele>
        <time>2014-03-15T10:27:50Z</time>
      </trkpt>
      <trkpt lat="42.85023" lon="-0.13917">
        <ele>1527</ele>
        <time>2014-03-15T10:28:01Z</time>
      </trkpt>
      <trkpt lat="42.85025" lon="-0.13918">
        <ele>1526</ele>
        <time>2014-03-15T10:28:09Z</time>
      </trkpt>
      <trkpt lat="42.85027" lon="-0.13914">
        <ele>1528</ele>
        <time>2014-03-15T10:28:12Z</time>
      </trkpt>
      <trkpt lat="42.85027" lon="-0.13913">
        <ele>1527</ele>
        <time>2014-03-15T10:28:13Z</time>
      </trkpt>
      <trkpt lat="42.85031" lon="-0.13899">
        <ele>1526</ele>
        <time>2014-03-15T10:28:25Z</time>
      </trkpt>
      <trkpt lat="42.85031" lon="-0.13898">
        <ele>1526</ele>
        <time>2014-03-15T10:28:26Z</time>
      </trkpt>
      <trkpt lat="42.85033" lon="-0.13894">
        <ele>1525</ele>
        <time>2014-03-15T10:28:28Z</time>
      </trkpt>
      <trkpt lat="42.85034" lon="-0.13893">
        <ele>1525</ele>
        <time>2014-03-15T10:28:29Z</time>
      </trkpt>
      <trkpt lat="42.85034" lon="-0.13892">
        <ele>1525</ele>
        <time>2014-03-15T10:28:30Z</time>
      </trkpt>
      <trkpt lat="42.85032" lon="-0.1389">
        <ele>1525</ele>
        <time>2014-03-15T10:28:33Z</time>
      </trkpt>
      <trkpt lat="42.85025" lon="-0.13879">
        <ele>1527</ele>
        <time>2014-03-15T10:28:41Z</time>
      </trkpt>
      <trkpt lat="42.85025" lon="-0.13878">
        <ele>1527</ele>
        <time>2014-03-15T10:28:42Z</time>
      </trkpt>
      <trkpt lat="42.85025" lon="-0.13877">
        <ele>1527</ele>
        <time>2014-03-15T10:28:44Z</time>
      </trkpt>
      <trkpt lat="42.85025" lon="-0.13876">
        <ele>1527</ele>
        <time>2014-03-15T10:28:45Z</time>
      </trkpt>
      <trkpt lat="42.85031" lon="-0.13871">
        <ele>1526</ele>
        <time>2014-03-15T10:29:04Z</time>
      </trkpt>
      <trkpt lat="42.85031" lon="-0.1387">
        <ele>1526</ele>
        <time>2014-03-15T10:29:10Z</time>
      </trkpt>
      <trkpt lat="42.85032" lon="-0.13865">
        <ele>1526</ele>
        <time>2014-03-15T10:29:21Z</time>
      </trkpt>
      <trkpt lat="42.85032" lon="-0.1386">
        <ele>1526</ele>
        <time>2014-03-15T10:29:25Z</time>
      </trkpt>
      <trkpt lat="42.85032" lon="-0.13849">
        <ele>1527</ele>
        <time>2014-03-15T10:29:33Z</time>
      </trkpt>
      <trkpt lat="42.85029" lon="-0.13836">
        <ele>1529</ele>
        <time>2014-03-15T10:29:40Z</time>
      </trkpt>
      <trkpt lat="42.8503" lon="-0.13836">
        <ele>1529</ele>
        <time>2014-03-15T10:29:41Z</time>
      </trkpt>
      <trkpt lat="42.8503" lon="-0.13834">
        <ele>1529</ele>
        <time>2014-03-15T10:29:42Z</time>
      </trkpt>
      <trkpt lat="42.85022" lon="-0.1383">
        <ele>1532</ele>
        <time>2014-03-15T10:29:53Z</time>
      </trkpt>
      <trkpt lat="42.8502" lon="-0.13832">
        <ele>1534</ele>
        <time>2014-03-15T10:29:56Z</time>
      </trkpt>
      <trkpt lat="42.85017" lon="-0.13835">
        <ele>1535</ele>
        <time>2014-03-15T10:30:01Z</time>
      </trkpt>
      <trkpt lat="42.85017" lon="-0.13837">
        <ele>1535</ele>
        <time>2014-03-15T10:30:02Z</time>
      </trkpt>
      <trkpt lat="42.85012" lon="-0.13847">
        <ele>1535</ele>
        <time>2014-03-15T10:30:14Z</time>
      </trkpt>
      <trkpt lat="42.85007" lon="-0.13866">
        <ele>1531</ele>
        <time>2014-03-15T10:30:31Z</time>
      </trkpt>
      <trkpt lat="42.85007" lon="-0.13869">
        <ele>1531</ele>
        <time>2014-03-15T10:30:32Z</time>
      </trkpt>
      <trkpt lat="42.85003" lon="-0.13878">
        <ele>1531</ele>
        <time>2014-03-15T10:30:41Z</time>
      </trkpt>
      <trkpt lat="42.84999" lon="-0.13878">
        <ele>1552</ele>
        <time>2014-03-15T10:30:52Z</time>
      </trkpt>
      <trkpt lat="42.84999" lon="-0.1388">
        <ele>1552</ele>
        <time>2014-03-15T10:30:56Z</time>
      </trkpt>
      <trkpt lat="42.84998" lon="-0.1388">
        <ele>1552</ele>
        <time>2014-03-15T10:30:57Z</time>
      </trkpt>
      <trkpt lat="42.85" lon="-0.13874">
        <ele>1552</ele>
        <time>2014-03-15T10:31:03Z</time>
      </trkpt>
      <trkpt lat="42.85007" lon="-0.13853">
        <ele>1534</ele>
        <time>2014-03-15T10:31:22Z</time>
      </trkpt>
      <trkpt lat="42.85007" lon="-0.13852">
        <ele>1535</ele>
        <time>2014-03-15T10:31:23Z</time>
      </trkpt>
      <trkpt lat="42.85007" lon="-0.13851">
        <ele>1535</ele>
        <time>2014-03-15T10:31:24Z</time>
      </trkpt>
      <trkpt lat="42.85006" lon="-0.13851">
        <ele>1535</ele>
        <time>2014-03-15T10:31:26Z</time>
      </trkpt>
      <trkpt lat="42.85004" lon="-0.13847">
        <ele>1538</ele>
        <time>2014-03-15T10:31:30Z</time>
      </trkpt>
      <trkpt lat="42.84999" lon="-0.13841">
        <ele>1551</ele>
        <time>2014-03-15T10:31:35Z</time>
      </trkpt>
      <trkpt lat="42.84994" lon="-0.13836">
        <ele>1550</ele>
        <time>2014-03-15T10:31:44Z</time>
      </trkpt>
      <trkpt lat="42.84993" lon="-0.13834">
        <ele>1550</ele>
        <time>2014-03-15T10:31:45Z</time>
      </trkpt>
      <trkpt lat="42.84994" lon="-0.13836">
        <ele>1550</ele>
        <time>2014-03-15T10:31:47Z</time>
      </trkpt>
      <trkpt lat="42.8499" lon="-0.13833">
        <ele>1553</ele>
        <time>2014-03-15T10:31:51Z</time>
      </trkpt>
      <trkpt lat="42.84984" lon="-0.13828">
        <ele>1556</ele>
        <time>2014-03-15T10:31:55Z</time>
      </trkpt>
      <trkpt lat="42.84972" lon="-0.13829">
        <ele>1560</ele>
        <time>2014-03-15T10:32:06Z</time>
      </trkpt>
      <trkpt lat="42.84971" lon="-0.1383">
        <ele>1560</ele>
        <time>2014-03-15T10:32:08Z</time>
      </trkpt>
      <trkpt lat="42.84969" lon="-0.13831">
        <ele>1561</ele>
        <time>2014-03-15T10:32:09Z</time>
      </trkpt>
      <trkpt lat="42.84968" lon="-0.13833">
        <ele>1561</ele>
        <time>2014-03-15T10:32:12Z</time>
      </trkpt>
      <trkpt lat="42.84967" lon="-0.13834">
        <ele>1557</ele>
        <time>2014-03-15T10:32:13Z</time>
      </trkpt>
      <trkpt lat="42.8496" lon="-0.13833">
        <ele>1559</ele>
        <time>2014-03-15T10:32:23Z</time>
      </trkpt>
      <trkpt lat="42.8496" lon="-0.13835">
        <ele>1559</ele>
        <time>2014-03-15T10:32:25Z</time>
      </trkpt>
      <trkpt lat="42.84961" lon="-0.13838">
        <ele>1559</ele>
        <time>2014-03-15T10:32:26Z</time>
      </trkpt>
      <trkpt lat="42.84961" lon="-0.13841">
        <ele>1559</ele>
        <time>2014-03-15T10:32:31Z</time>
      </trkpt>
      <trkpt lat="42.84959" lon="-0.1384">
        <ele>1559</ele>
        <time>2014-03-15T10:32:33Z</time>
      </trkpt>
      <trkpt lat="42.84957" lon="-0.13839">
        <ele>1560</ele>
        <time>2014-03-15T10:32:34Z</time>
      </trkpt>
      <trkpt lat="42.84956" lon="-0.13839">
        <ele>1560</ele>
        <time>2014-03-15T10:32:35Z</time>
      </trkpt>
      <trkpt lat="42.84952" lon="-0.13839">
        <ele>1561</ele>
        <time>2014-03-15T10:32:39Z</time>
      </trkpt>
      <trkpt lat="42.8495" lon="-0.13837">
        <ele>1562</ele>
        <time>2014-03-15T10:32:41Z</time>
      </trkpt>
      <trkpt lat="42.8495" lon="-0.13836">
        <ele>1562</ele>
        <time>2014-03-15T10:32:42Z</time>
      </trkpt>
      <trkpt lat="42.84949" lon="-0.13839">
        <ele>1562</ele>
        <time>2014-03-15T10:32:44Z</time>
      </trkpt>
      <trkpt lat="42.84948" lon="-0.13839">
        <ele>1563</ele>
        <time>2014-03-15T10:32:46Z</time>
      </trkpt>
      <trkpt lat="42.8494" lon="-0.13834">
        <ele>1565</ele>
        <time>2014-03-15T10:32:56Z</time>
      </trkpt>
      <trkpt lat="42.8494" lon="-0.13835">
        <ele>1566</ele>
        <time>2014-03-15T10:32:57Z</time>
      </trkpt>
      <trkpt lat="42.84939" lon="-0.13835">
        <ele>1566</ele>
        <time>2014-03-15T10:32:58Z</time>
      </trkpt>
      <trkpt lat="42.84938" lon="-0.13834">
        <ele>1566</ele>
        <time>2014-03-15T10:32:59Z</time>
      </trkpt>
      <trkpt lat="42.84932" lon="-0.13836">
        <ele>1568</ele>
        <time>2014-03-15T10:33:07Z</time>
      </trkpt>
      <trkpt lat="42.8493" lon="-0.13838">
        <ele>1569</ele>
        <time>2014-03-15T10:33:11Z</time>
      </trkpt>
      <trkpt lat="42.84927" lon="-0.1384">
        <ele>1570</ele>
        <time>2014-03-15T10:33:14Z</time>
      </trkpt>
      <trkpt lat="42.84927" lon="-0.13839">
        <ele>1570</ele>
        <time>2014-03-15T10:33:15Z</time>
      </trkpt>
      <trkpt lat="42.84925" lon="-0.1384">
        <ele>1571</ele>
        <time>2014-03-15T10:33:17Z</time>
      </trkpt>
      <trkpt lat="42.84924" lon="-0.13839">
        <ele>1572</ele>
        <time>2014-03-15T10:33:18Z</time>
      </trkpt>
      <trkpt lat="42.84917" lon="-0.13848">
        <ele>1570</ele>
        <time>2014-03-15T10:33:32Z</time>
      </trkpt>
      <trkpt lat="42.84916" lon="-0.13848">
        <ele>1581</ele>
        <time>2014-03-15T10:33:34Z</time>
      </trkpt>
      <trkpt lat="42.84915" lon="-0.13849">
        <ele>1581</ele>
        <time>2014-03-15T10:33:36Z</time>
      </trkpt>
      <trkpt lat="42.84913" lon="-0.1385">
        <ele>1581</ele>
        <time>2014-03-15T10:33:38Z</time>
      </trkpt>
      <trkpt lat="42.84914" lon="-0.13853">
        <ele>1581</ele>
        <time>2014-03-15T10:33:39Z</time>
      </trkpt>
      <trkpt lat="42.84907" lon="-0.13856">
        <ele>1582</ele>
        <time>2014-03-15T10:33:52Z</time>
      </trkpt>
      <trkpt lat="42.84905" lon="-0.13855">
        <ele>1582</ele>
        <time>2014-03-15T10:33:55Z</time>
      </trkpt>
      <trkpt lat="42.84897" lon="-0.13858">
        <ele>1583</ele>
        <time>2014-03-15T10:34:07Z</time>
      </trkpt>
      <trkpt lat="42.84897" lon="-0.13859">
        <ele>1583</ele>
        <time>2014-03-15T10:34:08Z</time>
      </trkpt>
      <trkpt lat="42.84897" lon="-0.1386">
        <ele>1583</ele>
        <time>2014-03-15T10:34:10Z</time>
      </trkpt>
      <trkpt lat="42.84897" lon="-0.13862">
        <ele>1583</ele>
        <time>2014-03-15T10:34:11Z</time>
      </trkpt>
      <trkpt lat="42.84898" lon="-0.13864">
        <ele>1583</ele>
        <time>2014-03-15T10:34:12Z</time>
      </trkpt>
      <trkpt lat="42.84898" lon="-0.13869">
        <ele>1582</ele>
        <time>2014-03-15T10:34:25Z</time>
      </trkpt>
      <trkpt lat="42.84897" lon="-0.13869">
        <ele>1583</ele>
        <time>2014-03-15T10:34:32Z</time>
      </trkpt>
      <trkpt lat="42.84898" lon="-0.13869">
        <ele>1583</ele>
        <time>2014-03-15T10:34:35Z</time>
      </trkpt>
      <trkpt lat="42.84899" lon="-0.13869">
        <ele>1582</ele>
        <time>2014-03-15T10:34:48Z</time>
      </trkpt>
      <trkpt lat="42.84899" lon="-0.13868">
        <ele>1582</ele>
        <time>2014-03-15T10:34:54Z</time>
      </trkpt>
      <trkpt lat="42.84898" lon="-0.13867">
        <ele>1583</ele>
        <time>2014-03-15T10:35:02Z</time>
      </trkpt>
      <trkpt lat="42.84895" lon="-0.13864">
        <ele>1583</ele>
        <time>2014-03-15T10:35:06Z</time>
      </trkpt>
      <trkpt lat="42.84895" lon="-0.13863">
        <ele>1583</ele>
        <time>2014-03-15T10:35:07Z</time>
      </trkpt>
      <trkpt lat="42.84894" lon="-0.13861">
        <ele>1583</ele>
        <time>2014-03-15T10:35:12Z</time>
      </trkpt>
      <trkpt lat="42.84894" lon="-0.13865">
        <ele>1583</ele>
        <time>2014-03-15T10:35:15Z</time>
      </trkpt>
      <trkpt lat="42.84893" lon="-0.13867">
        <ele>1583</ele>
        <time>2014-03-15T10:35:17Z</time>
      </trkpt>
      <trkpt lat="42.84891" lon="-0.13864">
        <ele>1584</ele>
        <time>2014-03-15T10:35:21Z</time>
      </trkpt>
      <trkpt lat="42.8489" lon="-0.13865">
        <ele>1584</ele>
        <time>2014-03-15T10:35:22Z</time>
      </trkpt>
      <trkpt lat="42.84888" lon="-0.13864">
        <ele>1584</ele>
        <time>2014-03-15T10:35:25Z</time>
      </trkpt>
      <trkpt lat="42.84887" lon="-0.13865">
        <ele>1584</ele>
        <time>2014-03-15T10:35:26Z</time>
      </trkpt>
      <trkpt lat="42.84886" lon="-0.13864">
        <ele>1584</ele>
        <time>2014-03-15T10:35:28Z</time>
      </trkpt>
      <trkpt lat="42.84885" lon="-0.13863">
        <ele>1585</ele>
        <time>2014-03-15T10:35:31Z</time>
      </trkpt>
      <trkpt lat="42.84878" lon="-0.1386">
        <ele>1586</ele>
        <time>2014-03-15T10:35:39Z</time>
      </trkpt>
      <trkpt lat="42.84877" lon="-0.13859">
        <ele>1586</ele>
        <time>2014-03-15T10:35:40Z</time>
      </trkpt>
      <trkpt lat="42.84871" lon="-0.13861">
        <ele>1587</ele>
        <time>2014-03-15T10:35:47Z</time>
      </trkpt>
      <trkpt lat="42.84866" lon="-0.1386">
        <ele>1588</ele>
        <time>2014-03-15T10:35:51Z</time>
      </trkpt>
      <trkpt lat="42.84863" lon="-0.1386">
        <ele>1589</ele>
        <time>2014-03-15T10:35:56Z</time>
      </trkpt>
      <trkpt lat="42.84859" lon="-0.13856">
        <ele>1590</ele>
        <time>2014-03-15T10:36:05Z</time>
      </trkpt>
      <trkpt lat="42.84853" lon="-0.13855">
        <ele>1591</ele>
        <time>2014-03-15T10:36:15Z</time>
      </trkpt>
      <trkpt lat="42.84852" lon="-0.13856">
        <ele>1591</ele>
        <time>2014-03-15T10:36:17Z</time>
      </trkpt>
      <trkpt lat="42.84851" lon="-0.13857">
        <ele>1591</ele>
        <time>2014-03-15T10:36:19Z</time>
      </trkpt>
      <trkpt lat="42.84849" lon="-0.13858">
        <ele>1591</ele>
        <time>2014-03-15T10:36:24Z</time>
      </trkpt>
      <trkpt lat="42.84848" lon="-0.13858">
        <ele>1591</ele>
        <time>2014-03-15T10:36:27Z</time>
      </trkpt>
      <trkpt lat="42.84845" lon="-0.13857">
        <ele>1592</ele>
        <time>2014-03-15T10:36:33Z</time>
      </trkpt>
      <trkpt lat="42.84838" lon="-0.13853">
        <ele>1594</ele>
        <time>2014-03-15T10:36:40Z</time>
      </trkpt>
      <trkpt lat="42.84837" lon="-0.13853">
        <ele>1594</ele>
        <time>2014-03-15T10:36:41Z</time>
      </trkpt>
      <trkpt lat="42.84834" lon="-0.13851">
        <ele>1595</ele>
        <time>2014-03-15T10:36:48Z</time>
      </trkpt>
      <trkpt lat="42.8483" lon="-0.13848">
        <ele>1605</ele>
        <time>2014-03-15T10:36:54Z</time>
      </trkpt>
      <trkpt lat="42.84829" lon="-0.13848">
        <ele>1605</ele>
        <time>2014-03-15T10:36:56Z</time>
      </trkpt>
      <trkpt lat="42.84827" lon="-0.13846">
        <ele>1605</ele>
        <time>2014-03-15T10:37:01Z</time>
      </trkpt>
      <trkpt lat="42.84823" lon="-0.13845">
        <ele>1605</ele>
        <time>2014-03-15T10:37:07Z</time>
      </trkpt>
      <trkpt lat="42.84822" lon="-0.13845">
        <ele>1605</ele>
        <time>2014-03-15T10:37:08Z</time>
      </trkpt>
      <trkpt lat="42.84819" lon="-0.13845">
        <ele>1605</ele>
        <time>2014-03-15T10:37:12Z</time>
      </trkpt>
      <trkpt lat="42.84815" lon="-0.13845">
        <ele>1606</ele>
        <time>2014-03-15T10:37:17Z</time>
      </trkpt>
      <trkpt lat="42.84814" lon="-0.13845">
        <ele>1606</ele>
        <time>2014-03-15T10:37:18Z</time>
      </trkpt>
      <trkpt lat="42.84813" lon="-0.13845">
        <ele>1606</ele>
        <time>2014-03-15T10:37:19Z</time>
      </trkpt>
      <trkpt lat="42.84811" lon="-0.13844">
        <ele>1606</ele>
        <time>2014-03-15T10:37:20Z</time>
      </trkpt>
      <trkpt lat="42.84806" lon="-0.13844">
        <ele>1607</ele>
        <time>2014-03-15T10:37:26Z</time>
      </trkpt>
      <trkpt lat="42.84803" lon="-0.13844">
        <ele>1607</ele>
        <time>2014-03-15T10:37:30Z</time>
      </trkpt>
      <trkpt lat="42.84801" lon="-0.13844">
        <ele>1607</ele>
        <time>2014-03-15T10:37:31Z</time>
      </trkpt>
      <trkpt lat="42.84789" lon="-0.13831">
        <ele>1619</ele>
        <time>2014-03-15T10:37:54Z</time>
      </trkpt>
      <trkpt lat="42.84787" lon="-0.13838">
        <ele>1609</ele>
        <time>2014-03-15T10:38:44Z</time>
      </trkpt>
      <trkpt lat="42.84796" lon="-0.13849">
        <ele>1608</ele>
        <time>2014-03-15T10:40:00Z</time>
      </trkpt>
      <trkpt lat="42.84789" lon="-0.13843">
        <ele>1609</ele>
        <time>2014-03-15T10:40:18Z</time>
      </trkpt>
      <trkpt lat="42.84788" lon="-0.13842">
        <ele>1609</ele>
        <time>2014-03-15T10:40:19Z</time>
      </trkpt>
      <trkpt lat="42.84786" lon="-0.13841">
        <ele>1609</ele>
        <time>2014-03-15T10:40:24Z</time>
      </trkpt>
      <trkpt lat="42.84783" lon="-0.13839">
        <ele>1610</ele>
        <time>2014-03-15T10:41:29Z</time>
      </trkpt>
      <trkpt lat="42.84783" lon="-0.13838">
        <ele>1610</ele>
        <time>2014-03-15T10:41:31Z</time>
      </trkpt>
      <trkpt lat="42.84782" lon="-0.13838">
        <ele>1610</ele>
        <time>2014-03-15T10:41:33Z</time>
      </trkpt>
      <trkpt lat="42.84782" lon="-0.13835">
        <ele>1610</ele>
        <time>2014-03-15T10:42:08Z</time>
      </trkpt>
      <trkpt lat="42.84783" lon="-0.13836">
        <ele>1610</ele>
        <time>2014-03-15T10:42:36Z</time>
      </trkpt>
      <trkpt lat="42.8477" lon="-0.13834">
        <ele>1612</ele>
        <time>2014-03-15T10:43:24Z</time>
      </trkpt>
      <trkpt lat="42.84769" lon="-0.13833">
        <ele>1621</ele>
        <time>2014-03-15T10:43:25Z</time>
      </trkpt>
      <trkpt lat="42.84764" lon="-0.13833">
        <ele>1621</ele>
        <time>2014-03-15T10:43:32Z</time>
      </trkpt>
      <trkpt lat="42.84763" lon="-0.13832">
        <ele>1621</ele>
        <time>2014-03-15T10:43:33Z</time>
      </trkpt>
      <trkpt lat="42.84757" lon="-0.1383">
        <ele>1620</ele>
        <time>2014-03-15T10:43:41Z</time>
      </trkpt>
      <trkpt lat="42.84752" lon="-0.13835">
        <ele>1618</ele>
        <time>2014-03-15T10:43:49Z</time>
      </trkpt>
      <trkpt lat="42.84752" lon="-0.13837">
        <ele>1617</ele>
        <time>2014-03-15T10:43:50Z</time>
      </trkpt>
      <trkpt lat="42.8475" lon="-0.13837">
        <ele>1617</ele>
        <time>2014-03-15T10:43:52Z</time>
      </trkpt>
      <trkpt lat="42.8475" lon="-0.13838">
        <ele>1620</ele>
        <time>2014-03-15T10:43:53Z</time>
      </trkpt>
      <trkpt lat="42.84749" lon="-0.13841">
        <ele>1621</ele>
        <time>2014-03-15T10:43:56Z</time>
      </trkpt>
      <trkpt lat="42.84749" lon="-0.13842">
        <ele>1621</ele>
        <time>2014-03-15T10:43:57Z</time>
      </trkpt>
      <trkpt lat="42.84744" lon="-0.13848">
        <ele>1622</ele>
        <time>2014-03-15T10:44:02Z</time>
      </trkpt>
      <trkpt lat="42.84741" lon="-0.1385">
        <ele>1622</ele>
        <time>2014-03-15T10:44:06Z</time>
      </trkpt>
      <trkpt lat="42.84737" lon="-0.13851">
        <ele>1623</ele>
        <time>2014-03-15T10:44:10Z</time>
      </trkpt>
      <trkpt lat="42.84728" lon="-0.1385">
        <ele>1624</ele>
        <time>2014-03-15T10:44:19Z</time>
      </trkpt>
      <trkpt lat="42.84723" lon="-0.1385">
        <ele>1624</ele>
        <time>2014-03-15T10:44:23Z</time>
      </trkpt>
      <trkpt lat="42.84714" lon="-0.13859">
        <ele>1625</ele>
        <time>2014-03-15T10:44:34Z</time>
      </trkpt>
      <trkpt lat="42.8471" lon="-0.1386">
        <ele>1626</ele>
        <time>2014-03-15T10:44:37Z</time>
      </trkpt>
      <trkpt lat="42.84709" lon="-0.13859">
        <ele>1626</ele>
        <time>2014-03-15T10:44:38Z</time>
      </trkpt>
      <trkpt lat="42.84704" lon="-0.13856">
        <ele>1627</ele>
        <time>2014-03-15T10:44:47Z</time>
      </trkpt>
      <trkpt lat="42.84699" lon="-0.13858">
        <ele>1628</ele>
        <time>2014-03-15T10:44:51Z</time>
      </trkpt>
      <trkpt lat="42.84698" lon="-0.13855">
        <ele>1628</ele>
        <time>2014-03-15T10:44:54Z</time>
      </trkpt>
      <trkpt lat="42.84698" lon="-0.13854">
        <ele>1628</ele>
        <time>2014-03-15T10:44:55Z</time>
      </trkpt>
      <trkpt lat="42.84699" lon="-0.13853">
        <ele>1628</ele>
        <time>2014-03-15T10:44:57Z</time>
      </trkpt>
      <trkpt lat="42.84691" lon="-0.13842">
        <ele>1630</ele>
        <time>2014-03-15T10:45:08Z</time>
      </trkpt>
      <trkpt lat="42.84691" lon="-0.13843">
        <ele>1631</ele>
        <time>2014-03-15T10:45:09Z</time>
      </trkpt>
      <trkpt lat="42.84687" lon="-0.13845">
        <ele>1631</ele>
        <time>2014-03-15T10:45:13Z</time>
      </trkpt>
      <trkpt lat="42.84686" lon="-0.13845">
        <ele>1631</ele>
        <time>2014-03-15T10:45:14Z</time>
      </trkpt>
      <trkpt lat="42.84685" lon="-0.13846">
        <ele>1632</ele>
        <time>2014-03-15T10:45:16Z</time>
      </trkpt>
      <trkpt lat="42.84684" lon="-0.13846">
        <ele>1632</ele>
        <time>2014-03-15T10:45:17Z</time>
      </trkpt>
      <trkpt lat="42.84681" lon="-0.13848">
        <ele>1632</ele>
        <time>2014-03-15T10:45:21Z</time>
      </trkpt>
      <trkpt lat="42.8468" lon="-0.13849">
        <ele>1632</ele>
        <time>2014-03-15T10:45:22Z</time>
      </trkpt>
      <trkpt lat="42.84678" lon="-0.13847">
        <ele>1633</ele>
        <time>2014-03-15T10:45:35Z</time>
      </trkpt>
      <trkpt lat="42.84673" lon="-0.13843">
        <ele>1635</ele>
        <time>2014-03-15T10:45:59Z</time>
      </trkpt>
      <trkpt lat="42.84671" lon="-0.13847">
        <ele>1634</ele>
        <time>2014-03-15T10:46:25Z</time>
      </trkpt>
      <trkpt lat="42.8466" lon="-0.13853">
        <ele>1643</ele>
        <time>2014-03-15T10:47:33Z</time>
      </trkpt>
      <trkpt lat="42.84656" lon="-0.13857">
        <ele>1644</ele>
        <time>2014-03-15T10:47:43Z</time>
      </trkpt>
      <trkpt lat="42.84653" lon="-0.13861">
        <ele>1644</ele>
        <time>2014-03-15T10:47:47Z</time>
      </trkpt>
      <trkpt lat="42.84651" lon="-0.13863">
        <ele>1644</ele>
        <time>2014-03-15T10:47:53Z</time>
      </trkpt>
      <trkpt lat="42.8465" lon="-0.13862">
        <ele>1644</ele>
        <time>2014-03-15T10:47:54Z</time>
      </trkpt>
      <trkpt lat="42.84645" lon="-0.13864">
        <ele>1645</ele>
        <time>2014-03-15T10:48:02Z</time>
      </trkpt>
      <trkpt lat="42.84634" lon="-0.13865">
        <ele>1646</ele>
        <time>2014-03-15T10:48:17Z</time>
      </trkpt>
      <trkpt lat="42.84618" lon="-0.13857">
        <ele>1649</ele>
        <time>2014-03-15T10:48:38Z</time>
      </trkpt>
      <trkpt lat="42.84615" lon="-0.13854">
        <ele>1650</ele>
        <time>2014-03-15T10:48:41Z</time>
      </trkpt>
      <trkpt lat="42.84612" lon="-0.13854">
        <ele>1651</ele>
        <time>2014-03-15T10:48:44Z</time>
      </trkpt>
      <trkpt lat="42.84609" lon="-0.13856">
        <ele>1651</ele>
        <time>2014-03-15T10:48:46Z</time>
      </trkpt>
      <trkpt lat="42.84608" lon="-0.13857">
        <ele>1652</ele>
        <time>2014-03-15T10:48:47Z</time>
      </trkpt>
      <trkpt lat="42.84601" lon="-0.1386">
        <ele>1652</ele>
        <time>2014-03-15T10:48:57Z</time>
      </trkpt>
      <trkpt lat="42.846" lon="-0.1386">
        <ele>1652</ele>
        <time>2014-03-15T10:48:58Z</time>
      </trkpt>
      <trkpt lat="42.84593" lon="-0.13868">
        <ele>1651</ele>
        <time>2014-03-15T10:49:04Z</time>
      </trkpt>
      <trkpt lat="42.84592" lon="-0.13868">
        <ele>1652</ele>
        <time>2014-03-15T10:49:06Z</time>
      </trkpt>
      <trkpt lat="42.84595" lon="-0.13854">
        <ele>1655</ele>
        <time>2014-03-15T10:49:45Z</time>
      </trkpt>
      <trkpt lat="42.84594" lon="-0.13853">
        <ele>1655</ele>
        <time>2014-03-15T10:49:47Z</time>
      </trkpt>
      <trkpt lat="42.84591" lon="-0.13852">
        <ele>1656</ele>
        <time>2014-03-15T10:49:59Z</time>
      </trkpt>
      <trkpt lat="42.84585" lon="-0.1386">
        <ele>1654</ele>
        <time>2014-03-15T10:50:16Z</time>
      </trkpt>
      <trkpt lat="42.84577" lon="-0.13862">
        <ele>1662</ele>
        <time>2014-03-15T10:50:34Z</time>
      </trkpt>
      <trkpt lat="42.8457" lon="-0.13864">
        <ele>1662</ele>
        <time>2014-03-15T10:50:44Z</time>
      </trkpt>
      <trkpt lat="42.84568" lon="-0.13865">
        <ele>1662</ele>
        <time>2014-03-15T10:50:45Z</time>
      </trkpt>
      <trkpt lat="42.84557" lon="-0.13865">
        <ele>1662</ele>
        <time>2014-03-15T10:50:58Z</time>
      </trkpt>
      <trkpt lat="42.84543" lon="-0.13877">
        <ele>1660</ele>
        <time>2014-03-15T10:51:10Z</time>
      </trkpt>
      <trkpt lat="42.84542" lon="-0.13877">
        <ele>1661</ele>
        <time>2014-03-15T10:51:11Z</time>
      </trkpt>
      <trkpt lat="42.84538" lon="-0.13877">
        <ele>1661</ele>
        <time>2014-03-15T10:51:14Z</time>
      </trkpt>
      <trkpt lat="42.84526" lon="-0.13885">
        <ele>1660</ele>
        <time>2014-03-15T10:51:27Z</time>
      </trkpt>
      <trkpt lat="42.84524" lon="-0.13884">
        <ele>1660</ele>
        <time>2014-03-15T10:51:28Z</time>
      </trkpt>
      <trkpt lat="42.84502" lon="-0.13894">
        <ele>1658</ele>
        <time>2014-03-15T10:51:48Z</time>
      </trkpt>
      <trkpt lat="42.84497" lon="-0.13893">
        <ele>1663</ele>
        <time>2014-03-15T10:51:56Z</time>
      </trkpt>
      <trkpt lat="42.84495" lon="-0.13894">
        <ele>1663</ele>
        <time>2014-03-15T10:51:58Z</time>
      </trkpt>
      <trkpt lat="42.84481" lon="-0.13887">
        <ele>1666</ele>
        <time>2014-03-15T10:52:16Z</time>
      </trkpt>
      <trkpt lat="42.8448" lon="-0.13887">
        <ele>1666</ele>
        <time>2014-03-15T10:52:18Z</time>
      </trkpt>
      <trkpt lat="42.8448" lon="-0.13889">
        <ele>1666</ele>
        <time>2014-03-15T10:52:19Z</time>
      </trkpt>
      <trkpt lat="42.84468" lon="-0.13885">
        <ele>1667</ele>
        <time>2014-03-15T10:52:34Z</time>
      </trkpt>
      <trkpt lat="42.84467" lon="-0.13884">
        <ele>1668</ele>
        <time>2014-03-15T10:52:36Z</time>
      </trkpt>
      <trkpt lat="42.84465" lon="-0.13882">
        <ele>1668</ele>
        <time>2014-03-15T10:52:38Z</time>
      </trkpt>
      <trkpt lat="42.84464" lon="-0.13882">
        <ele>1668</ele>
        <time>2014-03-15T10:52:39Z</time>
      </trkpt>
      <trkpt lat="42.84461" lon="-0.13881">
        <ele>1668</ele>
        <time>2014-03-15T10:52:46Z</time>
      </trkpt>
      <trkpt lat="42.84459" lon="-0.13882">
        <ele>1668</ele>
        <time>2014-03-15T10:52:47Z</time>
      </trkpt>
      <trkpt lat="42.84452" lon="-0.13883">
        <ele>1669</ele>
        <time>2014-03-15T10:52:54Z</time>
      </trkpt>
      <trkpt lat="42.84452" lon="-0.13882">
        <ele>1669</ele>
        <time>2014-03-15T10:52:55Z</time>
      </trkpt>
      <trkpt lat="42.84442" lon="-0.13884">
        <ele>1669</ele>
        <time>2014-03-15T10:53:05Z</time>
      </trkpt>
      <trkpt lat="42.84438" lon="-0.13885">
        <ele>1669</ele>
        <time>2014-03-15T10:53:10Z</time>
      </trkpt>
      <trkpt lat="42.84436" lon="-0.13875">
        <ele>1671</ele>
        <time>2014-03-15T10:53:17Z</time>
      </trkpt>
      <trkpt lat="42.84432" lon="-0.13871">
        <ele>1671</ele>
        <time>2014-03-15T10:53:23Z</time>
      </trkpt>
      <trkpt lat="42.84431" lon="-0.1387">
        <ele>1672</ele>
        <time>2014-03-15T10:53:24Z</time>
      </trkpt>
      <trkpt lat="42.84423" lon="-0.13867">
        <ele>1672</ele>
        <time>2014-03-15T10:53:31Z</time>
      </trkpt>
      <trkpt lat="42.84417" lon="-0.13869">
        <ele>1672</ele>
        <time>2014-03-15T10:53:37Z</time>
      </trkpt>
      <trkpt lat="42.84416" lon="-0.1387">
        <ele>1679</ele>
        <time>2014-03-15T10:53:38Z</time>
      </trkpt>
      <trkpt lat="42.84416" lon="-0.13868">
        <ele>1680</ele>
        <time>2014-03-15T10:53:41Z</time>
      </trkpt>
      <trkpt lat="42.84411" lon="-0.13869">
        <ele>1680</ele>
        <time>2014-03-15T10:53:45Z</time>
      </trkpt>
      <trkpt lat="42.8441" lon="-0.13871">
        <ele>1679</ele>
        <time>2014-03-15T10:53:46Z</time>
      </trkpt>
      <trkpt lat="42.84404" lon="-0.13875">
        <ele>1679</ele>
        <time>2014-03-15T10:53:52Z</time>
      </trkpt>
      <trkpt lat="42.84404" lon="-0.13874">
        <ele>1679</ele>
        <time>2014-03-15T10:53:53Z</time>
      </trkpt>
      <trkpt lat="42.84402" lon="-0.13873">
        <ele>1679</ele>
        <time>2014-03-15T10:53:54Z</time>
      </trkpt>
      <trkpt lat="42.84393" lon="-0.13877">
        <ele>1679</ele>
        <time>2014-03-15T10:54:04Z</time>
      </trkpt>
      <trkpt lat="42.84387" lon="-0.13878">
        <ele>1680</ele>
        <time>2014-03-15T10:54:12Z</time>
      </trkpt>
      <trkpt lat="42.84386" lon="-0.13878">
        <ele>1680</ele>
        <time>2014-03-15T10:54:14Z</time>
      </trkpt>
      <trkpt lat="42.84385" lon="-0.1388">
        <ele>1680</ele>
        <time>2014-03-15T10:54:15Z</time>
      </trkpt>
      <trkpt lat="42.84379" lon="-0.13879">
        <ele>1680</ele>
        <time>2014-03-15T10:54:22Z</time>
      </trkpt>
      <trkpt lat="42.84377" lon="-0.13878">
        <ele>1681</ele>
        <time>2014-03-15T10:54:25Z</time>
      </trkpt>
      <trkpt lat="42.84376" lon="-0.13878">
        <ele>1681</ele>
        <time>2014-03-15T10:54:26Z</time>
      </trkpt>
      <trkpt lat="42.84375" lon="-0.13878">
        <ele>1681</ele>
        <time>2014-03-15T10:54:27Z</time>
      </trkpt>
      <trkpt lat="42.84374" lon="-0.13878">
        <ele>1681</ele>
        <time>2014-03-15T10:54:28Z</time>
      </trkpt>
      <trkpt lat="42.84368" lon="-0.13878">
        <ele>1681</ele>
        <time>2014-03-15T10:54:33Z</time>
      </trkpt>
      <trkpt lat="42.84367" lon="-0.13878">
        <ele>1681</ele>
        <time>2014-03-15T10:54:34Z</time>
      </trkpt>
      <trkpt lat="42.84357" lon="-0.13882">
        <ele>1681</ele>
        <time>2014-03-15T10:54:41Z</time>
      </trkpt>
      <trkpt lat="42.84347" lon="-0.13888">
        <ele>1681</ele>
        <time>2014-03-15T10:54:52Z</time>
      </trkpt>
      <trkpt lat="42.84346" lon="-0.13888">
        <ele>1681</ele>
        <time>2014-03-15T10:54:53Z</time>
      </trkpt>
      <trkpt lat="42.84342" lon="-0.13885">
        <ele>1682</ele>
        <time>2014-03-15T10:54:57Z</time>
      </trkpt>
      <trkpt lat="42.84341" lon="-0.13885">
        <ele>1682</ele>
        <time>2014-03-15T10:54:59Z</time>
      </trkpt>
      <trkpt lat="42.84339" lon="-0.13884">
        <ele>1682</ele>
        <time>2014-03-15T10:55:00Z</time>
      </trkpt>
      <trkpt lat="42.84329" lon="-0.13883">
        <ele>1688</ele>
        <time>2014-03-15T10:55:17Z</time>
      </trkpt>
      <trkpt lat="42.8433" lon="-0.1388">
        <ele>1688</ele>
        <time>2014-03-15T10:55:42Z</time>
      </trkpt>
      <trkpt lat="42.8432" lon="-0.13874">
        <ele>1689</ele>
        <time>2014-03-15T10:56:07Z</time>
      </trkpt>
      <trkpt lat="42.84311" lon="-0.13878">
        <ele>1689</ele>
        <time>2014-03-15T10:56:17Z</time>
      </trkpt>
      <trkpt lat="42.84307" lon="-0.13879">
        <ele>1689</ele>
        <time>2014-03-15T10:56:39Z</time>
      </trkpt>
      <trkpt lat="42.84296" lon="-0.13874">
        <ele>1690</ele>
        <time>2014-03-15T10:57:52Z</time>
      </trkpt>
      <trkpt lat="42.84288" lon="-0.13874">
        <ele>1690</ele>
        <time>2014-03-15T10:58:00Z</time>
      </trkpt>
      <trkpt lat="42.84278" lon="-0.13874">
        <ele>1691</ele>
        <time>2014-03-15T10:58:16Z</time>
      </trkpt>
      <trkpt lat="42.84261" lon="-0.13876">
        <ele>1691</ele>
        <time>2014-03-15T10:58:36Z</time>
      </trkpt>
      <trkpt lat="42.84257" lon="-0.13876">
        <ele>1691</ele>
        <time>2014-03-15T10:58:49Z</time>
      </trkpt>
      <trkpt lat="42.84256" lon="-0.13885">
        <ele>1689</ele>
        <time>2014-03-15T10:59:20Z</time>
      </trkpt>
      <trkpt lat="42.8426" lon="-0.13879">
        <ele>1690</ele>
        <time>2014-03-15T11:00:02Z</time>
      </trkpt>
      <trkpt lat="42.84252" lon="-0.13896">
        <ele>1688</ele>
        <time>2014-03-15T11:00:14Z</time>
      </trkpt>
      <trkpt lat="42.84253" lon="-0.13907">
        <ele>1686</ele>
        <time>2014-03-15T11:00:23Z</time>
      </trkpt>
      <trkpt lat="42.84253" lon="-0.13914">
        <ele>1685</ele>
        <time>2014-03-15T11:00:29Z</time>
      </trkpt>
      <trkpt lat="42.8424" lon="-0.13921">
        <ele>1682</ele>
        <time>2014-03-15T11:00:40Z</time>
      </trkpt>
      <trkpt lat="42.84237" lon="-0.13921">
        <ele>1682</ele>
        <time>2014-03-15T11:00:43Z</time>
      </trkpt>
      <trkpt lat="42.84223" lon="-0.13911">
        <ele>1690</ele>
        <time>2014-03-15T11:00:56Z</time>
      </trkpt>
      <trkpt lat="42.84221" lon="-0.1391">
        <ele>1690</ele>
        <time>2014-03-15T11:00:59Z</time>
      </trkpt>
      <trkpt lat="42.84216" lon="-0.13914">
        <ele>1690</ele>
        <time>2014-03-15T11:01:06Z</time>
      </trkpt>
      <trkpt lat="42.84202" lon="-0.13918">
        <ele>1681</ele>
        <time>2014-03-15T11:01:21Z</time>
      </trkpt>
      <trkpt lat="42.84201" lon="-0.13918">
        <ele>1681</ele>
        <time>2014-03-15T11:01:22Z</time>
      </trkpt>
      <trkpt lat="42.84194" lon="-0.13914">
        <ele>1690</ele>
        <time>2014-03-15T11:01:31Z</time>
      </trkpt>
      <trkpt lat="42.84188" lon="-0.13908">
        <ele>1690</ele>
        <time>2014-03-15T11:01:37Z</time>
      </trkpt>
      <trkpt lat="42.84187" lon="-0.13907">
        <ele>1690</ele>
        <time>2014-03-15T11:01:38Z</time>
      </trkpt>
      <trkpt lat="42.84183" lon="-0.13905">
        <ele>1689</ele>
        <time>2014-03-15T11:01:41Z</time>
      </trkpt>
      <trkpt lat="42.84178" lon="-0.13903">
        <ele>1689</ele>
        <time>2014-03-15T11:01:45Z</time>
      </trkpt>
      <trkpt lat="42.84167" lon="-0.13892">
        <ele>1691</ele>
        <time>2014-03-15T11:02:00Z</time>
      </trkpt>
      <trkpt lat="42.8415" lon="-0.13886">
        <ele>1694</ele>
        <time>2014-03-15T11:02:21Z</time>
      </trkpt>
      <trkpt lat="42.84133" lon="-0.13876">
        <ele>1696</ele>
        <time>2014-03-15T11:02:45Z</time>
      </trkpt>
      <trkpt lat="42.84122" lon="-0.13867">
        <ele>1698</ele>
        <time>2014-03-15T11:02:58Z</time>
      </trkpt>
      <trkpt lat="42.84109" lon="-0.13862">
        <ele>1699</ele>
        <time>2014-03-15T11:03:17Z</time>
      </trkpt>
      <trkpt lat="42.84108" lon="-0.13861">
        <ele>1699</ele>
        <time>2014-03-15T11:03:20Z</time>
      </trkpt>
      <trkpt lat="42.84109" lon="-0.13861">
        <ele>1699</ele>
        <time>2014-03-15T11:03:21Z</time>
      </trkpt>
      <trkpt lat="42.8411" lon="-0.13859">
        <ele>1700</ele>
        <time>2014-03-15T11:03:34Z</time>
      </trkpt>
      <trkpt lat="42.84106" lon="-0.13853">
        <ele>1701</ele>
        <time>2014-03-15T11:03:45Z</time>
      </trkpt>
      <trkpt lat="42.84096" lon="-0.13847">
        <ele>1703</ele>
        <time>2014-03-15T11:03:59Z</time>
      </trkpt>
      <trkpt lat="42.84095" lon="-0.13845">
        <ele>1704</ele>
        <time>2014-03-15T11:04:01Z</time>
      </trkpt>
      <trkpt lat="42.84093" lon="-0.13844">
        <ele>1705</ele>
        <time>2014-03-15T11:04:03Z</time>
      </trkpt>
      <trkpt lat="42.84079" lon="-0.13838">
        <ele>1707</ele>
        <time>2014-03-15T11:04:20Z</time>
      </trkpt>
      <trkpt lat="42.84075" lon="-0.13845">
        <ele>1704</ele>
        <time>2014-03-15T11:04:29Z</time>
      </trkpt>
      <trkpt lat="42.84069" lon="-0.13848">
        <ele>1702</ele>
        <time>2014-03-15T11:04:32Z</time>
      </trkpt>
      <trkpt lat="42.84059" lon="-0.13847">
        <ele>1701</ele>
        <time>2014-03-15T11:04:38Z</time>
      </trkpt>
      <trkpt lat="42.8405" lon="-0.13841">
        <ele>1701</ele>
        <time>2014-03-15T11:04:51Z</time>
      </trkpt>
      <trkpt lat="42.84041" lon="-0.13841">
        <ele>1700</ele>
        <time>2014-03-15T11:05:02Z</time>
      </trkpt>
      <trkpt lat="42.8403" lon="-0.13842">
        <ele>1700</ele>
        <time>2014-03-15T11:05:12Z</time>
      </trkpt>
      <trkpt lat="42.84027" lon="-0.13845">
        <ele>1700</ele>
        <time>2014-03-15T11:05:36Z</time>
      </trkpt>
      <trkpt lat="42.84007" lon="-0.13853">
        <ele>1700</ele>
        <time>2014-03-15T11:05:46Z</time>
      </trkpt>
      <trkpt lat="42.83991" lon="-0.13858">
        <ele>1701</ele>
        <time>2014-03-15T11:05:58Z</time>
      </trkpt>
      <trkpt lat="42.83985" lon="-0.13861">
        <ele>1700</ele>
        <time>2014-03-15T11:06:06Z</time>
      </trkpt>
      <trkpt lat="42.8397" lon="-0.13862">
        <ele>1700</ele>
        <time>2014-03-15T11:06:20Z</time>
      </trkpt>
      <trkpt lat="42.83969" lon="-0.13862">
        <ele>1700</ele>
        <time>2014-03-15T11:06:21Z</time>
      </trkpt>
      <trkpt lat="42.83954" lon="-0.13861">
        <ele>1701</ele>
        <time>2014-03-15T11:06:36Z</time>
      </trkpt>
      <trkpt lat="42.83951" lon="-0.13862">
        <ele>1701</ele>
        <time>2014-03-15T11:06:39Z</time>
      </trkpt>
      <trkpt lat="42.83943" lon="-0.13864">
        <ele>1702</ele>
        <time>2014-03-15T11:06:48Z</time>
      </trkpt>
      <trkpt lat="42.83935" lon="-0.13863">
        <ele>1703</ele>
        <time>2014-03-15T11:06:54Z</time>
      </trkpt>
      <trkpt lat="42.83932" lon="-0.13861">
        <ele>1703</ele>
        <time>2014-03-15T11:06:56Z</time>
      </trkpt>
      <trkpt lat="42.83931" lon="-0.13862">
        <ele>1703</ele>
        <time>2014-03-15T11:06:57Z</time>
      </trkpt>
      <trkpt lat="42.83922" lon="-0.1387">
        <ele>1702</ele>
        <time>2014-03-15T11:07:04Z</time>
      </trkpt>
      <trkpt lat="42.83912" lon="-0.13876">
        <ele>1704</ele>
        <time>2014-03-15T11:07:13Z</time>
      </trkpt>
      <trkpt lat="42.83905" lon="-0.1388">
        <ele>1703</ele>
        <time>2014-03-15T11:07:21Z</time>
      </trkpt>
      <trkpt lat="42.83884" lon="-0.1388">
        <ele>1703</ele>
        <time>2014-03-15T11:07:38Z</time>
      </trkpt>
      <trkpt lat="42.83883" lon="-0.1388">
        <ele>1704</ele>
        <time>2014-03-15T11:07:40Z</time>
      </trkpt>
      <trkpt lat="42.83879" lon="-0.13876">
        <ele>1704</ele>
        <time>2014-03-15T11:07:43Z</time>
      </trkpt>
      <trkpt lat="42.83857" lon="-0.13861">
        <ele>1707</ele>
        <time>2014-03-15T11:08:02Z</time>
      </trkpt>
      <trkpt lat="42.83849" lon="-0.1386">
        <ele>1708</ele>
        <time>2014-03-15T11:08:11Z</time>
      </trkpt>
      <trkpt lat="42.83851" lon="-0.13869">
        <ele>1706</ele>
        <time>2014-03-15T11:08:16Z</time>
      </trkpt>
      <trkpt lat="42.83841" lon="-0.1386">
        <ele>1708</ele>
        <time>2014-03-15T11:10:03Z</time>
      </trkpt>
      <trkpt lat="42.83838" lon="-0.1386">
        <ele>1708</ele>
        <time>2014-03-15T11:10:05Z</time>
      </trkpt>
      <trkpt lat="42.83825" lon="-0.13854">
        <ele>1711</ele>
        <time>2014-03-15T11:10:16Z</time>
      </trkpt>
      <trkpt lat="42.83815" lon="-0.13847">
        <ele>1711</ele>
        <time>2014-03-15T11:10:24Z</time>
      </trkpt>
      <trkpt lat="42.83794" lon="-0.13836">
        <ele>1711</ele>
        <time>2014-03-15T11:10:50Z</time>
      </trkpt>
      <trkpt lat="42.83792" lon="-0.13835">
        <ele>1712</ele>
        <time>2014-03-15T11:10:51Z</time>
      </trkpt>
      <trkpt lat="42.8378" lon="-0.13832">
        <ele>1726</ele>
        <time>2014-03-15T11:11:02Z</time>
      </trkpt>
      <trkpt lat="42.83771" lon="-0.13834">
        <ele>1713</ele>
        <time>2014-03-15T11:11:23Z</time>
      </trkpt>
      <trkpt lat="42.83767" lon="-0.13827">
        <ele>1725</ele>
        <time>2014-03-15T11:12:02Z</time>
      </trkpt>
      <trkpt lat="42.83754" lon="-0.13828">
        <ele>1722</ele>
        <time>2014-03-15T11:12:33Z</time>
      </trkpt>
      <trkpt lat="42.8374" lon="-0.13831">
        <ele>1724</ele>
        <time>2014-03-15T11:12:46Z</time>
      </trkpt>
      <trkpt lat="42.83736" lon="-0.1383">
        <ele>1725</ele>
        <time>2014-03-15T11:12:49Z</time>
      </trkpt>
      <trkpt lat="42.83734" lon="-0.13833">
        <ele>1726</ele>
        <time>2014-03-15T11:12:52Z</time>
      </trkpt>
      <trkpt lat="42.83721" lon="-0.13831">
        <ele>1729</ele>
        <time>2014-03-15T11:13:06Z</time>
      </trkpt>
      <trkpt lat="42.83715" lon="-0.13829">
        <ele>1730</ele>
        <time>2014-03-15T11:13:11Z</time>
      </trkpt>
      <trkpt lat="42.83713" lon="-0.1383">
        <ele>1730</ele>
        <time>2014-03-15T11:13:12Z</time>
      </trkpt>
      <trkpt lat="42.8371" lon="-0.1383">
        <ele>1730</ele>
        <time>2014-03-15T11:13:14Z</time>
      </trkpt>
      <trkpt lat="42.83695" lon="-0.13827">
        <ele>1731</ele>
        <time>2014-03-15T11:13:27Z</time>
      </trkpt>
      <trkpt lat="42.8369" lon="-0.13828">
        <ele>1730</ele>
        <time>2014-03-15T11:13:33Z</time>
      </trkpt>
      <trkpt lat="42.83683" lon="-0.13827">
        <ele>1729</ele>
        <time>2014-03-15T11:13:40Z</time>
      </trkpt>
      <trkpt lat="42.83681" lon="-0.13828">
        <ele>1729</ele>
        <time>2014-03-15T11:13:42Z</time>
      </trkpt>
      <trkpt lat="42.83678" lon="-0.13828">
        <ele>1728</ele>
        <time>2014-03-15T11:13:44Z</time>
      </trkpt>
      <trkpt lat="42.83658" lon="-0.13828">
        <ele>1730</ele>
        <time>2014-03-15T11:14:03Z</time>
      </trkpt>
      <trkpt lat="42.83645" lon="-0.13835">
        <ele>1723</ele>
        <time>2014-03-15T11:14:18Z</time>
      </trkpt>
      <trkpt lat="42.83641" lon="-0.13837">
        <ele>1723</ele>
        <time>2014-03-15T11:14:21Z</time>
      </trkpt>
      <trkpt lat="42.83628" lon="-0.13839">
        <ele>1724</ele>
        <time>2014-03-15T11:14:35Z</time>
      </trkpt>
      <trkpt lat="42.83627" lon="-0.1384">
        <ele>1724</ele>
        <time>2014-03-15T11:14:36Z</time>
      </trkpt>
      <trkpt lat="42.83626" lon="-0.13843">
        <ele>1724</ele>
        <time>2014-03-15T11:14:38Z</time>
      </trkpt>
      <trkpt lat="42.83624" lon="-0.13847">
        <ele>1724</ele>
        <time>2014-03-15T11:14:42Z</time>
      </trkpt>
      <trkpt lat="42.83619" lon="-0.13857">
        <ele>1724</ele>
        <time>2014-03-15T11:14:51Z</time>
      </trkpt>
      <trkpt lat="42.83617" lon="-0.13859">
        <ele>1724</ele>
        <time>2014-03-15T11:14:54Z</time>
      </trkpt>
      <trkpt lat="42.83603" lon="-0.13861">
        <ele>1725</ele>
        <time>2014-03-15T11:15:07Z</time>
      </trkpt>
      <trkpt lat="42.83586" lon="-0.13865">
        <ele>1725</ele>
        <time>2014-03-15T11:15:23Z</time>
      </trkpt>
      <trkpt lat="42.83582" lon="-0.13867">
        <ele>1730</ele>
        <time>2014-03-15T11:15:28Z</time>
      </trkpt>
      <trkpt lat="42.83575" lon="-0.13863">
        <ele>1731</ele>
        <time>2014-03-15T11:15:36Z</time>
      </trkpt>
      <trkpt lat="42.83571" lon="-0.13861">
        <ele>1731</ele>
        <time>2014-03-15T11:15:40Z</time>
      </trkpt>
      <trkpt lat="42.83568" lon="-0.13859">
        <ele>1731</ele>
        <time>2014-03-15T11:15:42Z</time>
      </trkpt>
      <trkpt lat="42.83565" lon="-0.13861">
        <ele>1731</ele>
        <time>2014-03-15T11:15:45Z</time>
      </trkpt>
      <trkpt lat="42.83563" lon="-0.13862">
        <ele>1731</ele>
        <time>2014-03-15T11:15:48Z</time>
      </trkpt>
      <trkpt lat="42.83557" lon="-0.13866">
        <ele>1731</ele>
        <time>2014-03-15T11:15:54Z</time>
      </trkpt>
      <trkpt lat="42.83554" lon="-0.13865">
        <ele>1731</ele>
        <time>2014-03-15T11:15:58Z</time>
      </trkpt>
      <trkpt lat="42.83533" lon="-0.13869">
        <ele>1732</ele>
        <time>2014-03-15T11:16:17Z</time>
      </trkpt>
      <trkpt lat="42.83519" lon="-0.13872">
        <ele>1733</ele>
        <time>2014-03-15T11:16:29Z</time>
      </trkpt>
      <trkpt lat="42.83516" lon="-0.13874">
        <ele>1733</ele>
        <time>2014-03-15T11:16:32Z</time>
      </trkpt>
      <trkpt lat="42.83507" lon="-0.13886">
        <ele>1732</ele>
        <time>2014-03-15T11:16:45Z</time>
      </trkpt>
      <trkpt lat="42.83495" lon="-0.13892">
        <ele>1733</ele>
        <time>2014-03-15T11:16:59Z</time>
      </trkpt>
      <trkpt lat="42.83487" lon="-0.13898">
        <ele>1733</ele>
        <time>2014-03-15T11:17:08Z</time>
      </trkpt>
      <trkpt lat="42.83482" lon="-0.139">
        <ele>1733</ele>
        <time>2014-03-15T11:17:14Z</time>
      </trkpt>
      <trkpt lat="42.83478" lon="-0.13912">
        <ele>1733</ele>
        <time>2014-03-15T11:17:31Z</time>
      </trkpt>
      <trkpt lat="42.8347" lon="-0.13914">
        <ele>1733</ele>
        <time>2014-03-15T11:17:42Z</time>
      </trkpt>
      <trkpt lat="42.83469" lon="-0.13913">
        <ele>1733</ele>
        <time>2014-03-15T11:17:44Z</time>
      </trkpt>
      <trkpt lat="42.83461" lon="-0.13917">
        <ele>1729</ele>
        <time>2014-03-15T11:17:57Z</time>
      </trkpt>
      <trkpt lat="42.8346" lon="-0.13924">
        <ele>1729</ele>
        <time>2014-03-15T11:18:14Z</time>
      </trkpt>
      <trkpt lat="42.83462" lon="-0.13921">
        <ele>1729</ele>
        <time>2014-03-15T11:18:51Z</time>
      </trkpt>
      <trkpt lat="42.83463" lon="-0.13921">
        <ele>1729</ele>
        <time>2014-03-15T11:19:13Z</time>
      </trkpt>
      <trkpt lat="42.83461" lon="-0.13924">
        <ele>1729</ele>
        <time>2014-03-15T11:19:32Z</time>
      </trkpt>
      <trkpt lat="42.83466" lon="-0.13922">
        <ele>1729</ele>
        <time>2014-03-15T11:20:55Z</time>
      </trkpt>
      <trkpt lat="42.83466" lon="-0.13921">
        <ele>1729</ele>
        <time>2014-03-15T11:21:22Z</time>
      </trkpt>
      <trkpt lat="42.83464" lon="-0.13919">
        <ele>1729</ele>
        <time>2014-03-15T11:21:36Z</time>
      </trkpt>
      <trkpt lat="42.83464" lon="-0.13924">
        <ele>1729</ele>
        <time>2014-03-15T11:23:02Z</time>
      </trkpt>
      <trkpt lat="42.83461" lon="-0.13927">
        <ele>1729</ele>
        <time>2014-03-15T11:23:16Z</time>
      </trkpt>
      <trkpt lat="42.83452" lon="-0.13939">
        <ele>1728</ele>
        <time>2014-03-15T11:23:25Z</time>
      </trkpt>
      <trkpt lat="42.83453" lon="-0.13941">
        <ele>1728</ele>
        <time>2014-03-15T11:23:26Z</time>
      </trkpt>
      <trkpt lat="42.83454" lon="-0.13942">
        <ele>1728</ele>
        <time>2014-03-15T11:23:27Z</time>
      </trkpt>
      <trkpt lat="42.83451" lon="-0.13951">
        <ele>1728</ele>
        <time>2014-03-15T11:23:31Z</time>
      </trkpt>
      <trkpt lat="42.83448" lon="-0.13959">
        <ele>1728</ele>
        <time>2014-03-15T11:23:35Z</time>
      </trkpt>
      <trkpt lat="42.83444" lon="-0.13967">
        <ele>1728</ele>
        <time>2014-03-15T11:23:40Z</time>
      </trkpt>
      <trkpt lat="42.83442" lon="-0.1397">
        <ele>1728</ele>
        <time>2014-03-15T11:23:42Z</time>
      </trkpt>
      <trkpt lat="42.83441" lon="-0.13974">
        <ele>1728</ele>
        <time>2014-03-15T11:23:45Z</time>
      </trkpt>
      <trkpt lat="42.83442" lon="-0.13979">
        <ele>1728</ele>
        <time>2014-03-15T11:23:47Z</time>
      </trkpt>
      <trkpt lat="42.83442" lon="-0.13982">
        <ele>1728</ele>
        <time>2014-03-15T11:23:49Z</time>
      </trkpt>
      <trkpt lat="42.83441" lon="-0.13983">
        <ele>1728</ele>
        <time>2014-03-15T11:23:50Z</time>
      </trkpt>
      <trkpt lat="42.83441" lon="-0.13994">
        <ele>1728</ele>
        <time>2014-03-15T11:24:04Z</time>
      </trkpt>
      <trkpt lat="42.83442" lon="-0.14001">
        <ele>1728</ele>
        <time>2014-03-15T11:24:07Z</time>
      </trkpt>
      <trkpt lat="42.83443" lon="-0.14006">
        <ele>1728</ele>
        <time>2014-03-15T11:24:11Z</time>
      </trkpt>
      <trkpt lat="42.83444" lon="-0.14007">
        <ele>1728</ele>
        <time>2014-03-15T11:24:12Z</time>
      </trkpt>
      <trkpt lat="42.83453" lon="-0.1401">
        <ele>1729</ele>
        <time>2014-03-15T11:24:21Z</time>
      </trkpt>
      <trkpt lat="42.83455" lon="-0.14012">
        <ele>1729</ele>
        <time>2014-03-15T11:24:23Z</time>
      </trkpt>
      <trkpt lat="42.83462" lon="-0.14016">
        <ele>1729</ele>
        <time>2014-03-15T11:24:31Z</time>
      </trkpt>
      <trkpt lat="42.83463" lon="-0.14015">
        <ele>1729</ele>
        <time>2014-03-15T11:24:33Z</time>
      </trkpt>
      <trkpt lat="42.83464" lon="-0.14014">
        <ele>1729</ele>
        <time>2014-03-15T11:24:34Z</time>
      </trkpt>
      <trkpt lat="42.83465" lon="-0.14013">
        <ele>1729</ele>
        <time>2014-03-15T11:24:35Z</time>
      </trkpt>
      <trkpt lat="42.83467" lon="-0.1401">
        <ele>1729</ele>
        <time>2014-03-15T11:24:39Z</time>
      </trkpt>
      <trkpt lat="42.83469" lon="-0.14009">
        <ele>1729</ele>
        <time>2014-03-15T11:24:41Z</time>
      </trkpt>
      <trkpt lat="42.83471" lon="-0.14009">
        <ele>1729</ele>
        <time>2014-03-15T11:24:42Z</time>
      </trkpt>
      <trkpt lat="42.83476" lon="-0.14012">
        <ele>1729</ele>
        <time>2014-03-15T11:24:45Z</time>
      </trkpt>
      <trkpt lat="42.83479" lon="-0.14014">
        <ele>1729</ele>
        <time>2014-03-15T11:24:47Z</time>
      </trkpt>
      <trkpt lat="42.83482" lon="-0.14016">
        <ele>1729</ele>
        <time>2014-03-15T11:24:51Z</time>
      </trkpt>
      <trkpt lat="42.83485" lon="-0.14017">
        <ele>1729</ele>
        <time>2014-03-15T11:24:53Z</time>
      </trkpt>
      <trkpt lat="42.83486" lon="-0.14017">
        <ele>1729</ele>
        <time>2014-03-15T11:24:54Z</time>
      </trkpt>
      <trkpt lat="42.8349" lon="-0.14022">
        <ele>1729</ele>
        <time>2014-03-15T11:24:57Z</time>
      </trkpt>
      <trkpt lat="42.83492" lon="-0.14024">
        <ele>1729</ele>
        <time>2014-03-15T11:24:59Z</time>
      </trkpt>
      <trkpt lat="42.83492" lon="-0.14023">
        <ele>1729</ele>
        <time>2014-03-15T11:25:00Z</time>
      </trkpt>
      <trkpt lat="42.83491" lon="-0.14025">
        <ele>1729</ele>
        <time>2014-03-15T11:25:01Z</time>
      </trkpt>
      <trkpt lat="42.83501" lon="-0.14031">
        <ele>1731</ele>
        <time>2014-03-15T11:25:09Z</time>
      </trkpt>
      <trkpt lat="42.83502" lon="-0.14031">
        <ele>1731</ele>
        <time>2014-03-15T11:25:11Z</time>
      </trkpt>
      <trkpt lat="42.83503" lon="-0.14031">
        <ele>1731</ele>
        <time>2014-03-15T11:25:12Z</time>
      </trkpt>
      <trkpt lat="42.8351" lon="-0.14034">
        <ele>1731</ele>
        <time>2014-03-15T11:25:18Z</time>
      </trkpt>
      <trkpt lat="42.83512" lon="-0.14035">
        <ele>1731</ele>
        <time>2014-03-15T11:25:19Z</time>
      </trkpt>
      <trkpt lat="42.83515" lon="-0.14033">
        <ele>1731</ele>
        <time>2014-03-15T11:25:23Z</time>
      </trkpt>
      <trkpt lat="42.8352" lon="-0.1404">
        <ele>1731</ele>
        <time>2014-03-15T11:25:29Z</time>
      </trkpt>
      <trkpt lat="42.83522" lon="-0.14043">
        <ele>1731</ele>
        <time>2014-03-15T11:25:31Z</time>
      </trkpt>
      <trkpt lat="42.83522" lon="-0.14048">
        <ele>1731</ele>
        <time>2014-03-15T11:25:33Z</time>
      </trkpt>
      <trkpt lat="42.8352" lon="-0.14053">
        <ele>1732</ele>
        <time>2014-03-15T11:25:37Z</time>
      </trkpt>
      <trkpt lat="42.83517" lon="-0.14063">
        <ele>1732</ele>
        <time>2014-03-15T11:25:43Z</time>
      </trkpt>
      <trkpt lat="42.83513" lon="-0.14072">
        <ele>1732</ele>
        <time>2014-03-15T11:25:48Z</time>
      </trkpt>
      <trkpt lat="42.8351" lon="-0.1408">
        <ele>1733</ele>
        <time>2014-03-15T11:25:54Z</time>
      </trkpt>
      <trkpt lat="42.83506" lon="-0.1409">
        <ele>1737</ele>
        <time>2014-03-15T11:26:03Z</time>
      </trkpt>
      <trkpt lat="42.83503" lon="-0.14094">
        <ele>1738</ele>
        <time>2014-03-15T11:26:06Z</time>
      </trkpt>
      <trkpt lat="42.83502" lon="-0.14096">
        <ele>1738</ele>
        <time>2014-03-15T11:26:07Z</time>
      </trkpt>
      <trkpt lat="42.83497" lon="-0.14102">
        <ele>1738</ele>
        <time>2014-03-15T11:26:11Z</time>
      </trkpt>
      <trkpt lat="42.83496" lon="-0.14104">
        <ele>1738</ele>
        <time>2014-03-15T11:26:12Z</time>
      </trkpt>
      <trkpt lat="42.83495" lon="-0.14105">
        <ele>1738</ele>
        <time>2014-03-15T11:26:13Z</time>
      </trkpt>
      <trkpt lat="42.83492" lon="-0.14112">
        <ele>1739</ele>
        <time>2014-03-15T11:26:17Z</time>
      </trkpt>
      <trkpt lat="42.83489" lon="-0.14118">
        <ele>1741</ele>
        <time>2014-03-15T11:26:21Z</time>
      </trkpt>
      <trkpt lat="42.83491" lon="-0.14127">
        <ele>1742</ele>
        <time>2014-03-15T11:26:26Z</time>
      </trkpt>
      <trkpt lat="42.83492" lon="-0.14137">
        <ele>1745</ele>
        <time>2014-03-15T11:26:38Z</time>
      </trkpt>
      <trkpt lat="42.83492" lon="-0.14135">
        <ele>1744</ele>
        <time>2014-03-15T11:26:40Z</time>
      </trkpt>
      <trkpt lat="42.83488" lon="-0.14136">
        <ele>1744</ele>
        <time>2014-03-15T11:26:47Z</time>
      </trkpt>
      <trkpt lat="42.83484" lon="-0.14137">
        <ele>1744</ele>
        <time>2014-03-15T11:26:50Z</time>
      </trkpt>
      <trkpt lat="42.8348" lon="-0.14139">
        <ele>1744</ele>
        <time>2014-03-15T11:26:54Z</time>
      </trkpt>
      <trkpt lat="42.83479" lon="-0.14139">
        <ele>1744</ele>
        <time>2014-03-15T11:26:55Z</time>
      </trkpt>
      <trkpt lat="42.83478" lon="-0.1414">
        <ele>1744</ele>
        <time>2014-03-15T11:26:56Z</time>
      </trkpt>
      <trkpt lat="42.83477" lon="-0.1414">
        <ele>1744</ele>
        <time>2014-03-15T11:26:57Z</time>
      </trkpt>
      <trkpt lat="42.83476" lon="-0.14141">
        <ele>1744</ele>
        <time>2014-03-15T11:26:59Z</time>
      </trkpt>
      <trkpt lat="42.83474" lon="-0.14142">
        <ele>1744</ele>
        <time>2014-03-15T11:27:01Z</time>
      </trkpt>
      <trkpt lat="42.83473" lon="-0.14143">
        <ele>1744</ele>
        <time>2014-03-15T11:27:02Z</time>
      </trkpt>
      <trkpt lat="42.83468" lon="-0.14151">
        <ele>1745</ele>
        <time>2014-03-15T11:27:08Z</time>
      </trkpt>
      <trkpt lat="42.83465" lon="-0.14151">
        <ele>1744</ele>
        <time>2014-03-15T11:27:10Z</time>
      </trkpt>
      <trkpt lat="42.83464" lon="-0.14151">
        <ele>1744</ele>
        <time>2014-03-15T11:27:12Z</time>
      </trkpt>
      <trkpt lat="42.83463" lon="-0.14151">
        <ele>1744</ele>
        <time>2014-03-15T11:27:13Z</time>
      </trkpt>
      <trkpt lat="42.83455" lon="-0.14156">
        <ele>1744</ele>
        <time>2014-03-15T11:27:25Z</time>
      </trkpt>
      <trkpt lat="42.8345" lon="-0.14157">
        <ele>1743</ele>
        <time>2014-03-15T11:27:30Z</time>
      </trkpt>
      <trkpt lat="42.83449" lon="-0.14157">
        <ele>1743</ele>
        <time>2014-03-15T11:27:31Z</time>
      </trkpt>
      <trkpt lat="42.83448" lon="-0.14158">
        <ele>1743</ele>
        <time>2014-03-15T11:27:32Z</time>
      </trkpt>
      <trkpt lat="42.83447" lon="-0.14161">
        <ele>1743</ele>
        <time>2014-03-15T11:27:34Z</time>
      </trkpt>
      <trkpt lat="42.83445" lon="-0.14161">
        <ele>1743</ele>
        <time>2014-03-15T11:27:35Z</time>
      </trkpt>
      <trkpt lat="42.83438" lon="-0.14161">
        <ele>1743</ele>
        <time>2014-03-15T11:27:41Z</time>
      </trkpt>
      <trkpt lat="42.83437" lon="-0.14161">
        <ele>1743</ele>
        <time>2014-03-15T11:27:43Z</time>
      </trkpt>
      <trkpt lat="42.83434" lon="-0.14161">
        <ele>1743</ele>
        <time>2014-03-15T11:27:45Z</time>
      </trkpt>
      <trkpt lat="42.8343" lon="-0.14161">
        <ele>1743</ele>
        <time>2014-03-15T11:27:50Z</time>
      </trkpt>
      <trkpt lat="42.83419" lon="-0.14167">
        <ele>1747</ele>
        <time>2014-03-15T11:28:05Z</time>
      </trkpt>
      <trkpt lat="42.83408" lon="-0.14168">
        <ele>1750</ele>
        <time>2014-03-15T11:28:17Z</time>
      </trkpt>
      <trkpt lat="42.83404" lon="-0.14166">
        <ele>1741</ele>
        <time>2014-03-15T11:28:19Z</time>
      </trkpt>
      <trkpt lat="42.83403" lon="-0.14168">
        <ele>1751</ele>
        <time>2014-03-15T11:28:20Z</time>
      </trkpt>
      <trkpt lat="42.83402" lon="-0.14171">
        <ele>1752</ele>
        <time>2014-03-15T11:28:23Z</time>
      </trkpt>
      <trkpt lat="42.83401" lon="-0.14171">
        <ele>1752</ele>
        <time>2014-03-15T11:28:24Z</time>
      </trkpt>
      <trkpt lat="42.83395" lon="-0.14171">
        <ele>1753</ele>
        <time>2014-03-15T11:28:29Z</time>
      </trkpt>
      <trkpt lat="42.83391" lon="-0.14172">
        <ele>1754</ele>
        <time>2014-03-15T11:28:32Z</time>
      </trkpt>
      <trkpt lat="42.8339" lon="-0.14174">
        <ele>1754</ele>
        <time>2014-03-15T11:28:34Z</time>
      </trkpt>
      <trkpt lat="42.83387" lon="-0.14177">
        <ele>1755</ele>
        <time>2014-03-15T11:28:38Z</time>
      </trkpt>
      <trkpt lat="42.83386" lon="-0.14178">
        <ele>1755</ele>
        <time>2014-03-15T11:28:39Z</time>
      </trkpt>
      <trkpt lat="42.83384" lon="-0.14178">
        <ele>1755</ele>
        <time>2014-03-15T11:28:40Z</time>
      </trkpt>
      <trkpt lat="42.83378" lon="-0.14178">
        <ele>1755</ele>
        <time>2014-03-15T11:28:45Z</time>
      </trkpt>
      <trkpt lat="42.83375" lon="-0.14181">
        <ele>1756</ele>
        <time>2014-03-15T11:28:49Z</time>
      </trkpt>
      <trkpt lat="42.83375" lon="-0.14182">
        <ele>1756</ele>
        <time>2014-03-15T11:28:50Z</time>
      </trkpt>
      <trkpt lat="42.83374" lon="-0.14182">
        <ele>1756</ele>
        <time>2014-03-15T11:28:51Z</time>
      </trkpt>
      <trkpt lat="42.83371" lon="-0.14186">
        <ele>1756</ele>
        <time>2014-03-15T11:29:30Z</time>
      </trkpt>
      <trkpt lat="42.83367" lon="-0.14187">
        <ele>1756</ele>
        <time>2014-03-15T11:29:33Z</time>
      </trkpt>
      <trkpt lat="42.83358" lon="-0.1419">
        <ele>1755</ele>
        <time>2014-03-15T11:29:44Z</time>
      </trkpt>
      <trkpt lat="42.83356" lon="-0.1419">
        <ele>1755</ele>
        <time>2014-03-15T11:29:47Z</time>
      </trkpt>
      <trkpt lat="42.83355" lon="-0.14189">
        <ele>1755</ele>
        <time>2014-03-15T11:29:48Z</time>
      </trkpt>
      <trkpt lat="42.83354" lon="-0.14188">
        <ele>1754</ele>
        <time>2014-03-15T11:29:51Z</time>
      </trkpt>
      <trkpt lat="42.83344" lon="-0.14181">
        <ele>1749</ele>
        <time>2014-03-15T11:29:59Z</time>
      </trkpt>
      <trkpt lat="42.83338" lon="-0.14179">
        <ele>1747</ele>
        <time>2014-03-15T11:30:06Z</time>
      </trkpt>
      <trkpt lat="42.83336" lon="-0.14177">
        <ele>1745</ele>
        <time>2014-03-15T11:30:08Z</time>
      </trkpt>
      <trkpt lat="42.83311" lon="-0.14172">
        <ele>1748</ele>
        <time>2014-03-15T11:30:31Z</time>
      </trkpt>
      <trkpt lat="42.8331" lon="-0.14172">
        <ele>1748</ele>
        <time>2014-03-15T11:30:33Z</time>
      </trkpt>
      <trkpt lat="42.83301" lon="-0.14175">
        <ele>1750</ele>
        <time>2014-03-15T11:30:40Z</time>
      </trkpt>
      <trkpt lat="42.83298" lon="-0.14175">
        <ele>1750</ele>
        <time>2014-03-15T11:30:42Z</time>
      </trkpt>
      <trkpt lat="42.83297" lon="-0.14175">
        <ele>1750</ele>
        <time>2014-03-15T11:30:43Z</time>
      </trkpt>
      <trkpt lat="42.83297" lon="-0.14176">
        <ele>1750</ele>
        <time>2014-03-15T11:30:44Z</time>
      </trkpt>
      <trkpt lat="42.83294" lon="-0.14172">
        <ele>1750</ele>
        <time>2014-03-15T11:30:46Z</time>
      </trkpt>
      <trkpt lat="42.83287" lon="-0.14169">
        <ele>1750</ele>
        <time>2014-03-15T11:30:51Z</time>
      </trkpt>
      <trkpt lat="42.83286" lon="-0.14168">
        <ele>1750</ele>
        <time>2014-03-15T11:30:52Z</time>
      </trkpt>
      <trkpt lat="42.83283" lon="-0.14168">
        <ele>1749</ele>
        <time>2014-03-15T11:30:54Z</time>
      </trkpt>
      <trkpt lat="42.83281" lon="-0.14167">
        <ele>1749</ele>
        <time>2014-03-15T11:30:55Z</time>
      </trkpt>
      <trkpt lat="42.83281" lon="-0.14166">
        <ele>1734</ele>
        <time>2014-03-15T11:30:56Z</time>
      </trkpt>
      <trkpt lat="42.83279" lon="-0.14165">
        <ele>1734</ele>
        <time>2014-03-15T11:30:58Z</time>
      </trkpt>
      <trkpt lat="42.83278" lon="-0.14165">
        <ele>1734</ele>
        <time>2014-03-15T11:30:59Z</time>
      </trkpt>
      <trkpt lat="42.83277" lon="-0.14165">
        <ele>1734</ele>
        <time>2014-03-15T11:31:00Z</time>
      </trkpt>
      <trkpt lat="42.83275" lon="-0.14164">
        <ele>1735</ele>
        <time>2014-03-15T11:31:02Z</time>
      </trkpt>
      <trkpt lat="42.8327" lon="-0.14162">
        <ele>1735</ele>
        <time>2014-03-15T11:31:13Z</time>
      </trkpt>
      <trkpt lat="42.83265" lon="-0.14163">
        <ele>1735</ele>
        <time>2014-03-15T11:31:20Z</time>
      </trkpt>
      <trkpt lat="42.83264" lon="-0.14163">
        <ele>1735</ele>
        <time>2014-03-15T11:31:21Z</time>
      </trkpt>
      <trkpt lat="42.83262" lon="-0.14164">
        <ele>1736</ele>
        <time>2014-03-15T11:31:24Z</time>
      </trkpt>
      <trkpt lat="42.8326" lon="-0.14164">
        <ele>1736</ele>
        <time>2014-03-15T11:31:26Z</time>
      </trkpt>
      <trkpt lat="42.83254" lon="-0.14164">
        <ele>1737</ele>
        <time>2014-03-15T11:31:30Z</time>
      </trkpt>
      <trkpt lat="42.83239" lon="-0.14157">
        <ele>1735</ele>
        <time>2014-03-15T11:31:44Z</time>
      </trkpt>
      <trkpt lat="42.83236" lon="-0.14154">
        <ele>1735</ele>
        <time>2014-03-15T11:31:47Z</time>
      </trkpt>
      <trkpt lat="42.83235" lon="-0.14154">
        <ele>1735</ele>
        <time>2014-03-15T11:31:48Z</time>
      </trkpt>
      <trkpt lat="42.83233" lon="-0.14152">
        <ele>1735</ele>
        <time>2014-03-15T11:31:49Z</time>
      </trkpt>
      <trkpt lat="42.83232" lon="-0.14151">
        <ele>1735</ele>
        <time>2014-03-15T11:31:50Z</time>
      </trkpt>
      <trkpt lat="42.83227" lon="-0.14148">
        <ele>1734</ele>
        <time>2014-03-15T11:31:57Z</time>
      </trkpt>
      <trkpt lat="42.83217" lon="-0.14149">
        <ele>1734</ele>
        <time>2014-03-15T11:32:10Z</time>
      </trkpt>
      <trkpt lat="42.83216" lon="-0.1415">
        <ele>1734</ele>
        <time>2014-03-15T11:32:11Z</time>
      </trkpt>
      <trkpt lat="42.83213" lon="-0.14151">
        <ele>1734</ele>
        <time>2014-03-15T11:32:17Z</time>
      </trkpt>
      <trkpt lat="42.83212" lon="-0.14151">
        <ele>1734</ele>
        <time>2014-03-15T11:32:20Z</time>
      </trkpt>
      <trkpt lat="42.83209" lon="-0.14152">
        <ele>1734</ele>
        <time>2014-03-15T11:32:23Z</time>
      </trkpt>
      <trkpt lat="42.83207" lon="-0.14152">
        <ele>1734</ele>
        <time>2014-03-15T11:32:25Z</time>
      </trkpt>
      <trkpt lat="42.83205" lon="-0.14153">
        <ele>1734</ele>
        <time>2014-03-15T11:32:26Z</time>
      </trkpt>
      <trkpt lat="42.832" lon="-0.14155">
        <ele>1734</ele>
        <time>2014-03-15T11:32:30Z</time>
      </trkpt>
      <trkpt lat="42.83199" lon="-0.14155">
        <ele>1734</ele>
        <time>2014-03-15T11:32:31Z</time>
      </trkpt>
      <trkpt lat="42.83196" lon="-0.14155">
        <ele>1734</ele>
        <time>2014-03-15T11:32:35Z</time>
      </trkpt>
      <trkpt lat="42.83194" lon="-0.14155">
        <ele>1734</ele>
        <time>2014-03-15T11:32:36Z</time>
      </trkpt>
      <trkpt lat="42.83185" lon="-0.14156">
        <ele>1734</ele>
        <time>2014-03-15T11:32:41Z</time>
      </trkpt>
      <trkpt lat="42.83165" lon="-0.14157">
        <ele>1735</ele>
        <time>2014-03-15T11:32:50Z</time>
      </trkpt>
      <trkpt lat="42.83163" lon="-0.14156">
        <ele>1735</ele>
        <time>2014-03-15T11:32:51Z</time>
      </trkpt>
      <trkpt lat="42.8316" lon="-0.14156">
        <ele>1735</ele>
        <time>2014-03-15T11:32:53Z</time>
      </trkpt>
      <trkpt lat="42.83153" lon="-0.14154">
        <ele>1734</ele>
        <time>2014-03-15T11:32:59Z</time>
      </trkpt>
      <trkpt lat="42.83138" lon="-0.14159">
        <ele>1734</ele>
        <time>2014-03-15T11:33:11Z</time>
      </trkpt>
      <trkpt lat="42.83137" lon="-0.14161">
        <ele>1734</ele>
        <time>2014-03-15T11:33:12Z</time>
      </trkpt>
      <trkpt lat="42.83136" lon="-0.14166">
        <ele>1734</ele>
        <time>2014-03-15T11:33:14Z</time>
      </trkpt>
      <trkpt lat="42.83136" lon="-0.14168">
        <ele>1747</ele>
        <time>2014-03-15T11:33:15Z</time>
      </trkpt>
      <trkpt lat="42.83134" lon="-0.14173">
        <ele>1747</ele>
        <time>2014-03-15T11:33:19Z</time>
      </trkpt>
      <trkpt lat="42.83134" lon="-0.14177">
        <ele>1748</ele>
        <time>2014-03-15T11:33:22Z</time>
      </trkpt>
      <trkpt lat="42.83134" lon="-0.14178">
        <ele>1748</ele>
        <time>2014-03-15T11:33:23Z</time>
      </trkpt>
      <trkpt lat="42.83133" lon="-0.14181">
        <ele>1748</ele>
        <time>2014-03-15T11:33:25Z</time>
      </trkpt>
      <trkpt lat="42.83132" lon="-0.14183">
        <ele>1749</ele>
        <time>2014-03-15T11:33:26Z</time>
      </trkpt>
      <trkpt lat="42.8313" lon="-0.14184">
        <ele>1749</ele>
        <time>2014-03-15T11:33:28Z</time>
      </trkpt>
      <trkpt lat="42.83126" lon="-0.14187">
        <ele>1749</ele>
        <time>2014-03-15T11:33:32Z</time>
      </trkpt>
      <trkpt lat="42.83122" lon="-0.1419">
        <ele>1750</ele>
        <time>2014-03-15T11:33:38Z</time>
      </trkpt>
      <trkpt lat="42.83121" lon="-0.14191">
        <ele>1750</ele>
        <time>2014-03-15T11:33:40Z</time>
      </trkpt>
      <trkpt lat="42.8312" lon="-0.14193">
        <ele>1750</ele>
        <time>2014-03-15T11:33:42Z</time>
      </trkpt>
      <trkpt lat="42.83115" lon="-0.14191">
        <ele>1750</ele>
        <time>2014-03-15T11:33:46Z</time>
      </trkpt>
      <trkpt lat="42.83114" lon="-0.14194">
        <ele>1750</ele>
        <time>2014-03-15T11:33:49Z</time>
      </trkpt>
      <trkpt lat="42.83113" lon="-0.14194">
        <ele>1750</ele>
        <time>2014-03-15T11:33:50Z</time>
      </trkpt>
      <trkpt lat="42.8311" lon="-0.14193">
        <ele>1750</ele>
        <time>2014-03-15T11:33:54Z</time>
      </trkpt>
      <trkpt lat="42.83096" lon="-0.14193">
        <ele>1749</ele>
        <time>2014-03-15T11:34:08Z</time>
      </trkpt>
      <trkpt lat="42.83091" lon="-0.14192">
        <ele>1748</ele>
        <time>2014-03-15T11:34:12Z</time>
      </trkpt>
      <trkpt lat="42.83082" lon="-0.14189">
        <ele>1747</ele>
        <time>2014-03-15T11:34:17Z</time>
      </trkpt>
      <trkpt lat="42.83081" lon="-0.14189">
        <ele>1747</ele>
        <time>2014-03-15T11:34:18Z</time>
      </trkpt>
      <trkpt lat="42.8308" lon="-0.1419">
        <ele>1747</ele>
        <time>2014-03-15T11:34:21Z</time>
      </trkpt>
      <trkpt lat="42.83079" lon="-0.14192">
        <ele>1748</ele>
        <time>2014-03-15T11:34:23Z</time>
      </trkpt>
      <trkpt lat="42.83077" lon="-0.1419">
        <ele>1748</ele>
        <time>2014-03-15T11:34:24Z</time>
      </trkpt>
      <trkpt lat="42.83073" lon="-0.14188">
        <ele>1747</ele>
        <time>2014-03-15T11:34:28Z</time>
      </trkpt>
      <trkpt lat="42.8307" lon="-0.14189">
        <ele>1748</ele>
        <time>2014-03-15T11:34:32Z</time>
      </trkpt>
      <trkpt lat="42.83069" lon="-0.14189">
        <ele>1748</ele>
        <time>2014-03-15T11:34:33Z</time>
      </trkpt>
      <trkpt lat="42.83059" lon="-0.14188">
        <ele>1749</ele>
        <time>2014-03-15T11:34:41Z</time>
      </trkpt>
      <trkpt lat="42.83058" lon="-0.14187">
        <ele>1749</ele>
        <time>2014-03-15T11:34:42Z</time>
      </trkpt>
      <trkpt lat="42.83057" lon="-0.14188">
        <ele>1749</ele>
        <time>2014-03-15T11:34:43Z</time>
      </trkpt>
      <trkpt lat="42.83053" lon="-0.14185">
        <ele>1749</ele>
        <time>2014-03-15T11:34:50Z</time>
      </trkpt>
      <trkpt lat="42.83048" lon="-0.1418">
        <ele>1749</ele>
        <time>2014-03-15T11:34:52Z</time>
      </trkpt>
      <trkpt lat="42.83044" lon="-0.14177">
        <ele>1749</ele>
        <time>2014-03-15T11:34:57Z</time>
      </trkpt>
      <trkpt lat="42.83044" lon="-0.14178">
        <ele>1749</ele>
        <time>2014-03-15T11:34:58Z</time>
      </trkpt>
      <trkpt lat="42.83041" lon="-0.14175">
        <ele>1749</ele>
        <time>2014-03-15T11:35:04Z</time>
      </trkpt>
      <trkpt lat="42.83037" lon="-0.14172">
        <ele>1748</ele>
        <time>2014-03-15T11:35:07Z</time>
      </trkpt>
      <trkpt lat="42.83031" lon="-0.14169">
        <ele>1748</ele>
        <time>2014-03-15T11:35:12Z</time>
      </trkpt>
      <trkpt lat="42.83023" lon="-0.1417">
        <ele>1748</ele>
        <time>2014-03-15T11:35:20Z</time>
      </trkpt>
      <trkpt lat="42.83022" lon="-0.14169">
        <ele>1747</ele>
        <time>2014-03-15T11:35:22Z</time>
      </trkpt>
      <trkpt lat="42.83021" lon="-0.14169">
        <ele>1747</ele>
        <time>2014-03-15T11:35:23Z</time>
      </trkpt>
      <trkpt lat="42.83019" lon="-0.14168">
        <ele>1747</ele>
        <time>2014-03-15T11:35:25Z</time>
      </trkpt>
      <trkpt lat="42.83019" lon="-0.14169">
        <ele>1747</ele>
        <time>2014-03-15T11:35:26Z</time>
      </trkpt>
      <trkpt lat="42.83016" lon="-0.1417">
        <ele>1747</ele>
        <time>2014-03-15T11:35:28Z</time>
      </trkpt>
      <trkpt lat="42.83017" lon="-0.14168">
        <ele>1747</ele>
        <time>2014-03-15T11:35:29Z</time>
      </trkpt>
      <trkpt lat="42.83016" lon="-0.14167">
        <ele>1746</ele>
        <time>2014-03-15T11:35:31Z</time>
      </trkpt>
      <trkpt lat="42.83005" lon="-0.14166">
        <ele>1740</ele>
        <time>2014-03-15T11:35:43Z</time>
      </trkpt>
      <trkpt lat="42.83004" lon="-0.14166">
        <ele>1740</ele>
        <time>2014-03-15T11:35:44Z</time>
      </trkpt>
      <trkpt lat="42.82998" lon="-0.14159">
        <ele>1740</ele>
        <time>2014-03-15T11:35:49Z</time>
      </trkpt>
      <trkpt lat="42.82995" lon="-0.14156">
        <ele>1740</ele>
        <time>2014-03-15T11:35:54Z</time>
      </trkpt>
      <trkpt lat="42.82993" lon="-0.14157">
        <ele>1740</ele>
        <time>2014-03-15T11:35:59Z</time>
      </trkpt>
      <trkpt lat="42.82987" lon="-0.14159">
        <ele>1740</ele>
        <time>2014-03-15T11:36:04Z</time>
      </trkpt>
      <trkpt lat="42.82986" lon="-0.14158">
        <ele>1739</ele>
        <time>2014-03-15T11:36:05Z</time>
      </trkpt>
      <trkpt lat="42.82977" lon="-0.14158">
        <ele>1739</ele>
        <time>2014-03-15T11:36:13Z</time>
      </trkpt>
      <trkpt lat="42.82976" lon="-0.14159">
        <ele>1739</ele>
        <time>2014-03-15T11:36:14Z</time>
      </trkpt>
      <trkpt lat="42.82974" lon="-0.1416">
        <ele>1739</ele>
        <time>2014-03-15T11:36:18Z</time>
      </trkpt>
      <trkpt lat="42.82973" lon="-0.1416">
        <ele>1739</ele>
        <time>2014-03-15T11:36:19Z</time>
      </trkpt>
      <trkpt lat="42.82972" lon="-0.14161">
        <ele>1739</ele>
        <time>2014-03-15T11:36:20Z</time>
      </trkpt>
      <trkpt lat="42.82971" lon="-0.14159">
        <ele>1739</ele>
        <time>2014-03-15T11:36:21Z</time>
      </trkpt>
      <trkpt lat="42.8297" lon="-0.14159">
        <ele>1739</ele>
        <time>2014-03-15T11:36:23Z</time>
      </trkpt>
      <trkpt lat="42.82968" lon="-0.14156">
        <ele>1739</ele>
        <time>2014-03-15T11:36:26Z</time>
      </trkpt>
      <trkpt lat="42.82962" lon="-0.14154">
        <ele>1739</ele>
        <time>2014-03-15T11:36:29Z</time>
      </trkpt>
      <trkpt lat="42.82962" lon="-0.14152">
        <ele>1739</ele>
        <time>2014-03-15T11:36:30Z</time>
      </trkpt>
      <trkpt lat="42.82954" lon="-0.14141">
        <ele>1739</ele>
        <time>2014-03-15T11:36:44Z</time>
      </trkpt>
      <trkpt lat="42.82935" lon="-0.14132">
        <ele>1739</ele>
        <time>2014-03-15T11:36:59Z</time>
      </trkpt>
      <trkpt lat="42.82933" lon="-0.14131">
        <ele>1739</ele>
        <time>2014-03-15T11:37:00Z</time>
      </trkpt>
      <trkpt lat="42.82928" lon="-0.14131">
        <ele>1739</ele>
        <time>2014-03-15T11:37:05Z</time>
      </trkpt>
      <trkpt lat="42.82927" lon="-0.14131">
        <ele>1739</ele>
        <time>2014-03-15T11:37:06Z</time>
      </trkpt>
      <trkpt lat="42.82915" lon="-0.14123">
        <ele>1744</ele>
        <time>2014-03-15T11:37:18Z</time>
      </trkpt>
      <trkpt lat="42.82902" lon="-0.14116">
        <ele>1743</ele>
        <time>2014-03-15T11:37:38Z</time>
      </trkpt>
      <trkpt lat="42.829" lon="-0.14115">
        <ele>1743</ele>
        <time>2014-03-15T11:37:39Z</time>
      </trkpt>
      <trkpt lat="42.82892" lon="-0.14111">
        <ele>1743</ele>
        <time>2014-03-15T11:37:46Z</time>
      </trkpt>
      <trkpt lat="42.82891" lon="-0.14111">
        <ele>1743</ele>
        <time>2014-03-15T11:37:47Z</time>
      </trkpt>
      <trkpt lat="42.82882" lon="-0.14102">
        <ele>1743</ele>
        <time>2014-03-15T11:37:54Z</time>
      </trkpt>
      <trkpt lat="42.82883" lon="-0.14102">
        <ele>1743</ele>
        <time>2014-03-15T11:37:55Z</time>
      </trkpt>
      <trkpt lat="42.82876" lon="-0.14097">
        <ele>1743</ele>
        <time>2014-03-15T11:38:01Z</time>
      </trkpt>
      <trkpt lat="42.82871" lon="-0.14094">
        <ele>1743</ele>
        <time>2014-03-15T11:38:05Z</time>
      </trkpt>
      <trkpt lat="42.82871" lon="-0.14093">
        <ele>1743</ele>
        <time>2014-03-15T11:38:06Z</time>
      </trkpt>
      <trkpt lat="42.82871" lon="-0.14091">
        <ele>1743</ele>
        <time>2014-03-15T11:38:08Z</time>
      </trkpt>
      <trkpt lat="42.82868" lon="-0.14089">
        <ele>1743</ele>
        <time>2014-03-15T11:38:10Z</time>
      </trkpt>
      <trkpt lat="42.82867" lon="-0.14087">
        <ele>1743</ele>
        <time>2014-03-15T11:38:12Z</time>
      </trkpt>
      <trkpt lat="42.82867" lon="-0.14086">
        <ele>1743</ele>
        <time>2014-03-15T11:38:14Z</time>
      </trkpt>
      <trkpt lat="42.82859" lon="-0.1408">
        <ele>1736</ele>
        <time>2014-03-15T11:38:20Z</time>
      </trkpt>
      <trkpt lat="42.82852" lon="-0.14077">
        <ele>1736</ele>
        <time>2014-03-15T11:38:22Z</time>
      </trkpt>
      <trkpt lat="42.82851" lon="-0.14076">
        <ele>1736</ele>
        <time>2014-03-15T11:38:23Z</time>
      </trkpt>
      <trkpt lat="42.8285" lon="-0.14077">
        <ele>1736</ele>
        <time>2014-03-15T11:38:26Z</time>
      </trkpt>
      <trkpt lat="42.82844" lon="-0.14073">
        <ele>1737</ele>
        <time>2014-03-15T11:38:31Z</time>
      </trkpt>
      <trkpt lat="42.82842" lon="-0.14072">
        <ele>1737</ele>
        <time>2014-03-15T11:38:33Z</time>
      </trkpt>
      <trkpt lat="42.82841" lon="-0.14073">
        <ele>1737</ele>
        <time>2014-03-15T11:38:35Z</time>
      </trkpt>
      <trkpt lat="42.82841" lon="-0.14075">
        <ele>1737</ele>
        <time>2014-03-15T11:38:42Z</time>
      </trkpt>
      <trkpt lat="42.82841" lon="-0.14069">
        <ele>1737</ele>
        <time>2014-03-15T11:39:23Z</time>
      </trkpt>
      <trkpt lat="42.82839" lon="-0.14076">
        <ele>1737</ele>
        <time>2014-03-15T11:39:41Z</time>
      </trkpt>
      <trkpt lat="42.82833" lon="-0.14079">
        <ele>1739</ele>
        <time>2014-03-15T11:41:21Z</time>
      </trkpt>
      <trkpt lat="42.82832" lon="-0.14079">
        <ele>1739</ele>
        <time>2014-03-15T11:41:22Z</time>
      </trkpt>
      <trkpt lat="42.82825" lon="-0.14074">
        <ele>1739</ele>
        <time>2014-03-15T11:41:29Z</time>
      </trkpt>
      <trkpt lat="42.82824" lon="-0.14073">
        <ele>1739</ele>
        <time>2014-03-15T11:41:30Z</time>
      </trkpt>
      <trkpt lat="42.82817" lon="-0.14068">
        <ele>1739</ele>
        <time>2014-03-15T11:41:35Z</time>
      </trkpt>
      <trkpt lat="42.82815" lon="-0.14067">
        <ele>1739</ele>
        <time>2014-03-15T11:41:36Z</time>
      </trkpt>
      <trkpt lat="42.82814" lon="-0.14066">
        <ele>1739</ele>
        <time>2014-03-15T11:41:37Z</time>
      </trkpt>
      <trkpt lat="42.82813" lon="-0.14058">
        <ele>1739</ele>
        <time>2014-03-15T11:41:43Z</time>
      </trkpt>
      <trkpt lat="42.82811" lon="-0.14056">
        <ele>1739</ele>
        <time>2014-03-15T11:41:46Z</time>
      </trkpt>
      <trkpt lat="42.82809" lon="-0.14052">
        <ele>1738</ele>
        <time>2014-03-15T11:41:47Z</time>
      </trkpt>
      <trkpt lat="42.82807" lon="-0.1405">
        <ele>1738</ele>
        <time>2014-03-15T11:41:49Z</time>
      </trkpt>
      <trkpt lat="42.82806" lon="-0.14049">
        <ele>1738</ele>
        <time>2014-03-15T11:41:50Z</time>
      </trkpt>
      <trkpt lat="42.82803" lon="-0.14045">
        <ele>1738</ele>
        <time>2014-03-15T11:41:54Z</time>
      </trkpt>
      <trkpt lat="42.82803" lon="-0.14047">
        <ele>1738</ele>
        <time>2014-03-15T11:41:55Z</time>
      </trkpt>
      <trkpt lat="42.82799" lon="-0.14045">
        <ele>1738</ele>
        <time>2014-03-15T11:41:58Z</time>
      </trkpt>
      <trkpt lat="42.82796" lon="-0.14044">
        <ele>1738</ele>
        <time>2014-03-15T11:42:00Z</time>
      </trkpt>
      <trkpt lat="42.82793" lon="-0.14043">
        <ele>1738</ele>
        <time>2014-03-15T11:42:02Z</time>
      </trkpt>
      <trkpt lat="42.82792" lon="-0.14041">
        <ele>1738</ele>
        <time>2014-03-15T11:42:03Z</time>
      </trkpt>
      <trkpt lat="42.82784" lon="-0.14038">
        <ele>1738</ele>
        <time>2014-03-15T11:42:09Z</time>
      </trkpt>
      <trkpt lat="42.82783" lon="-0.14038">
        <ele>1738</ele>
        <time>2014-03-15T11:42:10Z</time>
      </trkpt>
      <trkpt lat="42.82782" lon="-0.14037">
        <ele>1738</ele>
        <time>2014-03-15T11:42:11Z</time>
      </trkpt>
      <trkpt lat="42.8278" lon="-0.14036">
        <ele>1738</ele>
        <time>2014-03-15T11:42:12Z</time>
      </trkpt>
      <trkpt lat="42.82778" lon="-0.14033">
        <ele>1738</ele>
        <time>2014-03-15T11:42:15Z</time>
      </trkpt>
      <trkpt lat="42.82777" lon="-0.14033">
        <ele>1738</ele>
        <time>2014-03-15T11:42:16Z</time>
      </trkpt>
      <trkpt lat="42.82776" lon="-0.14033">
        <ele>1738</ele>
        <time>2014-03-15T11:42:17Z</time>
      </trkpt>
      <trkpt lat="42.82773" lon="-0.14033">
        <ele>1738</ele>
        <time>2014-03-15T11:42:24Z</time>
      </trkpt>
      <trkpt lat="42.82772" lon="-0.14033">
        <ele>1738</ele>
        <time>2014-03-15T11:42:25Z</time>
      </trkpt>
      <trkpt lat="42.82771" lon="-0.14033">
        <ele>1738</ele>
        <time>2014-03-15T11:42:26Z</time>
      </trkpt>
      <trkpt lat="42.8277" lon="-0.14033">
        <ele>1738</ele>
        <time>2014-03-15T11:42:27Z</time>
      </trkpt>
      <trkpt lat="42.82767" lon="-0.14031">
        <ele>1738</ele>
        <time>2014-03-15T11:42:28Z</time>
      </trkpt>
      <trkpt lat="42.82765" lon="-0.14029">
        <ele>1737</ele>
        <time>2014-03-15T11:42:33Z</time>
      </trkpt>
      <trkpt lat="42.82763" lon="-0.14028">
        <ele>1737</ele>
        <time>2014-03-15T11:42:35Z</time>
      </trkpt>
      <trkpt lat="42.8276" lon="-0.14025">
        <ele>1737</ele>
        <time>2014-03-15T11:42:39Z</time>
      </trkpt>
      <trkpt lat="42.82759" lon="-0.14026">
        <ele>1737</ele>
        <time>2014-03-15T11:42:40Z</time>
      </trkpt>
      <trkpt lat="42.82756" lon="-0.14023">
        <ele>1737</ele>
        <time>2014-03-15T11:42:42Z</time>
      </trkpt>
      <trkpt lat="42.82753" lon="-0.14019">
        <ele>1736</ele>
        <time>2014-03-15T11:42:44Z</time>
      </trkpt>
      <trkpt lat="42.82749" lon="-0.14019">
        <ele>1739</ele>
        <time>2014-03-15T11:42:50Z</time>
      </trkpt>
      <trkpt lat="42.82748" lon="-0.1402">
        <ele>1739</ele>
        <time>2014-03-15T11:42:51Z</time>
      </trkpt>
      <trkpt lat="42.82747" lon="-0.14019">
        <ele>1739</ele>
        <time>2014-03-15T11:42:52Z</time>
      </trkpt>
      <trkpt lat="42.82747" lon="-0.1402">
        <ele>1739</ele>
        <time>2014-03-15T11:42:53Z</time>
      </trkpt>
      <trkpt lat="42.82745" lon="-0.14021">
        <ele>1740</ele>
        <time>2014-03-15T11:42:56Z</time>
      </trkpt>
      <trkpt lat="42.82745" lon="-0.14023">
        <ele>1740</ele>
        <time>2014-03-15T11:42:57Z</time>
      </trkpt>
      <trkpt lat="42.82745" lon="-0.14027">
        <ele>1741</ele>
        <time>2014-03-15T11:43:02Z</time>
      </trkpt>
      <trkpt lat="42.82744" lon="-0.14027">
        <ele>1741</ele>
        <time>2014-03-15T11:43:03Z</time>
      </trkpt>
      <trkpt lat="42.82741" lon="-0.14027">
        <ele>1741</ele>
        <time>2014-03-15T11:43:06Z</time>
      </trkpt>
      <trkpt lat="42.82739" lon="-0.14027">
        <ele>1741</ele>
        <time>2014-03-15T11:43:07Z</time>
      </trkpt>
      <trkpt lat="42.82738" lon="-0.14028">
        <ele>1741</ele>
        <time>2014-03-15T11:43:08Z</time>
      </trkpt>
      <trkpt lat="42.82738" lon="-0.14025">
        <ele>1741</ele>
        <time>2014-03-15T11:43:09Z</time>
      </trkpt>
      <trkpt lat="42.82739" lon="-0.14024">
        <ele>1741</ele>
        <time>2014-03-15T11:43:10Z</time>
      </trkpt>
      <trkpt lat="42.82736" lon="-0.14023">
        <ele>1741</ele>
        <time>2014-03-15T11:43:11Z</time>
      </trkpt>
      <trkpt lat="42.82727" lon="-0.1402">
        <ele>1741</ele>
        <time>2014-03-15T11:43:17Z</time>
      </trkpt>
      <trkpt lat="42.82725" lon="-0.14019">
        <ele>1741</ele>
        <time>2014-03-15T11:43:18Z</time>
      </trkpt>
      <trkpt lat="42.82726" lon="-0.14017">
        <ele>1741</ele>
        <time>2014-03-15T11:43:23Z</time>
      </trkpt>
      <trkpt lat="42.82726" lon="-0.14018">
        <ele>1741</ele>
        <time>2014-03-15T11:43:24Z</time>
      </trkpt>
      <trkpt lat="42.82725" lon="-0.14018">
        <ele>1741</ele>
        <time>2014-03-15T11:43:27Z</time>
      </trkpt>
      <trkpt lat="42.82721" lon="-0.14016">
        <ele>1741</ele>
        <time>2014-03-15T11:43:30Z</time>
      </trkpt>
      <trkpt lat="42.8272" lon="-0.14016">
        <ele>1742</ele>
        <time>2014-03-15T11:43:32Z</time>
      </trkpt>
      <trkpt lat="42.82717" lon="-0.14012">
        <ele>1742</ele>
        <time>2014-03-15T11:43:33Z</time>
      </trkpt>
      <trkpt lat="42.8269" lon="-0.14006">
        <ele>1742</ele>
        <time>2014-03-15T11:43:48Z</time>
      </trkpt>
      <trkpt lat="42.82678" lon="-0.14004">
        <ele>1741</ele>
        <time>2014-03-15T11:43:58Z</time>
      </trkpt>
      <trkpt lat="42.82676" lon="-0.14003">
        <ele>1741</ele>
        <time>2014-03-15T11:44:00Z</time>
      </trkpt>
      <trkpt lat="42.82675" lon="-0.14003">
        <ele>1741</ele>
        <time>2014-03-15T11:44:01Z</time>
      </trkpt>
      <trkpt lat="42.82671" lon="-0.14005">
        <ele>1740</ele>
        <time>2014-03-15T11:44:04Z</time>
      </trkpt>
      <trkpt lat="42.8267" lon="-0.14006">
        <ele>1741</ele>
        <time>2014-03-15T11:44:05Z</time>
      </trkpt>
      <trkpt lat="42.82667" lon="-0.14003">
        <ele>1740</ele>
        <time>2014-03-15T11:44:08Z</time>
      </trkpt>
      <trkpt lat="42.82664" lon="-0.14006">
        <ele>1743</ele>
        <time>2014-03-15T11:44:11Z</time>
      </trkpt>
      <trkpt lat="42.82665" lon="-0.14006">
        <ele>1743</ele>
        <time>2014-03-15T11:44:14Z</time>
      </trkpt>
      <trkpt lat="42.82665" lon="-0.14012">
        <ele>1745</ele>
        <time>2014-03-15T11:44:16Z</time>
      </trkpt>
      <trkpt lat="42.82646" lon="-0.14004">
        <ele>1748</ele>
        <time>2014-03-15T11:44:29Z</time>
      </trkpt>
      <trkpt lat="42.82644" lon="-0.14006">
        <ele>1748</ele>
        <time>2014-03-15T11:44:32Z</time>
      </trkpt>
      <trkpt lat="42.82642" lon="-0.14007">
        <ele>1749</ele>
        <time>2014-03-15T11:44:35Z</time>
      </trkpt>
      <trkpt lat="42.82641" lon="-0.14006">
        <ele>1749</ele>
        <time>2014-03-15T11:44:38Z</time>
      </trkpt>
      <trkpt lat="42.82634" lon="-0.14006">
        <ele>1750</ele>
        <time>2014-03-15T11:44:42Z</time>
      </trkpt>
      <trkpt lat="42.82628" lon="-0.14008">
        <ele>1751</ele>
        <time>2014-03-15T11:44:50Z</time>
      </trkpt>
      <trkpt lat="42.82626" lon="-0.14008">
        <ele>1751</ele>
        <time>2014-03-15T11:44:51Z</time>
      </trkpt>
      <trkpt lat="42.82623" lon="-0.1401">
        <ele>1751</ele>
        <time>2014-03-15T11:44:56Z</time>
      </trkpt>
      <trkpt lat="42.82617" lon="-0.14012">
        <ele>1752</ele>
        <time>2014-03-15T11:45:06Z</time>
      </trkpt>
      <trkpt lat="42.82605" lon="-0.14">
        <ele>1750</ele>
        <time>2014-03-15T11:45:18Z</time>
      </trkpt>
      <trkpt lat="42.82591" lon="-0.14007">
        <ele>1749</ele>
        <time>2014-03-15T11:45:31Z</time>
      </trkpt>
      <trkpt lat="42.82582" lon="-0.13999">
        <ele>1745</ele>
        <time>2014-03-15T11:45:47Z</time>
      </trkpt>
      <trkpt lat="42.82581" lon="-0.13999">
        <ele>1745</ele>
        <time>2014-03-15T11:45:50Z</time>
      </trkpt>
      <trkpt lat="42.82577" lon="-0.13993">
        <ele>1745</ele>
        <time>2014-03-15T11:45:55Z</time>
      </trkpt>
      <trkpt lat="42.82572" lon="-0.13991">
        <ele>1745</ele>
        <time>2014-03-15T11:46:01Z</time>
      </trkpt>
      <trkpt lat="42.82571" lon="-0.13991">
        <ele>1745</ele>
        <time>2014-03-15T11:46:03Z</time>
      </trkpt>
      <trkpt lat="42.82555" lon="-0.1399">
        <ele>1746</ele>
        <time>2014-03-15T11:46:13Z</time>
      </trkpt>
      <trkpt lat="42.82553" lon="-0.1399">
        <ele>1746</ele>
        <time>2014-03-15T11:46:15Z</time>
      </trkpt>
      <trkpt lat="42.82552" lon="-0.13988">
        <ele>1746</ele>
        <time>2014-03-15T11:46:16Z</time>
      </trkpt>
      <trkpt lat="42.82546" lon="-0.13989">
        <ele>1746</ele>
        <time>2014-03-15T11:46:21Z</time>
      </trkpt>
      <trkpt lat="42.82544" lon="-0.13988">
        <ele>1746</ele>
        <time>2014-03-15T11:46:22Z</time>
      </trkpt>
      <trkpt lat="42.82542" lon="-0.13987">
        <ele>1746</ele>
        <time>2014-03-15T11:46:24Z</time>
      </trkpt>
      <trkpt lat="42.82537" lon="-0.13988">
        <ele>1747</ele>
        <time>2014-03-15T11:46:32Z</time>
      </trkpt>
      <trkpt lat="42.82534" lon="-0.13989">
        <ele>1747</ele>
        <time>2014-03-15T11:46:34Z</time>
      </trkpt>
      <trkpt lat="42.82533" lon="-0.13989">
        <ele>1747</ele>
        <time>2014-03-15T11:46:35Z</time>
      </trkpt>
      <trkpt lat="42.82525" lon="-0.13992">
        <ele>1748</ele>
        <time>2014-03-15T11:46:42Z</time>
      </trkpt>
      <trkpt lat="42.82524" lon="-0.1399">
        <ele>1748</ele>
        <time>2014-03-15T11:46:43Z</time>
      </trkpt>
      <trkpt lat="42.82515" lon="-0.13987">
        <ele>1748</ele>
        <time>2014-03-15T11:46:51Z</time>
      </trkpt>
      <trkpt lat="42.82509" lon="-0.13983">
        <ele>1748</ele>
        <time>2014-03-15T11:47:00Z</time>
      </trkpt>
      <trkpt lat="42.82508" lon="-0.13983">
        <ele>1748</ele>
        <time>2014-03-15T11:47:01Z</time>
      </trkpt>
      <trkpt lat="42.82496" lon="-0.13978">
        <ele>1755</ele>
        <time>2014-03-15T11:47:12Z</time>
      </trkpt>
      <trkpt lat="42.82494" lon="-0.13978">
        <ele>1755</ele>
        <time>2014-03-15T11:47:14Z</time>
      </trkpt>
      <trkpt lat="42.82493" lon="-0.1398">
        <ele>1755</ele>
        <time>2014-03-15T11:47:15Z</time>
      </trkpt>
      <trkpt lat="42.82493" lon="-0.13983">
        <ele>1755</ele>
        <time>2014-03-15T11:47:20Z</time>
      </trkpt>
      <trkpt lat="42.82492" lon="-0.13982">
        <ele>1755</ele>
        <time>2014-03-15T11:47:21Z</time>
      </trkpt>
      <trkpt lat="42.82491" lon="-0.13979">
        <ele>1755</ele>
        <time>2014-03-15T11:47:23Z</time>
      </trkpt>
      <trkpt lat="42.8249" lon="-0.13979">
        <ele>1755</ele>
        <time>2014-03-15T11:47:24Z</time>
      </trkpt>
      <trkpt lat="42.82487" lon="-0.13979">
        <ele>1755</ele>
        <time>2014-03-15T11:47:25Z</time>
      </trkpt>
      <trkpt lat="42.82477" lon="-0.13979">
        <ele>1756</ele>
        <time>2014-03-15T11:47:35Z</time>
      </trkpt>
      <trkpt lat="42.82475" lon="-0.13972">
        <ele>1756</ele>
        <time>2014-03-15T11:47:37Z</time>
      </trkpt>
      <trkpt lat="42.8247" lon="-0.13972">
        <ele>1757</ele>
        <time>2014-03-15T11:47:42Z</time>
      </trkpt>
      <trkpt lat="42.82469" lon="-0.13971">
        <ele>1757</ele>
        <time>2014-03-15T11:47:43Z</time>
      </trkpt>
      <trkpt lat="42.82467" lon="-0.13971">
        <ele>1757</ele>
        <time>2014-03-15T11:47:46Z</time>
      </trkpt>
      <trkpt lat="42.82465" lon="-0.13971">
        <ele>1757</ele>
        <time>2014-03-15T11:47:47Z</time>
      </trkpt>
      <trkpt lat="42.82466" lon="-0.13975">
        <ele>1758</ele>
        <time>2014-03-15T11:47:48Z</time>
      </trkpt>
      <trkpt lat="42.82467" lon="-0.13972">
        <ele>1757</ele>
        <time>2014-03-15T11:47:49Z</time>
      </trkpt>
      <trkpt lat="42.82463" lon="-0.13973">
        <ele>1758</ele>
        <time>2014-03-15T11:47:53Z</time>
      </trkpt>
      <trkpt lat="42.82462" lon="-0.13972">
        <ele>1758</ele>
        <time>2014-03-15T11:47:54Z</time>
      </trkpt>
      <trkpt lat="42.82453" lon="-0.13964">
        <ele>1759</ele>
        <time>2014-03-15T11:48:02Z</time>
      </trkpt>
      <trkpt lat="42.82451" lon="-0.13961">
        <ele>1759</ele>
        <time>2014-03-15T11:48:03Z</time>
      </trkpt>
      <trkpt lat="42.82438" lon="-0.13948">
        <ele>1759</ele>
        <time>2014-03-15T11:48:15Z</time>
      </trkpt>
      <trkpt lat="42.82436" lon="-0.13947">
        <ele>1759</ele>
        <time>2014-03-15T11:48:17Z</time>
      </trkpt>
      <trkpt lat="42.82434" lon="-0.13946">
        <ele>1759</ele>
        <time>2014-03-15T11:48:19Z</time>
      </trkpt>
      <trkpt lat="42.82434" lon="-0.13945">
        <ele>1759</ele>
        <time>2014-03-15T11:48:20Z</time>
      </trkpt>
      <trkpt lat="42.82432" lon="-0.13943">
        <ele>1759</ele>
        <time>2014-03-15T11:48:23Z</time>
      </trkpt>
      <trkpt lat="42.82431" lon="-0.13942">
        <ele>1759</ele>
        <time>2014-03-15T11:48:24Z</time>
      </trkpt>
      <trkpt lat="42.8243" lon="-0.13942">
        <ele>1759</ele>
        <time>2014-03-15T11:48:26Z</time>
      </trkpt>
      <trkpt lat="42.82429" lon="-0.1394">
        <ele>1759</ele>
        <time>2014-03-15T11:48:28Z</time>
      </trkpt>
      <trkpt lat="42.82431" lon="-0.13934">
        <ele>1759</ele>
        <time>2014-03-15T11:48:36Z</time>
      </trkpt>
      <trkpt lat="42.82425" lon="-0.13926">
        <ele>1759</ele>
        <time>2014-03-15T11:48:51Z</time>
      </trkpt>
      <trkpt lat="42.82422" lon="-0.13923">
        <ele>1759</ele>
        <time>2014-03-15T11:48:54Z</time>
      </trkpt>
      <trkpt lat="42.82422" lon="-0.13922">
        <ele>1759</ele>
        <time>2014-03-15T11:48:55Z</time>
      </trkpt>
      <trkpt lat="42.82421" lon="-0.13924">
        <ele>1759</ele>
        <time>2014-03-15T11:49:00Z</time>
      </trkpt>
      <trkpt lat="42.8242" lon="-0.13924">
        <ele>1759</ele>
        <time>2014-03-15T11:49:01Z</time>
      </trkpt>
      <trkpt lat="42.82419" lon="-0.13923">
        <ele>1760</ele>
        <time>2014-03-15T11:49:05Z</time>
      </trkpt>
      <trkpt lat="42.8242" lon="-0.1392">
        <ele>1760</ele>
        <time>2014-03-15T11:49:08Z</time>
      </trkpt>
      <trkpt lat="42.8242" lon="-0.13919">
        <ele>1760</ele>
        <time>2014-03-15T11:49:09Z</time>
      </trkpt>
      <trkpt lat="42.82417" lon="-0.13911">
        <ele>1763</ele>
        <time>2014-03-15T11:49:10Z</time>
      </trkpt>
      <trkpt lat="42.82416" lon="-0.13909">
        <ele>1764</ele>
        <time>2014-03-15T11:49:13Z</time>
      </trkpt>
      <trkpt lat="42.82416" lon="-0.13911">
        <ele>1763</ele>
        <time>2014-03-15T11:49:14Z</time>
      </trkpt>
      <trkpt lat="42.82416" lon="-0.1391">
        <ele>1763</ele>
        <time>2014-03-15T11:49:15Z</time>
      </trkpt>
      <trkpt lat="42.82415" lon="-0.13908">
        <ele>1764</ele>
        <time>2014-03-15T11:49:17Z</time>
      </trkpt>
      <trkpt lat="42.82414" lon="-0.13907">
        <ele>1765</ele>
        <time>2014-03-15T11:49:18Z</time>
      </trkpt>
      <trkpt lat="42.82414" lon="-0.13906">
        <ele>1765</ele>
        <time>2014-03-15T11:49:19Z</time>
      </trkpt>
      <trkpt lat="42.82406" lon="-0.13904">
        <ele>1767</ele>
        <time>2014-03-15T11:49:27Z</time>
      </trkpt>
      <trkpt lat="42.82405" lon="-0.13903">
        <ele>1767</ele>
        <time>2014-03-15T11:49:29Z</time>
      </trkpt>
      <trkpt lat="42.82405" lon="-0.139">
        <ele>1768</ele>
        <time>2014-03-15T11:49:34Z</time>
      </trkpt>
      <trkpt lat="42.82403" lon="-0.13898">
        <ele>1768</ele>
        <time>2014-03-15T11:49:37Z</time>
      </trkpt>
      <trkpt lat="42.82399" lon="-0.13893">
        <ele>1770</ele>
        <time>2014-03-15T11:49:42Z</time>
      </trkpt>
      <trkpt lat="42.82396" lon="-0.13892">
        <ele>1770</ele>
        <time>2014-03-15T11:49:47Z</time>
      </trkpt>
      <trkpt lat="42.82394" lon="-0.13892">
        <ele>1771</ele>
        <time>2014-03-15T11:49:49Z</time>
      </trkpt>
      <trkpt lat="42.82394" lon="-0.13895">
        <ele>1770</ele>
        <time>2014-03-15T11:49:50Z</time>
      </trkpt>
      <trkpt lat="42.82385" lon="-0.13891">
        <ele>1772</ele>
        <time>2014-03-15T11:50:02Z</time>
      </trkpt>
      <trkpt lat="42.82386" lon="-0.13885">
        <ele>1772</ele>
        <time>2014-03-15T11:50:06Z</time>
      </trkpt>
      <trkpt lat="42.82386" lon="-0.13878">
        <ele>1773</ele>
        <time>2014-03-15T11:50:09Z</time>
      </trkpt>
      <trkpt lat="42.82385" lon="-0.13879">
        <ele>1773</ele>
        <time>2014-03-15T11:50:10Z</time>
      </trkpt>
      <trkpt lat="42.82385" lon="-0.13877">
        <ele>1773</ele>
        <time>2014-03-15T11:50:36Z</time>
      </trkpt>
      <trkpt lat="42.82383" lon="-0.13864">
        <ele>1773</ele>
        <time>2014-03-15T11:50:52Z</time>
      </trkpt>
      <trkpt lat="42.82382" lon="-0.13863">
        <ele>1773</ele>
        <time>2014-03-15T11:50:53Z</time>
      </trkpt>
      <trkpt lat="42.82383" lon="-0.1386">
        <ele>1773</ele>
        <time>2014-03-15T11:50:56Z</time>
      </trkpt>
      <trkpt lat="42.82388" lon="-0.13859">
        <ele>1773</ele>
        <time>2014-03-15T11:50:58Z</time>
      </trkpt>
      <trkpt lat="42.82395" lon="-0.13842">
        <ele>1772</ele>
        <time>2014-03-15T11:51:11Z</time>
      </trkpt>
      <trkpt lat="42.82396" lon="-0.13829">
        <ele>1779</ele>
        <time>2014-03-15T11:51:16Z</time>
      </trkpt>
      <trkpt lat="42.82396" lon="-0.13828">
        <ele>1779</ele>
        <time>2014-03-15T11:51:17Z</time>
      </trkpt>
      <trkpt lat="42.82396" lon="-0.13827">
        <ele>1779</ele>
        <time>2014-03-15T11:51:19Z</time>
      </trkpt>
      <trkpt lat="42.82397" lon="-0.13827">
        <ele>1779</ele>
        <time>2014-03-15T11:51:20Z</time>
      </trkpt>
      <trkpt lat="42.824" lon="-0.13826">
        <ele>1778</ele>
        <time>2014-03-15T11:51:39Z</time>
      </trkpt>
      <trkpt lat="42.82391" lon="-0.13828">
        <ele>1780</ele>
        <time>2014-03-15T11:51:51Z</time>
      </trkpt>
      <trkpt lat="42.82384" lon="-0.13826">
        <ele>1781</ele>
        <time>2014-03-15T11:52:08Z</time>
      </trkpt>
      <trkpt lat="42.82383" lon="-0.1383">
        <ele>1781</ele>
        <time>2014-03-15T11:52:11Z</time>
      </trkpt>
      <trkpt lat="42.82371" lon="-0.13828">
        <ele>1782</ele>
        <time>2014-03-15T11:52:27Z</time>
      </trkpt>
      <trkpt lat="42.82364" lon="-0.13829">
        <ele>1782</ele>
        <time>2014-03-15T11:52:54Z</time>
      </trkpt>
      <trkpt lat="42.8236" lon="-0.13833">
        <ele>1776</ele>
        <time>2014-03-15T11:53:30Z</time>
      </trkpt>
      <trkpt lat="42.8236" lon="-0.13834">
        <ele>1776</ele>
        <time>2014-03-15T11:53:31Z</time>
      </trkpt>
      <trkpt lat="42.8236" lon="-0.13837">
        <ele>1776</ele>
        <time>2014-03-15T11:53:33Z</time>
      </trkpt>
      <trkpt lat="42.82357" lon="-0.13838">
        <ele>1776</ele>
        <time>2014-03-15T11:53:38Z</time>
      </trkpt>
      <trkpt lat="42.82354" lon="-0.13837">
        <ele>1777</ele>
        <time>2014-03-15T11:53:46Z</time>
      </trkpt>
      <trkpt lat="42.82353" lon="-0.13836">
        <ele>1777</ele>
        <time>2014-03-15T11:53:47Z</time>
      </trkpt>
      <trkpt lat="42.82352" lon="-0.13836">
        <ele>1777</ele>
        <time>2014-03-15T11:53:48Z</time>
      </trkpt>
      <trkpt lat="42.82351" lon="-0.13835">
        <ele>1777</ele>
        <time>2014-03-15T11:53:53Z</time>
      </trkpt>
      <trkpt lat="42.82354" lon="-0.13835">
        <ele>1777</ele>
        <time>2014-03-15T11:53:59Z</time>
      </trkpt>
      <trkpt lat="42.82353" lon="-0.13835">
        <ele>1777</ele>
        <time>2014-03-15T11:54:00Z</time>
      </trkpt>
      <trkpt lat="42.82352" lon="-0.13833">
        <ele>1782</ele>
        <time>2014-03-15T11:54:02Z</time>
      </trkpt>
      <trkpt lat="42.82342" lon="-0.13826">
        <ele>1782</ele>
        <time>2014-03-15T11:54:11Z</time>
      </trkpt>
      <trkpt lat="42.82341" lon="-0.13824">
        <ele>1782</ele>
        <time>2014-03-15T11:54:14Z</time>
      </trkpt>
      <trkpt lat="42.82326" lon="-0.13816">
        <ele>1785</ele>
        <time>2014-03-15T11:54:23Z</time>
      </trkpt>
      <trkpt lat="42.82326" lon="-0.13814">
        <ele>1785</ele>
        <time>2014-03-15T11:54:24Z</time>
      </trkpt>
      <trkpt lat="42.82322" lon="-0.13812">
        <ele>1786</ele>
        <time>2014-03-15T11:54:26Z</time>
      </trkpt>
      <trkpt lat="42.8232" lon="-0.13811">
        <ele>1786</ele>
        <time>2014-03-15T11:54:27Z</time>
      </trkpt>
      <trkpt lat="42.82318" lon="-0.13809">
        <ele>1787</ele>
        <time>2014-03-15T11:54:29Z</time>
      </trkpt>
      <trkpt lat="42.82318" lon="-0.13808">
        <ele>1787</ele>
        <time>2014-03-15T11:54:30Z</time>
      </trkpt>
      <trkpt lat="42.82316" lon="-0.13809">
        <ele>1787</ele>
        <time>2014-03-15T11:54:36Z</time>
      </trkpt>
      <trkpt lat="42.82317" lon="-0.13809">
        <ele>1787</ele>
        <time>2014-03-15T11:54:37Z</time>
      </trkpt>
      <trkpt lat="42.82316" lon="-0.13807">
        <ele>1787</ele>
        <time>2014-03-15T11:54:43Z</time>
      </trkpt>
      <trkpt lat="42.82306" lon="-0.13804">
        <ele>1788</ele>
        <time>2014-03-15T11:55:14Z</time>
      </trkpt>
      <trkpt lat="42.82306" lon="-0.13801">
        <ele>1788</ele>
        <time>2014-03-15T11:55:17Z</time>
      </trkpt>
      <trkpt lat="42.82296" lon="-0.13798">
        <ele>1789</ele>
        <time>2014-03-15T11:55:28Z</time>
      </trkpt>
      <trkpt lat="42.82294" lon="-0.13794">
        <ele>1789</ele>
        <time>2014-03-15T11:55:32Z</time>
      </trkpt>
      <trkpt lat="42.82292" lon="-0.13793">
        <ele>1789</ele>
        <time>2014-03-15T11:55:33Z</time>
      </trkpt>
      <trkpt lat="42.82291" lon="-0.13791">
        <ele>1789</ele>
        <time>2014-03-15T11:55:34Z</time>
      </trkpt>
      <trkpt lat="42.82284" lon="-0.13785">
        <ele>1790</ele>
        <time>2014-03-15T11:55:37Z</time>
      </trkpt>
      <trkpt lat="42.82283" lon="-0.13785">
        <ele>1790</ele>
        <time>2014-03-15T11:55:38Z</time>
      </trkpt>
      <trkpt lat="42.82282" lon="-0.13783">
        <ele>1790</ele>
        <time>2014-03-15T11:55:39Z</time>
      </trkpt>
      <trkpt lat="42.82285" lon="-0.13786">
        <ele>1790</ele>
        <time>2014-03-15T11:55:41Z</time>
      </trkpt>
      <trkpt lat="42.82285" lon="-0.13788">
        <ele>1790</ele>
        <time>2014-03-15T11:55:42Z</time>
      </trkpt>
      <trkpt lat="42.82284" lon="-0.13787">
        <ele>1790</ele>
        <time>2014-03-15T11:55:44Z</time>
      </trkpt>
      <trkpt lat="42.82279" lon="-0.13778">
        <ele>1791</ele>
        <time>2014-03-15T11:55:49Z</time>
      </trkpt>
      <trkpt lat="42.82267" lon="-0.1377">
        <ele>1792</ele>
        <time>2014-03-15T11:56:07Z</time>
      </trkpt>
      <trkpt lat="42.82266" lon="-0.13769">
        <ele>1792</ele>
        <time>2014-03-15T11:56:10Z</time>
      </trkpt>
      <trkpt lat="42.82265" lon="-0.1377">
        <ele>1792</ele>
        <time>2014-03-15T11:56:12Z</time>
      </trkpt>
      <trkpt lat="42.82263" lon="-0.1377">
        <ele>1793</ele>
        <time>2014-03-15T11:56:13Z</time>
      </trkpt>
      <trkpt lat="42.82263" lon="-0.13769">
        <ele>1793</ele>
        <time>2014-03-15T11:56:15Z</time>
      </trkpt>
      <trkpt lat="42.82264" lon="-0.1377">
        <ele>1793</ele>
        <time>2014-03-15T11:56:17Z</time>
      </trkpt>
      <trkpt lat="42.82264" lon="-0.13769">
        <ele>1793</ele>
        <time>2014-03-15T11:56:18Z</time>
      </trkpt>
      <trkpt lat="42.82251" lon="-0.13761">
        <ele>1795</ele>
        <time>2014-03-15T11:56:33Z</time>
      </trkpt>
      <trkpt lat="42.8224" lon="-0.13754">
        <ele>1797</ele>
        <time>2014-03-15T11:56:44Z</time>
      </trkpt>
      <trkpt lat="42.8223" lon="-0.13753">
        <ele>1796</ele>
        <time>2014-03-15T11:56:49Z</time>
      </trkpt>
      <trkpt lat="42.82227" lon="-0.1375">
        <ele>1805</ele>
        <time>2014-03-15T11:56:53Z</time>
      </trkpt>
      <trkpt lat="42.82227" lon="-0.13748">
        <ele>1805</ele>
        <time>2014-03-15T11:56:54Z</time>
      </trkpt>
      <trkpt lat="42.82226" lon="-0.13747">
        <ele>1806</ele>
        <time>2014-03-15T11:56:55Z</time>
      </trkpt>
      <trkpt lat="42.82219" lon="-0.13746">
        <ele>1807</ele>
        <time>2014-03-15T11:57:00Z</time>
      </trkpt>
      <trkpt lat="42.82218" lon="-0.13745">
        <ele>1807</ele>
        <time>2014-03-15T11:57:01Z</time>
      </trkpt>
      <trkpt lat="42.82214" lon="-0.13743">
        <ele>1807</ele>
        <time>2014-03-15T11:57:05Z</time>
      </trkpt>
      <trkpt lat="42.82212" lon="-0.1374">
        <ele>1807</ele>
        <time>2014-03-15T11:57:14Z</time>
      </trkpt>
      <trkpt lat="42.8221" lon="-0.1374">
        <ele>1807</ele>
        <time>2014-03-15T11:57:17Z</time>
      </trkpt>
      <trkpt lat="42.82206" lon="-0.13739">
        <ele>1808</ele>
        <time>2014-03-15T11:57:20Z</time>
      </trkpt>
      <trkpt lat="42.82205" lon="-0.13739">
        <ele>1808</ele>
        <time>2014-03-15T11:57:21Z</time>
      </trkpt>
      <trkpt lat="42.82205" lon="-0.13737">
        <ele>1808</ele>
        <time>2014-03-15T11:57:22Z</time>
      </trkpt>
      <trkpt lat="42.82204" lon="-0.13738">
        <ele>1808</ele>
        <time>2014-03-15T11:57:24Z</time>
      </trkpt>
      <trkpt lat="42.822" lon="-0.13737">
        <ele>1808</ele>
        <time>2014-03-15T11:57:27Z</time>
      </trkpt>
      <trkpt lat="42.82199" lon="-0.13738">
        <ele>1807</ele>
        <time>2014-03-15T11:57:28Z</time>
      </trkpt>
      <trkpt lat="42.82197" lon="-0.13738">
        <ele>1807</ele>
        <time>2014-03-15T11:57:29Z</time>
      </trkpt>
      <trkpt lat="42.82193" lon="-0.13734">
        <ele>1807</ele>
        <time>2014-03-15T11:57:30Z</time>
      </trkpt>
      <trkpt lat="42.82185" lon="-0.13732">
        <ele>1807</ele>
        <time>2014-03-15T11:57:40Z</time>
      </trkpt>
      <trkpt lat="42.82183" lon="-0.13731">
        <ele>1807</ele>
        <time>2014-03-15T11:57:41Z</time>
      </trkpt>
      <trkpt lat="42.82182" lon="-0.13731">
        <ele>1807</ele>
        <time>2014-03-15T11:57:42Z</time>
      </trkpt>
      <trkpt lat="42.8218" lon="-0.13729">
        <ele>1807</ele>
        <time>2014-03-15T11:57:43Z</time>
      </trkpt>
      <trkpt lat="42.82169" lon="-0.13721">
        <ele>1809</ele>
        <time>2014-03-15T11:57:59Z</time>
      </trkpt>
      <trkpt lat="42.82168" lon="-0.13721">
        <ele>1809</ele>
        <time>2014-03-15T11:58:00Z</time>
      </trkpt>
      <trkpt lat="42.82167" lon="-0.13721">
        <ele>1809</ele>
        <time>2014-03-15T11:58:08Z</time>
      </trkpt>
      <trkpt lat="42.82166" lon="-0.13721">
        <ele>1809</ele>
        <time>2014-03-15T11:58:11Z</time>
      </trkpt>
      <trkpt lat="42.82161" lon="-0.1372">
        <ele>1809</ele>
        <time>2014-03-15T11:58:21Z</time>
      </trkpt>
      <trkpt lat="42.82159" lon="-0.13719">
        <ele>1809</ele>
        <time>2014-03-15T11:58:23Z</time>
      </trkpt>
      <trkpt lat="42.8216" lon="-0.13723">
        <ele>1809</ele>
        <time>2014-03-15T11:58:24Z</time>
      </trkpt>
      <trkpt lat="42.82157" lon="-0.13721">
        <ele>1809</ele>
        <time>2014-03-15T11:58:26Z</time>
      </trkpt>
      <trkpt lat="42.82156" lon="-0.1372">
        <ele>1809</ele>
        <time>2014-03-15T11:58:30Z</time>
      </trkpt>
      <trkpt lat="42.82149" lon="-0.1372">
        <ele>1810</ele>
        <time>2014-03-15T11:58:48Z</time>
      </trkpt>
      <trkpt lat="42.82149" lon="-0.13718">
        <ele>1810</ele>
        <time>2014-03-15T11:58:50Z</time>
      </trkpt>
      <trkpt lat="42.82142" lon="-0.13716">
        <ele>1811</ele>
        <time>2014-03-15T11:59:07Z</time>
      </trkpt>
      <trkpt lat="42.82134" lon="-0.13716">
        <ele>1811</ele>
        <time>2014-03-15T11:59:34Z</time>
      </trkpt>
      <trkpt lat="42.82133" lon="-0.13716">
        <ele>1811</ele>
        <time>2014-03-15T11:59:35Z</time>
      </trkpt>
      <trkpt lat="42.82132" lon="-0.13717">
        <ele>1811</ele>
        <time>2014-03-15T11:59:37Z</time>
      </trkpt>
      <trkpt lat="42.82122" lon="-0.13717">
        <ele>1811</ele>
        <time>2014-03-15T12:00:01Z</time>
      </trkpt>
      <trkpt lat="42.82109" lon="-0.13721">
        <ele>1811</ele>
        <time>2014-03-15T12:00:15Z</time>
      </trkpt>
      <trkpt lat="42.82107" lon="-0.13723">
        <ele>1810</ele>
        <time>2014-03-15T12:00:18Z</time>
      </trkpt>
      <trkpt lat="42.82098" lon="-0.13724">
        <ele>1810</ele>
        <time>2014-03-15T12:00:27Z</time>
      </trkpt>
      <trkpt lat="42.82096" lon="-0.13725">
        <ele>1810</ele>
        <time>2014-03-15T12:00:30Z</time>
      </trkpt>
      <trkpt lat="42.82081" lon="-0.1373">
        <ele>1814</ele>
        <time>2014-03-15T12:00:50Z</time>
      </trkpt>
      <trkpt lat="42.82073" lon="-0.13728">
        <ele>1816</ele>
        <time>2014-03-15T12:01:11Z</time>
      </trkpt>
      <trkpt lat="42.82049" lon="-0.13723">
        <ele>1821</ele>
        <time>2014-03-15T12:01:27Z</time>
      </trkpt>
      <trkpt lat="42.82044" lon="-0.13725">
        <ele>1821</ele>
        <time>2014-03-15T12:01:32Z</time>
      </trkpt>
      <trkpt lat="42.82027" lon="-0.13726">
        <ele>1823</ele>
        <time>2014-03-15T12:01:52Z</time>
      </trkpt>
      <trkpt lat="42.82015" lon="-0.13725">
        <ele>1824</ele>
        <time>2014-03-15T12:02:06Z</time>
      </trkpt>
      <trkpt lat="42.82012" lon="-0.13723">
        <ele>1824</ele>
        <time>2014-03-15T12:02:09Z</time>
      </trkpt>
      <trkpt lat="42.81999" lon="-0.13724">
        <ele>1835</ele>
        <time>2014-03-15T12:02:23Z</time>
      </trkpt>
      <trkpt lat="42.81998" lon="-0.13724">
        <ele>1835</ele>
        <time>2014-03-15T12:02:24Z</time>
      </trkpt>
      <trkpt lat="42.81997" lon="-0.13724">
        <ele>1835</ele>
        <time>2014-03-15T12:02:25Z</time>
      </trkpt>
      <trkpt lat="42.81986" lon="-0.13729">
        <ele>1835</ele>
        <time>2014-03-15T12:02:45Z</time>
      </trkpt>
      <trkpt lat="42.81975" lon="-0.13736">
        <ele>1835</ele>
        <time>2014-03-15T12:02:57Z</time>
      </trkpt>
      <trkpt lat="42.81962" lon="-0.1375">
        <ele>1827</ele>
        <time>2014-03-15T12:03:15Z</time>
      </trkpt>
      <trkpt lat="42.81958" lon="-0.13751">
        <ele>1828</ele>
        <time>2014-03-15T12:03:19Z</time>
      </trkpt>
      <trkpt lat="42.81955" lon="-0.13752">
        <ele>1828</ele>
        <time>2014-03-15T12:03:24Z</time>
      </trkpt>
      <trkpt lat="42.8195" lon="-0.13755">
        <ele>1829</ele>
        <time>2014-03-15T12:03:30Z</time>
      </trkpt>
      <trkpt lat="42.81955" lon="-0.13749">
        <ele>1837</ele>
        <time>2014-03-15T12:03:41Z</time>
      </trkpt>
      <trkpt lat="42.81948" lon="-0.13758">
        <ele>1829</ele>
        <time>2014-03-15T12:05:54Z</time>
      </trkpt>
      <trkpt lat="42.81945" lon="-0.13744">
        <ele>1838</ele>
        <time>2014-03-15T12:09:45Z</time>
      </trkpt>
      <trkpt lat="42.81927" lon="-0.1373">
        <ele>1840</ele>
        <time>2014-03-15T12:10:07Z</time>
      </trkpt>
      <trkpt lat="42.81925" lon="-0.13731">
        <ele>1840</ele>
        <time>2014-03-15T12:10:11Z</time>
      </trkpt>
      <trkpt lat="42.81917" lon="-0.13731">
        <ele>1840</ele>
        <time>2014-03-15T12:10:30Z</time>
      </trkpt>
      <trkpt lat="42.81905" lon="-0.13737">
        <ele>1845</ele>
        <time>2014-03-15T12:10:39Z</time>
      </trkpt>
      <trkpt lat="42.81896" lon="-0.13744">
        <ele>1847</ele>
        <time>2014-03-15T12:10:49Z</time>
      </trkpt>
      <trkpt lat="42.81885" lon="-0.13752">
        <ele>1837</ele>
        <time>2014-03-15T12:11:10Z</time>
      </trkpt>
      <trkpt lat="42.81883" lon="-0.13753">
        <ele>1837</ele>
        <time>2014-03-15T12:11:11Z</time>
      </trkpt>
      <trkpt lat="42.8187" lon="-0.13761">
        <ele>1838</ele>
        <time>2014-03-15T12:11:24Z</time>
      </trkpt>
      <trkpt lat="42.81856" lon="-0.13768">
        <ele>1839</ele>
        <time>2014-03-15T12:11:43Z</time>
      </trkpt>
      <trkpt lat="42.81859" lon="-0.13769">
        <ele>1838</ele>
        <time>2014-03-15T12:11:44Z</time>
      </trkpt>
      <trkpt lat="42.81858" lon="-0.13769">
        <ele>1838</ele>
        <time>2014-03-15T12:11:46Z</time>
      </trkpt>
      <trkpt lat="42.81856" lon="-0.13769">
        <ele>1839</ele>
        <time>2014-03-15T12:11:50Z</time>
      </trkpt>
      <trkpt lat="42.81855" lon="-0.1377">
        <ele>1839</ele>
        <time>2014-03-15T12:11:51Z</time>
      </trkpt>
      <trkpt lat="42.81847" lon="-0.13774">
        <ele>1839</ele>
        <time>2014-03-15T12:12:00Z</time>
      </trkpt>
      <trkpt lat="42.8184" lon="-0.13777">
        <ele>1839</ele>
        <time>2014-03-15T12:12:06Z</time>
      </trkpt>
      <trkpt lat="42.81834" lon="-0.1378">
        <ele>1839</ele>
        <time>2014-03-15T12:12:11Z</time>
      </trkpt>
      <trkpt lat="42.81829" lon="-0.13783">
        <ele>1844</ele>
        <time>2014-03-15T12:12:16Z</time>
      </trkpt>
      <trkpt lat="42.81827" lon="-0.13784">
        <ele>1844</ele>
        <time>2014-03-15T12:12:17Z</time>
      </trkpt>
      <trkpt lat="42.81827" lon="-0.13783">
        <ele>1844</ele>
        <time>2014-03-15T12:12:18Z</time>
      </trkpt>
      <trkpt lat="42.81809" lon="-0.13788">
        <ele>1845</ele>
        <time>2014-03-15T12:12:36Z</time>
      </trkpt>
      <trkpt lat="42.81799" lon="-0.13784">
        <ele>1846</ele>
        <time>2014-03-15T12:12:54Z</time>
      </trkpt>
      <trkpt lat="42.81792" lon="-0.13766">
        <ele>1848</ele>
        <time>2014-03-15T12:13:10Z</time>
      </trkpt>
      <trkpt lat="42.81777" lon="-0.13758">
        <ele>1851</ele>
        <time>2014-03-15T12:13:25Z</time>
      </trkpt>
      <trkpt lat="42.81773" lon="-0.13756">
        <ele>1852</ele>
        <time>2014-03-15T12:13:27Z</time>
      </trkpt>
      <trkpt lat="42.81771" lon="-0.13753">
        <ele>1853</ele>
        <time>2014-03-15T12:13:28Z</time>
      </trkpt>
      <trkpt lat="42.81757" lon="-0.13739">
        <ele>1868</ele>
        <time>2014-03-15T12:13:42Z</time>
      </trkpt>
      <trkpt lat="42.81756" lon="-0.13738">
        <ele>1868</ele>
        <time>2014-03-15T12:13:48Z</time>
      </trkpt>
      <trkpt lat="42.81748" lon="-0.13747">
        <ele>1867</ele>
        <time>2014-03-15T12:13:50Z</time>
      </trkpt>
      <trkpt lat="42.8176" lon="-0.13738">
        <ele>1869</ele>
        <time>2014-03-15T12:14:07Z</time>
      </trkpt>
      <trkpt lat="42.8175" lon="-0.13728">
        <ele>1880</ele>
        <time>2014-03-15T12:15:33Z</time>
      </trkpt>
      <trkpt lat="42.81732" lon="-0.13725">
        <ele>1884</ele>
        <time>2014-03-15T12:15:48Z</time>
      </trkpt>
      <trkpt lat="42.8172" lon="-0.13722">
        <ele>1887</ele>
        <time>2014-03-15T12:16:12Z</time>
      </trkpt>
      <trkpt lat="42.81706" lon="-0.13726">
        <ele>1887</ele>
        <time>2014-03-15T12:16:16Z</time>
      </trkpt>
      <trkpt lat="42.81708" lon="-0.13725">
        <ele>1887</ele>
        <time>2014-03-15T12:16:22Z</time>
      </trkpt>
      <trkpt lat="42.81707" lon="-0.13723">
        <ele>1888</ele>
        <time>2014-03-15T12:16:23Z</time>
      </trkpt>
      <trkpt lat="42.81707" lon="-0.13722">
        <ele>1888</ele>
        <time>2014-03-15T12:16:29Z</time>
      </trkpt>
      <trkpt lat="42.81704" lon="-0.13721">
        <ele>1888</ele>
        <time>2014-03-15T12:16:45Z</time>
      </trkpt>
      <trkpt lat="42.81698" lon="-0.13719">
        <ele>1889</ele>
        <time>2014-03-15T12:16:51Z</time>
      </trkpt>
      <trkpt lat="42.81686" lon="-0.13718">
        <ele>1889</ele>
        <time>2014-03-15T12:17:01Z</time>
      </trkpt>
      <trkpt lat="42.81683" lon="-0.13718">
        <ele>1889</ele>
        <time>2014-03-15T12:17:03Z</time>
      </trkpt>
      <trkpt lat="42.81683" lon="-0.13719">
        <ele>1889</ele>
        <time>2014-03-15T12:17:10Z</time>
      </trkpt>
      <trkpt lat="42.81684" lon="-0.13719">
        <ele>1889</ele>
        <time>2014-03-15T12:17:12Z</time>
      </trkpt>
      <trkpt lat="42.8168" lon="-0.13721">
        <ele>1888</ele>
        <time>2014-03-15T12:17:20Z</time>
      </trkpt>
      <trkpt lat="42.8168" lon="-0.1372">
        <ele>1888</ele>
        <time>2014-03-15T12:17:21Z</time>
      </trkpt>
      <trkpt lat="42.81682" lon="-0.13715">
        <ele>1891</ele>
        <time>2014-03-15T12:17:22Z</time>
      </trkpt>
      <trkpt lat="42.8168" lon="-0.13715">
        <ele>1891</ele>
        <time>2014-03-15T12:17:29Z</time>
      </trkpt>
      <trkpt lat="42.81679" lon="-0.13713">
        <ele>1892</ele>
        <time>2014-03-15T12:17:33Z</time>
      </trkpt>
      <trkpt lat="42.81675" lon="-0.13711">
        <ele>1893</ele>
        <time>2014-03-15T12:17:55Z</time>
      </trkpt>
      <trkpt lat="42.81671" lon="-0.13711">
        <ele>1893</ele>
        <time>2014-03-15T12:18:09Z</time>
      </trkpt>
      <trkpt lat="42.81657" lon="-0.13707">
        <ele>1903</ele>
        <time>2014-03-15T12:18:21Z</time>
      </trkpt>
      <trkpt lat="42.81642" lon="-0.1371">
        <ele>1903</ele>
        <time>2014-03-15T12:18:33Z</time>
      </trkpt>
      <trkpt lat="42.81637" lon="-0.1371">
        <ele>1904</ele>
        <time>2014-03-15T12:18:37Z</time>
      </trkpt>
      <trkpt lat="42.81633" lon="-0.1371">
        <ele>1904</ele>
        <time>2014-03-15T12:18:41Z</time>
      </trkpt>
      <trkpt lat="42.81621" lon="-0.13713">
        <ele>1904</ele>
        <time>2014-03-15T12:18:57Z</time>
      </trkpt>
      <trkpt lat="42.8162" lon="-0.13713">
        <ele>1904</ele>
        <time>2014-03-15T12:18:58Z</time>
      </trkpt>
      <trkpt lat="42.81618" lon="-0.13711">
        <ele>1905</ele>
        <time>2014-03-15T12:19:00Z</time>
      </trkpt>
      <trkpt lat="42.81609" lon="-0.13714">
        <ele>1904</ele>
        <time>2014-03-15T12:19:17Z</time>
      </trkpt>
      <trkpt lat="42.81608" lon="-0.13715">
        <ele>1904</ele>
        <time>2014-03-15T12:19:18Z</time>
      </trkpt>
      <trkpt lat="42.81601" lon="-0.1372">
        <ele>1902</ele>
        <time>2014-03-15T12:19:24Z</time>
      </trkpt>
      <trkpt lat="42.81595" lon="-0.13725">
        <ele>1900</ele>
        <time>2014-03-15T12:19:31Z</time>
      </trkpt>
      <trkpt lat="42.81593" lon="-0.13726">
        <ele>1899</ele>
        <time>2014-03-15T12:19:32Z</time>
      </trkpt>
      <trkpt lat="42.81598" lon="-0.13725">
        <ele>1900</ele>
        <time>2014-03-15T12:19:37Z</time>
      </trkpt>
      <trkpt lat="42.81581" lon="-0.13738">
        <ele>1897</ele>
        <time>2014-03-15T12:19:59Z</time>
      </trkpt>
      <trkpt lat="42.81578" lon="-0.13739">
        <ele>1897</ele>
        <time>2014-03-15T12:20:13Z</time>
      </trkpt>
      <trkpt lat="42.81567" lon="-0.13737">
        <ele>1903</ele>
        <time>2014-03-15T12:20:31Z</time>
      </trkpt>
      <trkpt lat="42.81568" lon="-0.13734">
        <ele>1904</ele>
        <time>2014-03-15T12:20:40Z</time>
      </trkpt>
      <trkpt lat="42.81567" lon="-0.13734">
        <ele>1904</ele>
        <time>2014-03-15T12:20:41Z</time>
      </trkpt>
      <trkpt lat="42.81567" lon="-0.13737">
        <ele>1903</ele>
        <time>2014-03-15T12:20:49Z</time>
      </trkpt>
      <trkpt lat="42.81564" lon="-0.13735">
        <ele>1905</ele>
        <time>2014-03-15T12:20:51Z</time>
      </trkpt>
      <trkpt lat="42.81558" lon="-0.13735">
        <ele>1907</ele>
        <time>2014-03-15T12:21:00Z</time>
      </trkpt>
      <trkpt lat="42.81545" lon="-0.13738">
        <ele>1909</ele>
        <time>2014-03-15T12:21:10Z</time>
      </trkpt>
      <trkpt lat="42.8154" lon="-0.13728">
        <ele>1912</ele>
        <time>2014-03-15T12:21:22Z</time>
      </trkpt>
      <trkpt lat="42.81536" lon="-0.13725">
        <ele>1913</ele>
        <time>2014-03-15T12:21:27Z</time>
      </trkpt>
      <trkpt lat="42.81523" lon="-0.13713">
        <ele>1917</ele>
        <time>2014-03-15T12:21:47Z</time>
      </trkpt>
      <trkpt lat="42.81516" lon="-0.13713">
        <ele>1917</ele>
        <time>2014-03-15T12:22:06Z</time>
      </trkpt>
      <trkpt lat="42.81506" lon="-0.13714">
        <ele>1917</ele>
        <time>2014-03-15T12:22:23Z</time>
      </trkpt>
      <trkpt lat="42.81504" lon="-0.13708">
        <ele>1920</ele>
        <time>2014-03-15T12:23:17Z</time>
      </trkpt>
      <trkpt lat="42.81503" lon="-0.13706">
        <ele>1921</ele>
        <time>2014-03-15T12:27:16Z</time>
      </trkpt>
      <trkpt lat="42.8151" lon="-0.13708">
        <ele>1920</ele>
        <time>2014-03-15T12:27:52Z</time>
      </trkpt>
      <trkpt lat="42.81502" lon="-0.13708">
        <ele>1920</ele>
        <time>2014-03-15T12:28:24Z</time>
      </trkpt>
      <trkpt lat="42.81501" lon="-0.13707">
        <ele>1920</ele>
        <time>2014-03-15T12:28:37Z</time>
      </trkpt>
      <trkpt lat="42.81501" lon="-0.13706">
        <ele>1921</ele>
        <time>2014-03-15T12:28:39Z</time>
      </trkpt>
      <trkpt lat="42.815" lon="-0.13702">
        <ele>1931</ele>
        <time>2014-03-15T12:29:18Z</time>
      </trkpt>
      <trkpt lat="42.81499" lon="-0.13701">
        <ele>1932</ele>
        <time>2014-03-15T12:29:21Z</time>
      </trkpt>
      <trkpt lat="42.81495" lon="-0.13701">
        <ele>1932</ele>
        <time>2014-03-15T12:29:26Z</time>
      </trkpt>
      <trkpt lat="42.81483" lon="-0.13708">
        <ele>1930</ele>
        <time>2014-03-15T12:29:50Z</time>
      </trkpt>
      <trkpt lat="42.81474" lon="-0.13702">
        <ele>1932</ele>
        <time>2014-03-15T12:30:07Z</time>
      </trkpt>
      <trkpt lat="42.81457" lon="-0.13695">
        <ele>1935</ele>
        <time>2014-03-15T12:30:27Z</time>
      </trkpt>
      <trkpt lat="42.81452" lon="-0.13699">
        <ele>1935</ele>
        <time>2014-03-15T12:30:43Z</time>
      </trkpt>
      <trkpt lat="42.81448" lon="-0.137">
        <ele>1935</ele>
        <time>2014-03-15T12:30:49Z</time>
      </trkpt>
      <trkpt lat="42.81447" lon="-0.13701">
        <ele>1935</ele>
        <time>2014-03-15T12:30:50Z</time>
      </trkpt>
      <trkpt lat="42.81441" lon="-0.13699">
        <ele>1936</ele>
        <time>2014-03-15T12:31:05Z</time>
      </trkpt>
      <trkpt lat="42.81425" lon="-0.13707">
        <ele>1935</ele>
        <time>2014-03-15T12:31:18Z</time>
      </trkpt>
      <trkpt lat="42.81396" lon="-0.13709">
        <ele>1952</ele>
        <time>2014-03-15T12:31:36Z</time>
      </trkpt>
      <trkpt lat="42.81392" lon="-0.13717">
        <ele>1950</ele>
        <time>2014-03-15T12:31:46Z</time>
      </trkpt>
      <trkpt lat="42.81387" lon="-0.13726">
        <ele>1950</ele>
        <time>2014-03-15T12:31:55Z</time>
      </trkpt>
      <trkpt lat="42.81377" lon="-0.13735">
        <ele>1951</ele>
        <time>2014-03-15T12:32:08Z</time>
      </trkpt>
      <trkpt lat="42.81385" lon="-0.13733">
        <ele>1949</ele>
        <time>2014-03-15T12:32:18Z</time>
      </trkpt>
      <trkpt lat="42.81387" lon="-0.13733">
        <ele>1948</ele>
        <time>2014-03-15T12:32:23Z</time>
      </trkpt>
      <trkpt lat="42.81385" lon="-0.13733">
        <ele>1948</ele>
        <time>2014-03-15T12:32:33Z</time>
      </trkpt>
      <trkpt lat="42.81384" lon="-0.13736">
        <ele>1949</ele>
        <time>2014-03-15T12:32:37Z</time>
      </trkpt>
      <trkpt lat="42.81385" lon="-0.13737">
        <ele>1948</ele>
        <time>2014-03-15T12:32:42Z</time>
      </trkpt>
      <trkpt lat="42.81385" lon="-0.13738">
        <ele>1948</ele>
        <time>2014-03-15T12:32:45Z</time>
      </trkpt>
      <trkpt lat="42.81384" lon="-0.13739">
        <ele>1948</ele>
        <time>2014-03-15T12:32:53Z</time>
      </trkpt>
      <trkpt lat="42.81378" lon="-0.1374">
        <ele>1950</ele>
        <time>2014-03-15T12:33:06Z</time>
      </trkpt>
      <trkpt lat="42.81379" lon="-0.13741">
        <ele>1949</ele>
        <time>2014-03-15T12:33:07Z</time>
      </trkpt>
      <trkpt lat="42.81371" lon="-0.13747">
        <ele>1951</ele>
        <time>2014-03-15T12:33:26Z</time>
      </trkpt>
      <trkpt lat="42.8137" lon="-0.13748">
        <ele>1951</ele>
        <time>2014-03-15T12:33:34Z</time>
      </trkpt>
      <trkpt lat="42.81367" lon="-0.13747">
        <ele>1952</ele>
        <time>2014-03-15T12:33:40Z</time>
      </trkpt>
      <trkpt lat="42.81365" lon="-0.13745">
        <ele>1953</ele>
        <time>2014-03-15T12:33:46Z</time>
      </trkpt>
      <trkpt lat="42.81364" lon="-0.13745">
        <ele>1953</ele>
        <time>2014-03-15T12:33:48Z</time>
      </trkpt>
      <trkpt lat="42.81356" lon="-0.13743">
        <ele>1955</ele>
        <time>2014-03-15T12:34:00Z</time>
      </trkpt>
      <trkpt lat="42.81355" lon="-0.13745">
        <ele>1955</ele>
        <time>2014-03-15T12:34:02Z</time>
      </trkpt>
      <trkpt lat="42.81345" lon="-0.13749">
        <ele>1956</ele>
        <time>2014-03-15T12:34:20Z</time>
      </trkpt>
      <trkpt lat="42.81343" lon="-0.13751">
        <ele>1949</ele>
        <time>2014-03-15T12:34:22Z</time>
      </trkpt>
      <trkpt lat="42.81342" lon="-0.13751">
        <ele>1949</ele>
        <time>2014-03-15T12:34:23Z</time>
      </trkpt>
      <trkpt lat="42.81337" lon="-0.13759">
        <ele>1949</ele>
        <time>2014-03-15T12:34:34Z</time>
      </trkpt>
      <trkpt lat="42.81339" lon="-0.13764">
        <ele>1945</ele>
        <time>2014-03-15T12:35:14Z</time>
      </trkpt>
      <trkpt lat="42.81344" lon="-0.13764">
        <ele>1943</ele>
        <time>2014-03-15T12:37:53Z</time>
      </trkpt>
      <trkpt lat="42.81342" lon="-0.13764">
        <ele>1944</ele>
        <time>2014-03-15T12:39:40Z</time>
      </trkpt>
      <trkpt lat="42.81336" lon="-0.13764">
        <ele>1946</ele>
        <time>2014-03-15T12:42:25Z</time>
      </trkpt>
      <trkpt lat="42.81341" lon="-0.13751">
        <ele>1950</ele>
        <time>2014-03-15T12:42:49Z</time>
      </trkpt>
      <trkpt lat="42.81344" lon="-0.13754">
        <ele>1948</ele>
        <time>2014-03-15T12:43:44Z</time>
      </trkpt>
      <trkpt lat="42.81341" lon="-0.13753">
        <ele>1950</ele>
        <time>2014-03-15T12:44:36Z</time>
      </trkpt>
      <trkpt lat="42.81341" lon="-0.13752">
        <ele>1950</ele>
        <time>2014-03-15T12:44:37Z</time>
      </trkpt>
      <trkpt lat="42.81334" lon="-0.13756">
        <ele>1952</ele>
        <time>2014-03-15T12:45:12Z</time>
      </trkpt>
      <trkpt lat="42.8132" lon="-0.13746">
        <ele>1964</ele>
        <time>2014-03-15T12:45:31Z</time>
      </trkpt>
      <trkpt lat="42.8131" lon="-0.13737">
        <ele>1967</ele>
        <time>2014-03-15T12:45:45Z</time>
      </trkpt>
      <trkpt lat="42.81309" lon="-0.13734">
        <ele>1968</ele>
        <time>2014-03-15T12:45:47Z</time>
      </trkpt>
      <trkpt lat="42.81303" lon="-0.13732">
        <ele>1969</ele>
        <time>2014-03-15T12:45:53Z</time>
      </trkpt>
      <trkpt lat="42.813" lon="-0.1373">
        <ele>1969</ele>
        <time>2014-03-15T12:45:57Z</time>
      </trkpt>
      <trkpt lat="42.81295" lon="-0.1373">
        <ele>1969</ele>
        <time>2014-03-15T12:46:02Z</time>
      </trkpt>
      <trkpt lat="42.81294" lon="-0.13731">
        <ele>1969</ele>
        <time>2014-03-15T12:46:03Z</time>
      </trkpt>
      <trkpt lat="42.81291" lon="-0.13733">
        <ele>1969</ele>
        <time>2014-03-15T12:46:06Z</time>
      </trkpt>
      <trkpt lat="42.81289" lon="-0.13733">
        <ele>1969</ele>
        <time>2014-03-15T12:46:08Z</time>
      </trkpt>
      <trkpt lat="42.81276" lon="-0.13727">
        <ele>1970</ele>
        <time>2014-03-15T12:46:23Z</time>
      </trkpt>
      <trkpt lat="42.81276" lon="-0.13728">
        <ele>1970</ele>
        <time>2014-03-15T12:46:24Z</time>
      </trkpt>
      <trkpt lat="42.81275" lon="-0.13728">
        <ele>1970</ele>
        <time>2014-03-15T12:46:25Z</time>
      </trkpt>
      <trkpt lat="42.81274" lon="-0.13727">
        <ele>1970</ele>
        <time>2014-03-15T12:46:26Z</time>
      </trkpt>
      <trkpt lat="42.81268" lon="-0.13727">
        <ele>1970</ele>
        <time>2014-03-15T12:46:29Z</time>
      </trkpt>
      <trkpt lat="42.81254" lon="-0.13727">
        <ele>1969</ele>
        <time>2014-03-15T12:46:40Z</time>
      </trkpt>
      <trkpt lat="42.81237" lon="-0.13728">
        <ele>1973</ele>
        <time>2014-03-15T12:46:56Z</time>
      </trkpt>
      <trkpt lat="42.81227" lon="-0.13728">
        <ele>1974</ele>
        <time>2014-03-15T12:47:09Z</time>
      </trkpt>
      <trkpt lat="42.81226" lon="-0.13728">
        <ele>1974</ele>
        <time>2014-03-15T12:47:10Z</time>
      </trkpt>
      <trkpt lat="42.81224" lon="-0.13727">
        <ele>1974</ele>
        <time>2014-03-15T12:47:14Z</time>
      </trkpt>
      <trkpt lat="42.81222" lon="-0.13727">
        <ele>1975</ele>
        <time>2014-03-15T12:47:15Z</time>
      </trkpt>
      <trkpt lat="42.81221" lon="-0.13728">
        <ele>1974</ele>
        <time>2014-03-15T12:47:16Z</time>
      </trkpt>
      <trkpt lat="42.8122" lon="-0.13725">
        <ele>1975</ele>
        <time>2014-03-15T12:47:20Z</time>
      </trkpt>
      <trkpt lat="42.81217" lon="-0.13726">
        <ele>1975</ele>
        <time>2014-03-15T12:47:23Z</time>
      </trkpt>
      <trkpt lat="42.81211" lon="-0.13726">
        <ele>1976</ele>
        <time>2014-03-15T12:47:27Z</time>
      </trkpt>
      <trkpt lat="42.81211" lon="-0.13725">
        <ele>1976</ele>
        <time>2014-03-15T12:47:28Z</time>
      </trkpt>
      <trkpt lat="42.81208" lon="-0.13725">
        <ele>1976</ele>
        <time>2014-03-15T12:47:30Z</time>
      </trkpt>
      <trkpt lat="42.81207" lon="-0.13725">
        <ele>1976</ele>
        <time>2014-03-15T12:47:31Z</time>
      </trkpt>
      <trkpt lat="42.81202" lon="-0.13726">
        <ele>1976</ele>
        <time>2014-03-15T12:47:37Z</time>
      </trkpt>
      <trkpt lat="42.81201" lon="-0.13725">
        <ele>1976</ele>
        <time>2014-03-15T12:47:38Z</time>
      </trkpt>
      <trkpt lat="42.81194" lon="-0.13728">
        <ele>1976</ele>
        <time>2014-03-15T12:47:47Z</time>
      </trkpt>
      <trkpt lat="42.81187" lon="-0.13731">
        <ele>1975</ele>
        <time>2014-03-15T12:48:05Z</time>
      </trkpt>
      <trkpt lat="42.81186" lon="-0.13731">
        <ele>1975</ele>
        <time>2014-03-15T12:48:06Z</time>
      </trkpt>
      <trkpt lat="42.8118" lon="-0.13727">
        <ele>1975</ele>
        <time>2014-03-15T12:48:14Z</time>
      </trkpt>
      <trkpt lat="42.81179" lon="-0.13726">
        <ele>1975</ele>
        <time>2014-03-15T12:48:17Z</time>
      </trkpt>
      <trkpt lat="42.81174" lon="-0.13721">
        <ele>1976</ele>
        <time>2014-03-15T12:48:23Z</time>
      </trkpt>
      <trkpt lat="42.81172" lon="-0.13721">
        <ele>1977</ele>
        <time>2014-03-15T12:48:25Z</time>
      </trkpt>
      <trkpt lat="42.81171" lon="-0.13718">
        <ele>1977</ele>
        <time>2014-03-15T12:48:27Z</time>
      </trkpt>
      <trkpt lat="42.8117" lon="-0.13719">
        <ele>1977</ele>
        <time>2014-03-15T12:48:28Z</time>
      </trkpt>
      <trkpt lat="42.81167" lon="-0.13718">
        <ele>1977</ele>
        <time>2014-03-15T12:48:30Z</time>
      </trkpt>
      <trkpt lat="42.81166" lon="-0.13718">
        <ele>1981</ele>
        <time>2014-03-15T12:48:31Z</time>
      </trkpt>
      <trkpt lat="42.81161" lon="-0.13716">
        <ele>1982</ele>
        <time>2014-03-15T12:48:34Z</time>
      </trkpt>
      <trkpt lat="42.8116" lon="-0.13715">
        <ele>1983</ele>
        <time>2014-03-15T12:48:38Z</time>
      </trkpt>
      <trkpt lat="42.81159" lon="-0.13716">
        <ele>1983</ele>
        <time>2014-03-15T12:48:39Z</time>
      </trkpt>
      <trkpt lat="42.8115" lon="-0.13713">
        <ele>1984</ele>
        <time>2014-03-15T12:48:51Z</time>
      </trkpt>
      <trkpt lat="42.81133" lon="-0.13725">
        <ele>1983</ele>
        <time>2014-03-15T12:49:18Z</time>
      </trkpt>
      <trkpt lat="42.81131" lon="-0.1373">
        <ele>1982</ele>
        <time>2014-03-15T12:49:23Z</time>
      </trkpt>
      <trkpt lat="42.8113" lon="-0.1373">
        <ele>1982</ele>
        <time>2014-03-15T12:49:24Z</time>
      </trkpt>
      <trkpt lat="42.81128" lon="-0.13731">
        <ele>1982</ele>
        <time>2014-03-15T12:49:26Z</time>
      </trkpt>
      <trkpt lat="42.81129" lon="-0.13734">
        <ele>1982</ele>
        <time>2014-03-15T12:49:29Z</time>
      </trkpt>
      <trkpt lat="42.81127" lon="-0.13733">
        <ele>1982</ele>
        <time>2014-03-15T12:49:32Z</time>
      </trkpt>
      <trkpt lat="42.81123" lon="-0.13737">
        <ele>1982</ele>
        <time>2014-03-15T12:49:45Z</time>
      </trkpt>
      <trkpt lat="42.81122" lon="-0.13737">
        <ele>1982</ele>
        <time>2014-03-15T12:49:48Z</time>
      </trkpt>
      <trkpt lat="42.81119" lon="-0.1374">
        <ele>1982</ele>
        <time>2014-03-15T12:49:54Z</time>
      </trkpt>
      <trkpt lat="42.81118" lon="-0.1374">
        <ele>1982</ele>
        <time>2014-03-15T12:49:55Z</time>
      </trkpt>
      <trkpt lat="42.81118" lon="-0.13741">
        <ele>1982</ele>
        <time>2014-03-15T12:49:56Z</time>
      </trkpt>
      <trkpt lat="42.81116" lon="-0.13744">
        <ele>1982</ele>
        <time>2014-03-15T12:49:57Z</time>
      </trkpt>
      <trkpt lat="42.81115" lon="-0.13743">
        <ele>1982</ele>
        <time>2014-03-15T12:50:00Z</time>
      </trkpt>
      <trkpt lat="42.81114" lon="-0.13743">
        <ele>1982</ele>
        <time>2014-03-15T12:50:01Z</time>
      </trkpt>
      <trkpt lat="42.81113" lon="-0.13744">
        <ele>1982</ele>
        <time>2014-03-15T12:50:04Z</time>
      </trkpt>
      <trkpt lat="42.81112" lon="-0.13745">
        <ele>1982</ele>
        <time>2014-03-15T12:50:05Z</time>
      </trkpt>
      <trkpt lat="42.8111" lon="-0.13747">
        <ele>1982</ele>
        <time>2014-03-15T12:50:07Z</time>
      </trkpt>
      <trkpt lat="42.81105" lon="-0.13755">
        <ele>1975</ele>
        <time>2014-03-15T12:50:14Z</time>
      </trkpt>
      <trkpt lat="42.81104" lon="-0.13756">
        <ele>1975</ele>
        <time>2014-03-15T12:50:15Z</time>
      </trkpt>
      <trkpt lat="42.81103" lon="-0.13758">
        <ele>1976</ele>
        <time>2014-03-15T12:50:17Z</time>
      </trkpt>
      <trkpt lat="42.81101" lon="-0.13758">
        <ele>1976</ele>
        <time>2014-03-15T12:50:19Z</time>
      </trkpt>
      <trkpt lat="42.81102" lon="-0.1376">
        <ele>1976</ele>
        <time>2014-03-15T12:50:20Z</time>
      </trkpt>
      <trkpt lat="42.81098" lon="-0.13762">
        <ele>1976</ele>
        <time>2014-03-15T12:50:22Z</time>
      </trkpt>
      <trkpt lat="42.81097" lon="-0.13764">
        <ele>1976</ele>
        <time>2014-03-15T12:50:24Z</time>
      </trkpt>
      <trkpt lat="42.81096" lon="-0.13766">
        <ele>1976</ele>
        <time>2014-03-15T12:50:26Z</time>
      </trkpt>
      <trkpt lat="42.81092" lon="-0.13771">
        <ele>1976</ele>
        <time>2014-03-15T12:50:31Z</time>
      </trkpt>
      <trkpt lat="42.81092" lon="-0.13772">
        <ele>1976</ele>
        <time>2014-03-15T12:50:32Z</time>
      </trkpt>
      <trkpt lat="42.81089" lon="-0.13775">
        <ele>1975</ele>
        <time>2014-03-15T12:50:38Z</time>
      </trkpt>
      <trkpt lat="42.81085" lon="-0.13776">
        <ele>1975</ele>
        <time>2014-03-15T12:50:44Z</time>
      </trkpt>
      <trkpt lat="42.81084" lon="-0.13777">
        <ele>1975</ele>
        <time>2014-03-15T12:50:46Z</time>
      </trkpt>
      <trkpt lat="42.81082" lon="-0.13779">
        <ele>1981</ele>
        <time>2014-03-15T12:50:49Z</time>
      </trkpt>
      <trkpt lat="42.81082" lon="-0.13778">
        <ele>1981</ele>
        <time>2014-03-15T12:50:51Z</time>
      </trkpt>
      <trkpt lat="42.8108" lon="-0.1378">
        <ele>1981</ele>
        <time>2014-03-15T12:50:53Z</time>
      </trkpt>
      <trkpt lat="42.81079" lon="-0.1378">
        <ele>1981</ele>
        <time>2014-03-15T12:50:55Z</time>
      </trkpt>
      <trkpt lat="42.81075" lon="-0.1378">
        <ele>1981</ele>
        <time>2014-03-15T12:50:57Z</time>
      </trkpt>
      <trkpt lat="42.81073" lon="-0.1378">
        <ele>1981</ele>
        <time>2014-03-15T12:51:00Z</time>
      </trkpt>
      <trkpt lat="42.81072" lon="-0.13779">
        <ele>1981</ele>
        <time>2014-03-15T12:51:01Z</time>
      </trkpt>
      <trkpt lat="42.81071" lon="-0.13776">
        <ele>1981</ele>
        <time>2014-03-15T12:51:02Z</time>
      </trkpt>
      <trkpt lat="42.81068" lon="-0.13776">
        <ele>1981</ele>
        <time>2014-03-15T12:51:03Z</time>
      </trkpt>
      <trkpt lat="42.81067" lon="-0.13776">
        <ele>1981</ele>
        <time>2014-03-15T12:51:04Z</time>
      </trkpt>
      <trkpt lat="42.81065" lon="-0.13777">
        <ele>1981</ele>
        <time>2014-03-15T12:51:06Z</time>
      </trkpt>
      <trkpt lat="42.81064" lon="-0.13777">
        <ele>1981</ele>
        <time>2014-03-15T12:51:07Z</time>
      </trkpt>
      <trkpt lat="42.81064" lon="-0.13778">
        <ele>1981</ele>
        <time>2014-03-15T12:51:08Z</time>
      </trkpt>
      <trkpt lat="42.81055" lon="-0.13781">
        <ele>1981</ele>
        <time>2014-03-15T12:51:22Z</time>
      </trkpt>
      <trkpt lat="42.81055" lon="-0.13782">
        <ele>1981</ele>
        <time>2014-03-15T12:51:34Z</time>
      </trkpt>
      <trkpt lat="42.81054" lon="-0.13782">
        <ele>1981</ele>
        <time>2014-03-15T12:51:38Z</time>
      </trkpt>
      <trkpt lat="42.81055" lon="-0.13788">
        <ele>1981</ele>
        <time>2014-03-15T12:52:30Z</time>
      </trkpt>
      <trkpt lat="42.81054" lon="-0.13791">
        <ele>1981</ele>
        <time>2014-03-15T12:52:34Z</time>
      </trkpt>
      <trkpt lat="42.81053" lon="-0.138">
        <ele>1981</ele>
        <time>2014-03-15T12:52:41Z</time>
      </trkpt>
      <trkpt lat="42.81052" lon="-0.13801">
        <ele>1981</ele>
        <time>2014-03-15T12:52:42Z</time>
      </trkpt>
      <trkpt lat="42.81043" lon="-0.13808">
        <ele>1981</ele>
        <time>2014-03-15T12:52:56Z</time>
      </trkpt>
      <trkpt lat="42.8104" lon="-0.13812">
        <ele>1981</ele>
        <time>2014-03-15T12:52:59Z</time>
      </trkpt>
      <trkpt lat="42.81042" lon="-0.1381">
        <ele>1981</ele>
        <time>2014-03-15T12:53:02Z</time>
      </trkpt>
      <trkpt lat="42.8104" lon="-0.13808">
        <ele>1981</ele>
        <time>2014-03-15T12:53:08Z</time>
      </trkpt>
      <trkpt lat="42.81039" lon="-0.13809">
        <ele>1981</ele>
        <time>2014-03-15T12:53:09Z</time>
      </trkpt>
      <trkpt lat="42.81034" lon="-0.13813">
        <ele>1982</ele>
        <time>2014-03-15T12:53:10Z</time>
      </trkpt>
      <trkpt lat="42.81033" lon="-0.13814">
        <ele>1982</ele>
        <time>2014-03-15T12:53:11Z</time>
      </trkpt>
      <trkpt lat="42.81031" lon="-0.13816">
        <ele>1982</ele>
        <time>2014-03-15T12:53:12Z</time>
      </trkpt>
      <trkpt lat="42.81024" lon="-0.13817">
        <ele>1982</ele>
        <time>2014-03-15T12:53:19Z</time>
      </trkpt>
      <trkpt lat="42.81023" lon="-0.13817">
        <ele>1982</ele>
        <time>2014-03-15T12:53:20Z</time>
      </trkpt>
      <trkpt lat="42.81021" lon="-0.13817">
        <ele>1982</ele>
        <time>2014-03-15T12:53:21Z</time>
      </trkpt>
      <trkpt lat="42.8102" lon="-0.13815">
        <ele>1982</ele>
        <time>2014-03-15T12:53:23Z</time>
      </trkpt>
      <trkpt lat="42.81006" lon="-0.13804">
        <ele>1983</ele>
        <time>2014-03-15T12:53:37Z</time>
      </trkpt>
      <trkpt lat="42.80997" lon="-0.13799">
        <ele>1989</ele>
        <time>2014-03-15T12:53:45Z</time>
      </trkpt>
      <trkpt lat="42.80994" lon="-0.13796">
        <ele>1989</ele>
        <time>2014-03-15T12:53:46Z</time>
      </trkpt>
      <trkpt lat="42.80995" lon="-0.13791">
        <ele>1989</ele>
        <time>2014-03-15T12:53:49Z</time>
      </trkpt>
      <trkpt lat="42.80994" lon="-0.13791">
        <ele>1989</ele>
        <time>2014-03-15T12:53:50Z</time>
      </trkpt>
      <trkpt lat="42.80995" lon="-0.13788">
        <ele>1989</ele>
        <time>2014-03-15T12:53:51Z</time>
      </trkpt>
      <trkpt lat="42.8099" lon="-0.13782">
        <ele>1989</ele>
        <time>2014-03-15T12:53:59Z</time>
      </trkpt>
      <trkpt lat="42.80989" lon="-0.13782">
        <ele>1989</ele>
        <time>2014-03-15T12:54:00Z</time>
      </trkpt>
      <trkpt lat="42.80988" lon="-0.13779">
        <ele>1989</ele>
        <time>2014-03-15T12:54:02Z</time>
      </trkpt>
      <trkpt lat="42.80987" lon="-0.13778">
        <ele>1989</ele>
        <time>2014-03-15T12:54:03Z</time>
      </trkpt>
      <trkpt lat="42.80981" lon="-0.13778">
        <ele>1989</ele>
        <time>2014-03-15T12:54:08Z</time>
      </trkpt>
      <trkpt lat="42.8098" lon="-0.13777">
        <ele>1989</ele>
        <time>2014-03-15T12:54:09Z</time>
      </trkpt>
      <trkpt lat="42.80976" lon="-0.13775">
        <ele>1989</ele>
        <time>2014-03-15T12:54:12Z</time>
      </trkpt>
      <trkpt lat="42.80969" lon="-0.13771">
        <ele>1989</ele>
        <time>2014-03-15T12:54:19Z</time>
      </trkpt>
      <trkpt lat="42.80968" lon="-0.13771">
        <ele>1989</ele>
        <time>2014-03-15T12:54:20Z</time>
      </trkpt>
      <trkpt lat="42.80968" lon="-0.13767">
        <ele>1989</ele>
        <time>2014-03-15T12:54:21Z</time>
      </trkpt>
      <trkpt lat="42.80963" lon="-0.13767">
        <ele>1989</ele>
        <time>2014-03-15T12:54:26Z</time>
      </trkpt>
      <trkpt lat="42.80959" lon="-0.13771">
        <ele>1990</ele>
        <time>2014-03-15T12:54:29Z</time>
      </trkpt>
      <trkpt lat="42.80958" lon="-0.1377">
        <ele>1990</ele>
        <time>2014-03-15T12:54:31Z</time>
      </trkpt>
      <trkpt lat="42.80955" lon="-0.1377">
        <ele>1990</ele>
        <time>2014-03-15T12:54:33Z</time>
      </trkpt>
      <trkpt lat="42.80953" lon="-0.13771">
        <ele>1990</ele>
        <time>2014-03-15T12:54:35Z</time>
      </trkpt>
      <trkpt lat="42.80952" lon="-0.13776">
        <ele>1990</ele>
        <time>2014-03-15T12:54:36Z</time>
      </trkpt>
      <trkpt lat="42.8095" lon="-0.13767">
        <ele>1990</ele>
        <time>2014-03-15T12:54:39Z</time>
      </trkpt>
      <trkpt lat="42.80949" lon="-0.13765">
        <ele>1989</ele>
        <time>2014-03-15T12:54:41Z</time>
      </trkpt>
      <trkpt lat="42.80946" lon="-0.13765">
        <ele>1989</ele>
        <time>2014-03-15T12:54:45Z</time>
      </trkpt>
      <trkpt lat="42.80944" lon="-0.13765">
        <ele>1989</ele>
        <time>2014-03-15T12:54:46Z</time>
      </trkpt>
      <trkpt lat="42.80942" lon="-0.13763">
        <ele>1989</ele>
        <time>2014-03-15T12:54:49Z</time>
      </trkpt>
      <trkpt lat="42.80942" lon="-0.13761">
        <ele>1989</ele>
        <time>2014-03-15T12:54:51Z</time>
      </trkpt>
      <trkpt lat="42.8094" lon="-0.13761">
        <ele>1989</ele>
        <time>2014-03-15T12:54:53Z</time>
      </trkpt>
      <trkpt lat="42.80937" lon="-0.13751">
        <ele>1988</ele>
        <time>2014-03-15T12:55:00Z</time>
      </trkpt>
      <trkpt lat="42.80935" lon="-0.13751">
        <ele>1988</ele>
        <time>2014-03-15T12:55:01Z</time>
      </trkpt>
      <trkpt lat="42.80934" lon="-0.1375">
        <ele>1988</ele>
        <time>2014-03-15T12:55:02Z</time>
      </trkpt>
      <trkpt lat="42.8093" lon="-0.13749">
        <ele>1986</ele>
        <time>2014-03-15T12:55:05Z</time>
      </trkpt>
      <trkpt lat="42.80927" lon="-0.13746">
        <ele>1986</ele>
        <time>2014-03-15T12:55:11Z</time>
      </trkpt>
      <trkpt lat="42.80926" lon="-0.13746">
        <ele>1986</ele>
        <time>2014-03-15T12:55:12Z</time>
      </trkpt>
      <trkpt lat="42.8092" lon="-0.13735">
        <ele>1986</ele>
        <time>2014-03-15T12:55:22Z</time>
      </trkpt>
      <trkpt lat="42.80919" lon="-0.13736">
        <ele>1986</ele>
        <time>2014-03-15T12:55:23Z</time>
      </trkpt>
      <trkpt lat="42.80918" lon="-0.13735">
        <ele>1986</ele>
        <time>2014-03-15T12:55:24Z</time>
      </trkpt>
      <trkpt lat="42.80917" lon="-0.13733">
        <ele>1987</ele>
        <time>2014-03-15T12:55:25Z</time>
      </trkpt>
      <trkpt lat="42.80911" lon="-0.13731">
        <ele>1990</ele>
        <time>2014-03-15T12:55:30Z</time>
      </trkpt>
      <trkpt lat="42.80908" lon="-0.13728">
        <ele>1991</ele>
        <time>2014-03-15T12:55:33Z</time>
      </trkpt>
      <trkpt lat="42.80907" lon="-0.13725">
        <ele>1991</ele>
        <time>2014-03-15T12:55:34Z</time>
      </trkpt>
      <trkpt lat="42.80903" lon="-0.13727">
        <ele>1991</ele>
        <time>2014-03-15T12:55:38Z</time>
      </trkpt>
      <trkpt lat="42.80902" lon="-0.13726">
        <ele>1991</ele>
        <time>2014-03-15T12:55:41Z</time>
      </trkpt>
      <trkpt lat="42.80896" lon="-0.13721">
        <ele>1992</ele>
        <time>2014-03-15T12:55:51Z</time>
      </trkpt>
      <trkpt lat="42.8089" lon="-0.13716">
        <ele>1993</ele>
        <time>2014-03-15T12:55:56Z</time>
      </trkpt>
      <trkpt lat="42.80888" lon="-0.13714">
        <ele>1993</ele>
        <time>2014-03-15T12:55:58Z</time>
      </trkpt>
      <trkpt lat="42.80887" lon="-0.13714">
        <ele>1993</ele>
        <time>2014-03-15T12:55:59Z</time>
      </trkpt>
      <trkpt lat="42.80885" lon="-0.13713">
        <ele>1994</ele>
        <time>2014-03-15T12:56:01Z</time>
      </trkpt>
      <trkpt lat="42.80884" lon="-0.13713">
        <ele>1994</ele>
        <time>2014-03-15T12:56:02Z</time>
      </trkpt>
      <trkpt lat="42.80882" lon="-0.1371">
        <ele>1994</ele>
        <time>2014-03-15T12:56:04Z</time>
      </trkpt>
      <trkpt lat="42.80881" lon="-0.13708">
        <ele>1994</ele>
        <time>2014-03-15T12:56:05Z</time>
      </trkpt>
      <trkpt lat="42.8088" lon="-0.13703">
        <ele>1994</ele>
        <time>2014-03-15T12:56:07Z</time>
      </trkpt>
      <trkpt lat="42.8088" lon="-0.137">
        <ele>1994</ele>
        <time>2014-03-15T12:56:08Z</time>
      </trkpt>
      <trkpt lat="42.80879" lon="-0.13697">
        <ele>1994</ele>
        <time>2014-03-15T12:56:12Z</time>
      </trkpt>
      <trkpt lat="42.80875" lon="-0.13693">
        <ele>1994</ele>
        <time>2014-03-15T12:56:18Z</time>
      </trkpt>
      <trkpt lat="42.80872" lon="-0.13689">
        <ele>1994</ele>
        <time>2014-03-15T12:56:21Z</time>
      </trkpt>
      <trkpt lat="42.80871" lon="-0.13689">
        <ele>1994</ele>
        <time>2014-03-15T12:56:22Z</time>
      </trkpt>
      <trkpt lat="42.80869" lon="-0.13687">
        <ele>1994</ele>
        <time>2014-03-15T12:56:26Z</time>
      </trkpt>
      <trkpt lat="42.80864" lon="-0.13679">
        <ele>1995</ele>
        <time>2014-03-15T12:56:32Z</time>
      </trkpt>
      <trkpt lat="42.80861" lon="-0.13673">
        <ele>1995</ele>
        <time>2014-03-15T12:56:38Z</time>
      </trkpt>
      <trkpt lat="42.8086" lon="-0.13674">
        <ele>1995</ele>
        <time>2014-03-15T12:56:39Z</time>
      </trkpt>
      <trkpt lat="42.8086" lon="-0.13673">
        <ele>1995</ele>
        <time>2014-03-15T12:56:40Z</time>
      </trkpt>
      <trkpt lat="42.80858" lon="-0.13673">
        <ele>1995</ele>
        <time>2014-03-15T12:56:41Z</time>
      </trkpt>
      <trkpt lat="42.80856" lon="-0.13672">
        <ele>1995</ele>
        <time>2014-03-15T12:56:43Z</time>
      </trkpt>
      <trkpt lat="42.80855" lon="-0.13671">
        <ele>1995</ele>
        <time>2014-03-15T12:56:44Z</time>
      </trkpt>
      <trkpt lat="42.80845" lon="-0.13665">
        <ele>1997</ele>
        <time>2014-03-15T12:56:56Z</time>
      </trkpt>
      <trkpt lat="42.80843" lon="-0.13666">
        <ele>1997</ele>
        <time>2014-03-15T12:56:57Z</time>
      </trkpt>
      <trkpt lat="42.8084" lon="-0.13666">
        <ele>1996</ele>
        <time>2014-03-15T12:57:00Z</time>
      </trkpt>
      <trkpt lat="42.80839" lon="-0.1367">
        <ele>1995</ele>
        <time>2014-03-15T12:57:01Z</time>
      </trkpt>
      <trkpt lat="42.80839" lon="-0.13669">
        <ele>1995</ele>
        <time>2014-03-15T12:57:03Z</time>
      </trkpt>
      <trkpt lat="42.80838" lon="-0.13668">
        <ele>1995</ele>
        <time>2014-03-15T12:57:04Z</time>
      </trkpt>
      <trkpt lat="42.80837" lon="-0.13667">
        <ele>1995</ele>
        <time>2014-03-15T12:57:06Z</time>
      </trkpt>
      <trkpt lat="42.80836" lon="-0.13669">
        <ele>1995</ele>
        <time>2014-03-15T12:57:07Z</time>
      </trkpt>
      <trkpt lat="42.80837" lon="-0.13665">
        <ele>1996</ele>
        <time>2014-03-15T12:57:08Z</time>
      </trkpt>
      <trkpt lat="42.80833" lon="-0.13664">
        <ele>1995</ele>
        <time>2014-03-15T12:57:13Z</time>
      </trkpt>
      <trkpt lat="42.80826" lon="-0.13663">
        <ele>1996</ele>
        <time>2014-03-15T12:57:20Z</time>
      </trkpt>
      <trkpt lat="42.80826" lon="-0.13661">
        <ele>1996</ele>
        <time>2014-03-15T12:57:21Z</time>
      </trkpt>
      <trkpt lat="42.80823" lon="-0.13663">
        <ele>1996</ele>
        <time>2014-03-15T12:57:23Z</time>
      </trkpt>
      <trkpt lat="42.8082" lon="-0.13664">
        <ele>1996</ele>
        <time>2014-03-15T12:57:25Z</time>
      </trkpt>
      <trkpt lat="42.80806" lon="-0.13667">
        <ele>1999</ele>
        <time>2014-03-15T12:57:37Z</time>
      </trkpt>
      <trkpt lat="42.80805" lon="-0.13667">
        <ele>1999</ele>
        <time>2014-03-15T12:57:38Z</time>
      </trkpt>
      <trkpt lat="42.80804" lon="-0.13668">
        <ele>2000</ele>
        <time>2014-03-15T12:57:39Z</time>
      </trkpt>
      <trkpt lat="42.80803" lon="-0.13668">
        <ele>2000</ele>
        <time>2014-03-15T12:57:40Z</time>
      </trkpt>
      <trkpt lat="42.80798" lon="-0.13667">
        <ele>2000</ele>
        <time>2014-03-15T12:57:45Z</time>
      </trkpt>
      <trkpt lat="42.80798" lon="-0.13665">
        <ele>1996</ele>
        <time>2014-03-15T12:57:46Z</time>
      </trkpt>
      <trkpt lat="42.80799" lon="-0.13671">
        <ele>2000</ele>
        <time>2014-03-15T12:57:57Z</time>
      </trkpt>
      <trkpt lat="42.80801" lon="-0.13671">
        <ele>2000</ele>
        <time>2014-03-15T12:57:58Z</time>
      </trkpt>
      <trkpt lat="42.80799" lon="-0.13669">
        <ele>2000</ele>
        <time>2014-03-15T12:58:08Z</time>
      </trkpt>
      <trkpt lat="42.80798" lon="-0.13669">
        <ele>2000</ele>
        <time>2014-03-15T12:58:09Z</time>
      </trkpt>
      <trkpt lat="42.80798" lon="-0.1367">
        <ele>2000</ele>
        <time>2014-03-15T12:58:10Z</time>
      </trkpt>
      <trkpt lat="42.80796" lon="-0.13671">
        <ele>2000</ele>
        <time>2014-03-15T12:58:13Z</time>
      </trkpt>
      <trkpt lat="42.80796" lon="-0.13672">
        <ele>2000</ele>
        <time>2014-03-15T12:58:14Z</time>
      </trkpt>
      <trkpt lat="42.80796" lon="-0.13673">
        <ele>2000</ele>
        <time>2014-03-15T12:58:16Z</time>
      </trkpt>
      <trkpt lat="42.80795" lon="-0.13677">
        <ele>2000</ele>
        <time>2014-03-15T12:58:22Z</time>
      </trkpt>
      <trkpt lat="42.80794" lon="-0.13679">
        <ele>2000</ele>
        <time>2014-03-15T12:58:24Z</time>
      </trkpt>
      <trkpt lat="42.80793" lon="-0.13676">
        <ele>2000</ele>
        <time>2014-03-15T12:59:22Z</time>
      </trkpt>
      <trkpt lat="42.80795" lon="-0.13677">
        <ele>2000</ele>
        <time>2014-03-15T12:59:53Z</time>
      </trkpt>
      <trkpt lat="42.80789" lon="-0.1368">
        <ele>2000</ele>
        <time>2014-03-15T13:00:20Z</time>
      </trkpt>
      <trkpt lat="42.80789" lon="-0.13677">
        <ele>2000</ele>
        <time>2014-03-15T13:00:50Z</time>
      </trkpt>
      <trkpt lat="42.80787" lon="-0.13676">
        <ele>2000</ele>
        <time>2014-03-15T13:01:12Z</time>
      </trkpt>
      <trkpt lat="42.80785" lon="-0.13676">
        <ele>2000</ele>
        <time>2014-03-15T13:01:14Z</time>
      </trkpt>
      <trkpt lat="42.80776" lon="-0.13672">
        <ele>1999</ele>
        <time>2014-03-15T13:01:23Z</time>
      </trkpt>
      <trkpt lat="42.80775" lon="-0.1367">
        <ele>1999</ele>
        <time>2014-03-15T13:01:25Z</time>
      </trkpt>
      <trkpt lat="42.80773" lon="-0.13669">
        <ele>1999</ele>
        <time>2014-03-15T13:01:28Z</time>
      </trkpt>
      <trkpt lat="42.80766" lon="-0.13674">
        <ele>1998</ele>
        <time>2014-03-15T13:01:32Z</time>
      </trkpt>
      <trkpt lat="42.80765" lon="-0.13673">
        <ele>1998</ele>
        <time>2014-03-15T13:01:33Z</time>
      </trkpt>
      <trkpt lat="42.80761" lon="-0.13674">
        <ele>1998</ele>
        <time>2014-03-15T13:01:37Z</time>
      </trkpt>
      <trkpt lat="42.80759" lon="-0.13675">
        <ele>1998</ele>
        <time>2014-03-15T13:01:38Z</time>
      </trkpt>
      <trkpt lat="42.80754" lon="-0.13685">
        <ele>1999</ele>
        <time>2014-03-15T13:01:42Z</time>
      </trkpt>
      <trkpt lat="42.80752" lon="-0.13687">
        <ele>2000</ele>
        <time>2014-03-15T13:01:43Z</time>
      </trkpt>
      <trkpt lat="42.80746" lon="-0.13688">
        <ele>1999</ele>
        <time>2014-03-15T13:01:47Z</time>
      </trkpt>
      <trkpt lat="42.80743" lon="-0.13692">
        <ele>2000</ele>
        <time>2014-03-15T13:01:48Z</time>
      </trkpt>
      <trkpt lat="42.80731" lon="-0.13692">
        <ele>2000</ele>
        <time>2014-03-15T13:01:55Z</time>
      </trkpt>
      <trkpt lat="42.80731" lon="-0.13689">
        <ele>2000</ele>
        <time>2014-03-15T13:01:57Z</time>
      </trkpt>
      <trkpt lat="42.8073" lon="-0.13689">
        <ele>2000</ele>
        <time>2014-03-15T13:01:58Z</time>
      </trkpt>
      <trkpt lat="42.80731" lon="-0.13683">
        <ele>1999</ele>
        <time>2014-03-15T13:02:02Z</time>
      </trkpt>
      <trkpt lat="42.80728" lon="-0.13687">
        <ele>2000</ele>
        <time>2014-03-15T13:02:04Z</time>
      </trkpt>
      <trkpt lat="42.80724" lon="-0.13668">
        <ele>1998</ele>
        <time>2014-03-15T13:02:13Z</time>
      </trkpt>
      <trkpt lat="42.80723" lon="-0.13675">
        <ele>1999</ele>
        <time>2014-03-15T13:02:14Z</time>
      </trkpt>
      <trkpt lat="42.80704" lon="-0.13678">
        <ele>1999</ele>
        <time>2014-03-15T13:02:30Z</time>
      </trkpt>
      <trkpt lat="42.80703" lon="-0.13677">
        <ele>1999</ele>
        <time>2014-03-15T13:02:31Z</time>
      </trkpt>
      <trkpt lat="42.80699" lon="-0.1368">
        <ele>1999</ele>
        <time>2014-03-15T13:02:35Z</time>
      </trkpt>
      <trkpt lat="42.80698" lon="-0.13682">
        <ele>1999</ele>
        <time>2014-03-15T13:02:36Z</time>
      </trkpt>
      <trkpt lat="42.80697" lon="-0.13682">
        <ele>1999</ele>
        <time>2014-03-15T13:02:37Z</time>
      </trkpt>
      <trkpt lat="42.80695" lon="-0.13682">
        <ele>1999</ele>
        <time>2014-03-15T13:02:42Z</time>
      </trkpt>
      <trkpt lat="42.80694" lon="-0.13681">
        <ele>1998</ele>
        <time>2014-03-15T13:02:43Z</time>
      </trkpt>
      <trkpt lat="42.8069" lon="-0.13686">
        <ele>1999</ele>
        <time>2014-03-15T13:02:49Z</time>
      </trkpt>
      <trkpt lat="42.80686" lon="-0.1369">
        <ele>1999</ele>
        <time>2014-03-15T13:02:51Z</time>
      </trkpt>
      <trkpt lat="42.80685" lon="-0.13691">
        <ele>1999</ele>
        <time>2014-03-15T13:02:52Z</time>
      </trkpt>
      <trkpt lat="42.80681" lon="-0.13691">
        <ele>1999</ele>
        <time>2014-03-15T13:02:56Z</time>
      </trkpt>
      <trkpt lat="42.8067" lon="-0.13693">
        <ele>1998</ele>
        <time>2014-03-15T13:03:06Z</time>
      </trkpt>
      <trkpt lat="42.80669" lon="-0.13694">
        <ele>1999</ele>
        <time>2014-03-15T13:03:07Z</time>
      </trkpt>
      <trkpt lat="42.80668" lon="-0.13695">
        <ele>1999</ele>
        <time>2014-03-15T13:03:08Z</time>
      </trkpt>
      <trkpt lat="42.80667" lon="-0.13694">
        <ele>1999</ele>
        <time>2014-03-15T13:03:10Z</time>
      </trkpt>
      <trkpt lat="42.80666" lon="-0.13693">
        <ele>1999</ele>
        <time>2014-03-15T13:03:11Z</time>
      </trkpt>
      <trkpt lat="42.80644" lon="-0.13706">
        <ele>2002</ele>
        <time>2014-03-15T13:03:29Z</time>
      </trkpt>
      <trkpt lat="42.80643" lon="-0.13707">
        <ele>2002</ele>
        <time>2014-03-15T13:03:32Z</time>
      </trkpt>
      <trkpt lat="42.80643" lon="-0.13705">
        <ele>2002</ele>
        <time>2014-03-15T13:03:33Z</time>
      </trkpt>
      <trkpt lat="42.80642" lon="-0.13705">
        <ele>2002</ele>
        <time>2014-03-15T13:03:34Z</time>
      </trkpt>
      <trkpt lat="42.80628" lon="-0.13699">
        <ele>2002</ele>
        <time>2014-03-15T13:03:49Z</time>
      </trkpt>
      <trkpt lat="42.80627" lon="-0.13699">
        <ele>2002</ele>
        <time>2014-03-15T13:03:50Z</time>
      </trkpt>
      <trkpt lat="42.80626" lon="-0.13699">
        <ele>2002</ele>
        <time>2014-03-15T13:03:53Z</time>
      </trkpt>
      <trkpt lat="42.80625" lon="-0.13699">
        <ele>2002</ele>
        <time>2014-03-15T13:03:54Z</time>
      </trkpt>
      <trkpt lat="42.80613" lon="-0.13704">
        <ele>2003</ele>
        <time>2014-03-15T13:04:04Z</time>
      </trkpt>
      <trkpt lat="42.80607" lon="-0.13706">
        <ele>2003</ele>
        <time>2014-03-15T13:04:10Z</time>
      </trkpt>
      <trkpt lat="42.80607" lon="-0.13705">
        <ele>2003</ele>
        <time>2014-03-15T13:04:11Z</time>
      </trkpt>
      <trkpt lat="42.80606" lon="-0.13704">
        <ele>2003</ele>
        <time>2014-03-15T13:04:12Z</time>
      </trkpt>
      <trkpt lat="42.80604" lon="-0.13701">
        <ele>2003</ele>
        <time>2014-03-15T13:04:13Z</time>
      </trkpt>
      <trkpt lat="42.80596" lon="-0.13701">
        <ele>2003</ele>
        <time>2014-03-15T13:04:22Z</time>
      </trkpt>
      <trkpt lat="42.80593" lon="-0.137">
        <ele>2003</ele>
        <time>2014-03-15T13:04:31Z</time>
      </trkpt>
      <trkpt lat="42.80591" lon="-0.13703">
        <ele>2003</ele>
        <time>2014-03-15T13:04:33Z</time>
      </trkpt>
      <trkpt lat="42.8059" lon="-0.13703">
        <ele>2003</ele>
        <time>2014-03-15T13:04:34Z</time>
      </trkpt>
      <trkpt lat="42.80582" lon="-0.13704">
        <ele>2013</ele>
        <time>2014-03-15T13:04:42Z</time>
      </trkpt>
      <trkpt lat="42.8058" lon="-0.13707">
        <ele>2014</ele>
        <time>2014-03-15T13:04:44Z</time>
      </trkpt>
      <trkpt lat="42.8058" lon="-0.13708">
        <ele>2014</ele>
        <time>2014-03-15T13:04:45Z</time>
      </trkpt>
      <trkpt lat="42.80569" lon="-0.13708">
        <ele>2014</ele>
        <time>2014-03-15T13:04:56Z</time>
      </trkpt>
      <trkpt lat="42.80567" lon="-0.13708">
        <ele>2015</ele>
        <time>2014-03-15T13:04:59Z</time>
      </trkpt>
      <trkpt lat="42.80564" lon="-0.13707">
        <ele>2015</ele>
        <time>2014-03-15T13:05:02Z</time>
      </trkpt>
      <trkpt lat="42.80562" lon="-0.13708">
        <ele>2015</ele>
        <time>2014-03-15T13:05:04Z</time>
      </trkpt>
      <trkpt lat="42.80561" lon="-0.13706">
        <ele>2015</ele>
        <time>2014-03-15T13:05:05Z</time>
      </trkpt>
      <trkpt lat="42.80559" lon="-0.13707">
        <ele>2016</ele>
        <time>2014-03-15T13:05:06Z</time>
      </trkpt>
      <trkpt lat="42.80554" lon="-0.13709">
        <ele>2016</ele>
        <time>2014-03-15T13:05:10Z</time>
      </trkpt>
      <trkpt lat="42.80554" lon="-0.13707">
        <ele>2016</ele>
        <time>2014-03-15T13:05:11Z</time>
      </trkpt>
      <trkpt lat="42.80547" lon="-0.13706">
        <ele>2017</ele>
        <time>2014-03-15T13:05:19Z</time>
      </trkpt>
      <trkpt lat="42.80546" lon="-0.13706">
        <ele>2018</ele>
        <time>2014-03-15T13:05:20Z</time>
      </trkpt>
      <trkpt lat="42.80542" lon="-0.13708">
        <ele>2018</ele>
        <time>2014-03-15T13:05:26Z</time>
      </trkpt>
      <trkpt lat="42.80532" lon="-0.13705">
        <ele>2020</ele>
        <time>2014-03-15T13:05:38Z</time>
      </trkpt>
      <trkpt lat="42.80523" lon="-0.13706">
        <ele>2021</ele>
        <time>2014-03-15T13:05:53Z</time>
      </trkpt>
      <trkpt lat="42.80519" lon="-0.13708">
        <ele>2021</ele>
        <time>2014-03-15T13:05:58Z</time>
      </trkpt>
      <trkpt lat="42.80508" lon="-0.13709">
        <ele>2023</ele>
        <time>2014-03-15T13:06:10Z</time>
      </trkpt>
      <trkpt lat="42.80504" lon="-0.13707">
        <ele>2023</ele>
        <time>2014-03-15T13:06:23Z</time>
      </trkpt>
      <trkpt lat="42.80503" lon="-0.13719">
        <ele>2023</ele>
        <time>2014-03-15T13:06:30Z</time>
      </trkpt>
      <trkpt lat="42.80495" lon="-0.13726">
        <ele>2035</ele>
        <time>2014-03-15T13:07:12Z</time>
      </trkpt>
      <trkpt lat="42.80488" lon="-0.1373">
        <ele>2035</ele>
        <time>2014-03-15T13:07:53Z</time>
      </trkpt>
      <trkpt lat="42.80487" lon="-0.13731">
        <ele>2035</ele>
        <time>2014-03-15T13:07:57Z</time>
      </trkpt>
      <trkpt lat="42.80472" lon="-0.13727">
        <ele>2037</ele>
        <time>2014-03-15T13:08:35Z</time>
      </trkpt>
      <trkpt lat="42.80471" lon="-0.13726">
        <ele>2037</ele>
        <time>2014-03-15T13:08:36Z</time>
      </trkpt>
      <trkpt lat="42.80463" lon="-0.13721">
        <ele>2038</ele>
        <time>2014-03-15T13:08:50Z</time>
      </trkpt>
      <trkpt lat="42.80456" lon="-0.13719">
        <ele>2039</ele>
        <time>2014-03-15T13:09:01Z</time>
      </trkpt>
      <trkpt lat="42.80454" lon="-0.13721">
        <ele>2039</ele>
        <time>2014-03-15T13:09:07Z</time>
      </trkpt>
      <trkpt lat="42.80449" lon="-0.13732">
        <ele>2040</ele>
        <time>2014-03-15T13:09:39Z</time>
      </trkpt>
      <trkpt lat="42.80444" lon="-0.13718">
        <ele>2040</ele>
        <time>2014-03-15T13:09:56Z</time>
      </trkpt>
      <trkpt lat="42.80443" lon="-0.13717">
        <ele>2040</ele>
        <time>2014-03-15T13:09:59Z</time>
      </trkpt>
      <trkpt lat="42.80432" lon="-0.13725">
        <ele>2041</ele>
        <time>2014-03-15T13:10:16Z</time>
      </trkpt>
      <trkpt lat="42.80423" lon="-0.13733">
        <ele>2042</ele>
        <time>2014-03-15T13:10:32Z</time>
      </trkpt>
      <trkpt lat="42.80421" lon="-0.13734">
        <ele>2043</ele>
        <time>2014-03-15T13:10:45Z</time>
      </trkpt>
      <trkpt lat="42.80421" lon="-0.13736">
        <ele>2043</ele>
        <time>2014-03-15T13:10:50Z</time>
      </trkpt>
      <trkpt lat="42.80421" lon="-0.13738">
        <ele>2043</ele>
        <time>2014-03-15T13:10:52Z</time>
      </trkpt>
      <trkpt lat="42.80412" lon="-0.13751">
        <ele>2048</ele>
        <time>2014-03-15T13:11:21Z</time>
      </trkpt>
      <trkpt lat="42.80392" lon="-0.13756">
        <ele>2053</ele>
        <time>2014-03-15T13:11:54Z</time>
      </trkpt>
      <trkpt lat="42.80391" lon="-0.13757">
        <ele>2053</ele>
        <time>2014-03-15T13:11:55Z</time>
      </trkpt>
      <trkpt lat="42.80383" lon="-0.13761">
        <ele>2054</ele>
        <time>2014-03-15T13:12:03Z</time>
      </trkpt>
      <trkpt lat="42.80379" lon="-0.13762">
        <ele>2054</ele>
        <time>2014-03-15T13:12:07Z</time>
      </trkpt>
      <trkpt lat="42.80366" lon="-0.13772">
        <ele>2055</ele>
        <time>2014-03-15T13:12:19Z</time>
      </trkpt>
      <trkpt lat="42.80345" lon="-0.13778">
        <ele>2056</ele>
        <time>2014-03-15T13:12:35Z</time>
      </trkpt>
      <trkpt lat="42.80343" lon="-0.13776">
        <ele>2055</ele>
        <time>2014-03-15T13:12:36Z</time>
      </trkpt>
      <trkpt lat="42.80334" lon="-0.13779">
        <ele>2056</ele>
        <time>2014-03-15T13:12:49Z</time>
      </trkpt>
      <trkpt lat="42.8033" lon="-0.13781">
        <ele>2056</ele>
        <time>2014-03-15T13:12:54Z</time>
      </trkpt>
      <trkpt lat="42.80316" lon="-0.13786">
        <ele>2056</ele>
        <time>2014-03-15T13:13:07Z</time>
      </trkpt>
      <trkpt lat="42.80315" lon="-0.13783">
        <ele>2056</ele>
        <time>2014-03-15T13:13:08Z</time>
      </trkpt>
      <trkpt lat="42.80311" lon="-0.13782">
        <ele>2056</ele>
        <time>2014-03-15T13:13:14Z</time>
      </trkpt>
      <trkpt lat="42.80302" lon="-0.13793">
        <ele>2057</ele>
        <time>2014-03-15T13:13:42Z</time>
      </trkpt>
      <trkpt lat="42.80291" lon="-0.13785">
        <ele>2056</ele>
        <time>2014-03-15T13:15:39Z</time>
      </trkpt>
      <trkpt lat="42.80284" lon="-0.13791">
        <ele>2056</ele>
        <time>2014-03-15T13:16:22Z</time>
      </trkpt>
      <trkpt lat="42.80274" lon="-0.13806">
        <ele>2057</ele>
        <time>2014-03-15T13:17:23Z</time>
      </trkpt>
      <trkpt lat="42.80251" lon="-0.13825">
        <ele>2056</ele>
        <time>2014-03-15T13:17:39Z</time>
      </trkpt>
      <trkpt lat="42.8025" lon="-0.13825">
        <ele>2056</ele>
        <time>2014-03-15T13:17:40Z</time>
      </trkpt>
      <trkpt lat="42.80246" lon="-0.13827">
        <ele>2056</ele>
        <time>2014-03-15T13:17:42Z</time>
      </trkpt>
      <trkpt lat="42.8023" lon="-0.13838">
        <ele>2059</ele>
        <time>2014-03-15T13:17:54Z</time>
      </trkpt>
      <trkpt lat="42.80229" lon="-0.13839">
        <ele>2059</ele>
        <time>2014-03-15T13:17:55Z</time>
      </trkpt>
      <trkpt lat="42.80228" lon="-0.13839">
        <ele>2059</ele>
        <time>2014-03-15T13:17:56Z</time>
      </trkpt>
      <trkpt lat="42.80228" lon="-0.1384">
        <ele>2060</ele>
        <time>2014-03-15T13:17:57Z</time>
      </trkpt>
      <trkpt lat="42.80228" lon="-0.13834">
        <ele>2059</ele>
        <time>2014-03-15T13:18:00Z</time>
      </trkpt>
      <trkpt lat="42.80226" lon="-0.13836">
        <ele>2059</ele>
        <time>2014-03-15T13:18:02Z</time>
      </trkpt>
      <trkpt lat="42.80225" lon="-0.13836">
        <ele>2060</ele>
        <time>2014-03-15T13:18:03Z</time>
      </trkpt>
      <trkpt lat="42.80209" lon="-0.13845">
        <ele>2060</ele>
        <time>2014-03-15T13:18:19Z</time>
      </trkpt>
      <trkpt lat="42.80185" lon="-0.13849">
        <ele>2059</ele>
        <time>2014-03-15T13:18:41Z</time>
      </trkpt>
      <trkpt lat="42.80173" lon="-0.13852">
        <ele>2059</ele>
        <time>2014-03-15T13:18:51Z</time>
      </trkpt>
      <trkpt lat="42.80166" lon="-0.13849">
        <ele>2056</ele>
        <time>2014-03-15T13:19:01Z</time>
      </trkpt>
      <trkpt lat="42.80165" lon="-0.13849">
        <ele>2056</ele>
        <time>2014-03-15T13:19:02Z</time>
      </trkpt>
      <trkpt lat="42.8016" lon="-0.13835">
        <ele>2055</ele>
        <time>2014-03-15T13:19:10Z</time>
      </trkpt>
      <trkpt lat="42.80146" lon="-0.13823">
        <ele>2055</ele>
        <time>2014-03-15T13:19:23Z</time>
      </trkpt>
      <trkpt lat="42.80144" lon="-0.13824">
        <ele>2055</ele>
        <time>2014-03-15T13:19:25Z</time>
      </trkpt>
      <trkpt lat="42.80138" lon="-0.13829">
        <ele>2055</ele>
        <time>2014-03-15T13:19:30Z</time>
      </trkpt>
      <trkpt lat="42.80135" lon="-0.1383">
        <ele>2055</ele>
        <time>2014-03-15T13:19:34Z</time>
      </trkpt>
      <trkpt lat="42.80133" lon="-0.13832">
        <ele>2055</ele>
        <time>2014-03-15T13:19:35Z</time>
      </trkpt>
      <trkpt lat="42.8013" lon="-0.13835">
        <ele>2057</ele>
        <time>2014-03-15T13:19:39Z</time>
      </trkpt>
      <trkpt lat="42.80129" lon="-0.13835">
        <ele>2057</ele>
        <time>2014-03-15T13:19:40Z</time>
      </trkpt>
      <trkpt lat="42.80128" lon="-0.13836">
        <ele>2057</ele>
        <time>2014-03-15T13:19:41Z</time>
      </trkpt>
      <trkpt lat="42.80127" lon="-0.13837">
        <ele>2057</ele>
        <time>2014-03-15T13:19:42Z</time>
      </trkpt>
      <trkpt lat="42.80123" lon="-0.13839">
        <ele>2057</ele>
        <time>2014-03-15T13:19:45Z</time>
      </trkpt>
      <trkpt lat="42.80122" lon="-0.13841">
        <ele>2057</ele>
        <time>2014-03-15T13:19:46Z</time>
      </trkpt>
      <trkpt lat="42.80115" lon="-0.13845">
        <ele>2057</ele>
        <time>2014-03-15T13:19:51Z</time>
      </trkpt>
      <trkpt lat="42.80114" lon="-0.13845">
        <ele>2057</ele>
        <time>2014-03-15T13:19:52Z</time>
      </trkpt>
      <trkpt lat="42.80114" lon="-0.13844">
        <ele>2057</ele>
        <time>2014-03-15T13:19:53Z</time>
      </trkpt>
      <trkpt lat="42.80113" lon="-0.13844">
        <ele>2057</ele>
        <time>2014-03-15T13:19:54Z</time>
      </trkpt>
      <trkpt lat="42.8011" lon="-0.13847">
        <ele>2057</ele>
        <time>2014-03-15T13:19:56Z</time>
      </trkpt>
      <trkpt lat="42.80102" lon="-0.13848">
        <ele>2056</ele>
        <time>2014-03-15T13:20:05Z</time>
      </trkpt>
      <trkpt lat="42.80102" lon="-0.13847">
        <ele>2056</ele>
        <time>2014-03-15T13:20:06Z</time>
      </trkpt>
      <trkpt lat="42.80099" lon="-0.13849">
        <ele>2056</ele>
        <time>2014-03-15T13:20:08Z</time>
      </trkpt>
      <trkpt lat="42.80089" lon="-0.13854">
        <ele>2056</ele>
        <time>2014-03-15T13:20:16Z</time>
      </trkpt>
      <trkpt lat="42.80081" lon="-0.13856">
        <ele>2056</ele>
        <time>2014-03-15T13:20:22Z</time>
      </trkpt>
      <trkpt lat="42.80079" lon="-0.13857">
        <ele>2056</ele>
        <time>2014-03-15T13:20:23Z</time>
      </trkpt>
      <trkpt lat="42.80075" lon="-0.13864">
        <ele>2056</ele>
        <time>2014-03-15T13:20:28Z</time>
      </trkpt>
      <trkpt lat="42.80074" lon="-0.13864">
        <ele>2056</ele>
        <time>2014-03-15T13:20:29Z</time>
      </trkpt>
      <trkpt lat="42.8007" lon="-0.13869">
        <ele>2057</ele>
        <time>2014-03-15T13:20:33Z</time>
      </trkpt>
      <trkpt lat="42.80064" lon="-0.1387">
        <ele>2057</ele>
        <time>2014-03-15T13:20:41Z</time>
      </trkpt>
      <trkpt lat="42.80063" lon="-0.13871">
        <ele>2057</ele>
        <time>2014-03-15T13:20:42Z</time>
      </trkpt>
      <trkpt lat="42.80058" lon="-0.13867">
        <ele>2057</ele>
        <time>2014-03-15T13:20:47Z</time>
      </trkpt>
      <trkpt lat="42.80057" lon="-0.13868">
        <ele>2057</ele>
        <time>2014-03-15T13:20:48Z</time>
      </trkpt>
      <trkpt lat="42.80056" lon="-0.13868">
        <ele>2057</ele>
        <time>2014-03-15T13:20:49Z</time>
      </trkpt>
      <trkpt lat="42.80054" lon="-0.13869">
        <ele>2057</ele>
        <time>2014-03-15T13:20:51Z</time>
      </trkpt>
      <trkpt lat="42.80053" lon="-0.13869">
        <ele>2057</ele>
        <time>2014-03-15T13:20:52Z</time>
      </trkpt>
      <trkpt lat="42.80052" lon="-0.1387">
        <ele>2057</ele>
        <time>2014-03-15T13:20:53Z</time>
      </trkpt>
      <trkpt lat="42.8005" lon="-0.1387">
        <ele>2057</ele>
        <time>2014-03-15T13:20:55Z</time>
      </trkpt>
      <trkpt lat="42.8005" lon="-0.13871">
        <ele>2057</ele>
        <time>2014-03-15T13:20:56Z</time>
      </trkpt>
      <trkpt lat="42.80046" lon="-0.1387">
        <ele>2057</ele>
        <time>2014-03-15T13:20:59Z</time>
      </trkpt>
      <trkpt lat="42.80045" lon="-0.13873">
        <ele>2057</ele>
        <time>2014-03-15T13:21:01Z</time>
      </trkpt>
      <trkpt lat="42.80044" lon="-0.13874">
        <ele>2057</ele>
        <time>2014-03-15T13:21:03Z</time>
      </trkpt>
      <trkpt lat="42.80039" lon="-0.13871">
        <ele>2057</ele>
        <time>2014-03-15T13:21:06Z</time>
      </trkpt>
      <trkpt lat="42.80035" lon="-0.13869">
        <ele>2057</ele>
        <time>2014-03-15T13:21:09Z</time>
      </trkpt>
      <trkpt lat="42.80035" lon="-0.1387">
        <ele>2057</ele>
        <time>2014-03-15T13:21:10Z</time>
      </trkpt>
      <trkpt lat="42.80034" lon="-0.1387">
        <ele>2057</ele>
        <time>2014-03-15T13:21:12Z</time>
      </trkpt>
      <trkpt lat="42.80032" lon="-0.13871">
        <ele>2057</ele>
        <time>2014-03-15T13:21:14Z</time>
      </trkpt>
      <trkpt lat="42.80028" lon="-0.13873">
        <ele>2057</ele>
        <time>2014-03-15T13:21:17Z</time>
      </trkpt>
      <trkpt lat="42.80027" lon="-0.13875">
        <ele>2057</ele>
        <time>2014-03-15T13:21:18Z</time>
      </trkpt>
      <trkpt lat="42.80026" lon="-0.13875">
        <ele>2057</ele>
        <time>2014-03-15T13:21:19Z</time>
      </trkpt>
      <trkpt lat="42.80021" lon="-0.13878">
        <ele>2057</ele>
        <time>2014-03-15T13:21:23Z</time>
      </trkpt>
      <trkpt lat="42.80018" lon="-0.1388">
        <ele>2057</ele>
        <time>2014-03-15T13:21:25Z</time>
      </trkpt>
      <trkpt lat="42.80017" lon="-0.13879">
        <ele>2057</ele>
        <time>2014-03-15T13:21:26Z</time>
      </trkpt>
      <trkpt lat="42.80016" lon="-0.13879">
        <ele>2057</ele>
        <time>2014-03-15T13:21:27Z</time>
      </trkpt>
      <trkpt lat="42.80013" lon="-0.13879">
        <ele>2057</ele>
        <time>2014-03-15T13:21:29Z</time>
      </trkpt>
      <trkpt lat="42.80011" lon="-0.13878">
        <ele>2057</ele>
        <time>2014-03-15T13:21:30Z</time>
      </trkpt>
      <trkpt lat="42.80007" lon="-0.13875">
        <ele>2058</ele>
        <time>2014-03-15T13:21:35Z</time>
      </trkpt>
      <trkpt lat="42.80007" lon="-0.13876">
        <ele>2058</ele>
        <time>2014-03-15T13:21:36Z</time>
      </trkpt>
      <trkpt lat="42.80005" lon="-0.13878">
        <ele>2057</ele>
        <time>2014-03-15T13:21:37Z</time>
      </trkpt>
      <trkpt lat="42.80004" lon="-0.13878">
        <ele>2057</ele>
        <time>2014-03-15T13:21:38Z</time>
      </trkpt>
      <trkpt lat="42.80003" lon="-0.13879">
        <ele>2057</ele>
        <time>2014-03-15T13:21:39Z</time>
      </trkpt>
      <trkpt lat="42.80002" lon="-0.13879">
        <ele>2057</ele>
        <time>2014-03-15T13:21:40Z</time>
      </trkpt>
      <trkpt lat="42.79999" lon="-0.13878">
        <ele>2059</ele>
        <time>2014-03-15T13:21:42Z</time>
      </trkpt>
      <trkpt lat="42.79991" lon="-0.1388">
        <ele>2059</ele>
        <time>2014-03-15T13:21:50Z</time>
      </trkpt>
      <trkpt lat="42.7999" lon="-0.13884">
        <ele>2059</ele>
        <time>2014-03-15T13:21:53Z</time>
      </trkpt>
      <trkpt lat="42.79989" lon="-0.13883">
        <ele>2059</ele>
        <time>2014-03-15T13:21:54Z</time>
      </trkpt>
      <trkpt lat="42.79972" lon="-0.13889">
        <ele>2060</ele>
        <time>2014-03-15T13:22:07Z</time>
      </trkpt>
      <trkpt lat="42.7997" lon="-0.13889">
        <ele>2060</ele>
        <time>2014-03-15T13:22:09Z</time>
      </trkpt>
      <trkpt lat="42.79965" lon="-0.13891">
        <ele>2060</ele>
        <time>2014-03-15T13:22:13Z</time>
      </trkpt>
      <trkpt lat="42.79964" lon="-0.13893">
        <ele>2060</ele>
        <time>2014-03-15T13:22:14Z</time>
      </trkpt>
      <trkpt lat="42.79963" lon="-0.13893">
        <ele>2060</ele>
        <time>2014-03-15T13:22:15Z</time>
      </trkpt>
      <trkpt lat="42.79959" lon="-0.13897">
        <ele>2060</ele>
        <time>2014-03-15T13:22:19Z</time>
      </trkpt>
      <trkpt lat="42.79958" lon="-0.13897">
        <ele>2060</ele>
        <time>2014-03-15T13:22:20Z</time>
      </trkpt>
      <trkpt lat="42.79956" lon="-0.13898">
        <ele>2060</ele>
        <time>2014-03-15T13:22:22Z</time>
      </trkpt>
      <trkpt lat="42.79955" lon="-0.13898">
        <ele>2060</ele>
        <time>2014-03-15T13:22:24Z</time>
      </trkpt>
      <trkpt lat="42.79955" lon="-0.13899">
        <ele>2060</ele>
        <time>2014-03-15T13:22:25Z</time>
      </trkpt>
      <trkpt lat="42.79947" lon="-0.13904">
        <ele>2061</ele>
        <time>2014-03-15T13:22:31Z</time>
      </trkpt>
      <trkpt lat="42.79946" lon="-0.13904">
        <ele>2061</ele>
        <time>2014-03-15T13:22:32Z</time>
      </trkpt>
      <trkpt lat="42.79945" lon="-0.13904">
        <ele>2061</ele>
        <time>2014-03-15T13:22:33Z</time>
      </trkpt>
      <trkpt lat="42.79947" lon="-0.13902">
        <ele>2061</ele>
        <time>2014-03-15T13:22:34Z</time>
      </trkpt>
      <trkpt lat="42.79946" lon="-0.13902">
        <ele>2061</ele>
        <time>2014-03-15T13:22:36Z</time>
      </trkpt>
      <trkpt lat="42.79945" lon="-0.13902">
        <ele>2061</ele>
        <time>2014-03-15T13:22:37Z</time>
      </trkpt>
      <trkpt lat="42.79942" lon="-0.13899">
        <ele>2061</ele>
        <time>2014-03-15T13:22:40Z</time>
      </trkpt>
      <trkpt lat="42.7994" lon="-0.139">
        <ele>2061</ele>
        <time>2014-03-15T13:22:42Z</time>
      </trkpt>
      <trkpt lat="42.79939" lon="-0.139">
        <ele>2061</ele>
        <time>2014-03-15T13:22:43Z</time>
      </trkpt>
      <trkpt lat="42.79926" lon="-0.13906">
        <ele>2062</ele>
        <time>2014-03-15T13:22:56Z</time>
      </trkpt>
      <trkpt lat="42.79924" lon="-0.13908">
        <ele>2063</ele>
        <time>2014-03-15T13:22:58Z</time>
      </trkpt>
      <trkpt lat="42.79921" lon="-0.13911">
        <ele>2063</ele>
        <time>2014-03-15T13:23:01Z</time>
      </trkpt>
      <trkpt lat="42.79912" lon="-0.1391">
        <ele>2065</ele>
        <time>2014-03-15T13:23:07Z</time>
      </trkpt>
      <trkpt lat="42.79907" lon="-0.13912">
        <ele>2066</ele>
        <time>2014-03-15T13:23:12Z</time>
      </trkpt>
      <trkpt lat="42.79905" lon="-0.13911">
        <ele>2066</ele>
        <time>2014-03-15T13:23:14Z</time>
      </trkpt>
      <trkpt lat="42.79903" lon="-0.13912">
        <ele>2066</ele>
        <time>2014-03-15T13:23:16Z</time>
      </trkpt>
      <trkpt lat="42.79897" lon="-0.13914">
        <ele>2066</ele>
        <time>2014-03-15T13:23:22Z</time>
      </trkpt>
      <trkpt lat="42.79896" lon="-0.13914">
        <ele>2066</ele>
        <time>2014-03-15T13:23:23Z</time>
      </trkpt>
      <trkpt lat="42.79894" lon="-0.13914">
        <ele>2067</ele>
        <time>2014-03-15T13:23:24Z</time>
      </trkpt>
      <trkpt lat="42.79883" lon="-0.13919">
        <ele>2067</ele>
        <time>2014-03-15T13:23:36Z</time>
      </trkpt>
      <trkpt lat="42.79882" lon="-0.13921">
        <ele>2067</ele>
        <time>2014-03-15T13:23:38Z</time>
      </trkpt>
      <trkpt lat="42.7988" lon="-0.13921">
        <ele>2067</ele>
        <time>2014-03-15T13:23:39Z</time>
      </trkpt>
      <trkpt lat="42.79882" lon="-0.1392">
        <ele>2067</ele>
        <time>2014-03-15T13:23:40Z</time>
      </trkpt>
      <trkpt lat="42.79876" lon="-0.13923">
        <ele>2067</ele>
        <time>2014-03-15T13:23:46Z</time>
      </trkpt>
      <trkpt lat="42.79873" lon="-0.13923">
        <ele>2067</ele>
        <time>2014-03-15T13:23:50Z</time>
      </trkpt>
      <trkpt lat="42.79871" lon="-0.13923">
        <ele>2067</ele>
        <time>2014-03-15T13:23:51Z</time>
      </trkpt>
      <trkpt lat="42.79867" lon="-0.13925">
        <ele>2067</ele>
        <time>2014-03-15T13:23:56Z</time>
      </trkpt>
      <trkpt lat="42.79864" lon="-0.13926">
        <ele>2067</ele>
        <time>2014-03-15T13:23:59Z</time>
      </trkpt>
      <trkpt lat="42.7986" lon="-0.13928">
        <ele>2068</ele>
        <time>2014-03-15T13:24:01Z</time>
      </trkpt>
      <trkpt lat="42.79859" lon="-0.13928">
        <ele>2068</ele>
        <time>2014-03-15T13:24:04Z</time>
      </trkpt>
      <trkpt lat="42.79855" lon="-0.13934">
        <ele>2068</ele>
        <time>2014-03-15T13:24:08Z</time>
      </trkpt>
      <trkpt lat="42.79851" lon="-0.13939">
        <ele>2068</ele>
        <time>2014-03-15T13:24:14Z</time>
      </trkpt>
      <trkpt lat="42.7985" lon="-0.13938">
        <ele>2068</ele>
        <time>2014-03-15T13:24:15Z</time>
      </trkpt>
      <trkpt lat="42.79848" lon="-0.13936">
        <ele>2068</ele>
        <time>2014-03-15T13:24:16Z</time>
      </trkpt>
      <trkpt lat="42.79841" lon="-0.13936">
        <ele>2068</ele>
        <time>2014-03-15T13:24:22Z</time>
      </trkpt>
      <trkpt lat="42.7984" lon="-0.13936">
        <ele>2068</ele>
        <time>2014-03-15T13:24:24Z</time>
      </trkpt>
      <trkpt lat="42.79839" lon="-0.13937">
        <ele>2068</ele>
        <time>2014-03-15T13:24:25Z</time>
      </trkpt>
      <trkpt lat="42.79838" lon="-0.13938">
        <ele>2068</ele>
        <time>2014-03-15T13:24:26Z</time>
      </trkpt>
      <trkpt lat="42.79832" lon="-0.13939">
        <ele>2071</ele>
        <time>2014-03-15T13:24:31Z</time>
      </trkpt>
      <trkpt lat="42.79831" lon="-0.13939">
        <ele>2071</ele>
        <time>2014-03-15T13:24:32Z</time>
      </trkpt>
      <trkpt lat="42.7983" lon="-0.1394">
        <ele>2071</ele>
        <time>2014-03-15T13:24:34Z</time>
      </trkpt>
      <trkpt lat="42.79827" lon="-0.13941">
        <ele>2071</ele>
        <time>2014-03-15T13:24:37Z</time>
      </trkpt>
      <trkpt lat="42.79825" lon="-0.13941">
        <ele>2071</ele>
        <time>2014-03-15T13:24:39Z</time>
      </trkpt>
      <trkpt lat="42.7982" lon="-0.13943">
        <ele>2071</ele>
        <time>2014-03-15T13:24:44Z</time>
      </trkpt>
      <trkpt lat="42.79819" lon="-0.13944">
        <ele>2072</ele>
        <time>2014-03-15T13:24:45Z</time>
      </trkpt>
      <trkpt lat="42.79812" lon="-0.13945">
        <ele>2072</ele>
        <time>2014-03-15T13:25:00Z</time>
      </trkpt>
      <trkpt lat="42.79811" lon="-0.13945">
        <ele>2072</ele>
        <time>2014-03-15T13:25:01Z</time>
      </trkpt>
      <trkpt lat="42.79806" lon="-0.13951">
        <ele>2072</ele>
        <time>2014-03-15T13:25:17Z</time>
      </trkpt>
      <trkpt lat="42.79807" lon="-0.13952">
        <ele>2072</ele>
        <time>2014-03-15T13:25:18Z</time>
      </trkpt>
      <trkpt lat="42.79808" lon="-0.13952">
        <ele>2072</ele>
        <time>2014-03-15T13:25:29Z</time>
      </trkpt>
      <trkpt lat="42.79808" lon="-0.13953">
        <ele>2072</ele>
        <time>2014-03-15T13:25:30Z</time>
      </trkpt>
      <trkpt lat="42.79807" lon="-0.13954">
        <ele>2072</ele>
        <time>2014-03-15T13:25:36Z</time>
      </trkpt>
      <trkpt lat="42.79806" lon="-0.13954">
        <ele>2072</ele>
        <time>2014-03-15T13:25:39Z</time>
      </trkpt>
      <trkpt lat="42.79803" lon="-0.13955">
        <ele>2072</ele>
        <time>2014-03-15T13:25:42Z</time>
      </trkpt>
      <trkpt lat="42.79802" lon="-0.13955">
        <ele>2072</ele>
        <time>2014-03-15T13:25:43Z</time>
      </trkpt>
      <trkpt lat="42.79797" lon="-0.13959">
        <ele>2073</ele>
        <time>2014-03-15T13:25:49Z</time>
      </trkpt>
      <trkpt lat="42.79795" lon="-0.1396">
        <ele>2073</ele>
        <time>2014-03-15T13:25:50Z</time>
      </trkpt>
      <trkpt lat="42.79794" lon="-0.13961">
        <ele>2073</ele>
        <time>2014-03-15T13:25:51Z</time>
      </trkpt>
      <trkpt lat="42.79788" lon="-0.13963">
        <ele>2073</ele>
        <time>2014-03-15T13:25:58Z</time>
      </trkpt>
      <trkpt lat="42.79787" lon="-0.13964">
        <ele>2073</ele>
        <time>2014-03-15T13:25:59Z</time>
      </trkpt>
      <trkpt lat="42.79786" lon="-0.13965">
        <ele>2073</ele>
        <time>2014-03-15T13:26:00Z</time>
      </trkpt>
      <trkpt lat="42.79785" lon="-0.13966">
        <ele>2073</ele>
        <time>2014-03-15T13:26:02Z</time>
      </trkpt>
      <trkpt lat="42.79783" lon="-0.13966">
        <ele>2073</ele>
        <time>2014-03-15T13:26:03Z</time>
      </trkpt>
      <trkpt lat="42.79771" lon="-0.13972">
        <ele>2073</ele>
        <time>2014-03-15T13:26:10Z</time>
      </trkpt>
      <trkpt lat="42.79749" lon="-0.1399">
        <ele>2075</ele>
        <time>2014-03-15T13:26:34Z</time>
      </trkpt>
      <trkpt lat="42.79746" lon="-0.13993">
        <ele>2074</ele>
        <time>2014-03-15T13:26:37Z</time>
      </trkpt>
      <trkpt lat="42.79733" lon="-0.13996">
        <ele>2076</ele>
        <time>2014-03-15T13:26:50Z</time>
      </trkpt>
      <trkpt lat="42.79722" lon="-0.14001">
        <ele>2074</ele>
        <time>2014-03-15T13:26:57Z</time>
      </trkpt>
      <trkpt lat="42.79714" lon="-0.14003">
        <ele>2075</ele>
        <time>2014-03-15T13:27:07Z</time>
      </trkpt>
      <trkpt lat="42.79708" lon="-0.14006">
        <ele>2075</ele>
        <time>2014-03-15T13:27:18Z</time>
      </trkpt>
      <trkpt lat="42.79707" lon="-0.14006">
        <ele>2075</ele>
        <time>2014-03-15T13:27:19Z</time>
      </trkpt>
      <trkpt lat="42.79706" lon="-0.14006">
        <ele>2075</ele>
        <time>2014-03-15T13:27:20Z</time>
      </trkpt>
      <trkpt lat="42.79699" lon="-0.14008">
        <ele>2076</ele>
        <time>2014-03-15T13:27:33Z</time>
      </trkpt>
      <trkpt lat="42.79682" lon="-0.14004">
        <ele>2077</ele>
        <time>2014-03-15T13:27:56Z</time>
      </trkpt>
      <trkpt lat="42.79684" lon="-0.14">
        <ele>2080</ele>
        <time>2014-03-15T13:27:57Z</time>
      </trkpt>
      <trkpt lat="42.79685" lon="-0.14001">
        <ele>2077</ele>
        <time>2014-03-15T13:27:58Z</time>
      </trkpt>
      <trkpt lat="42.79684" lon="-0.14001">
        <ele>2077</ele>
        <time>2014-03-15T13:27:59Z</time>
      </trkpt>
      <trkpt lat="42.7968" lon="-0.14">
        <ele>2079</ele>
        <time>2014-03-15T13:28:03Z</time>
      </trkpt>
      <trkpt lat="42.79671" lon="-0.13997">
        <ele>2079</ele>
        <time>2014-03-15T13:28:27Z</time>
      </trkpt>
      <trkpt lat="42.7967" lon="-0.13997">
        <ele>2079</ele>
        <time>2014-03-15T13:28:28Z</time>
      </trkpt>
      <trkpt lat="42.79669" lon="-0.13996">
        <ele>2079</ele>
        <time>2014-03-15T13:28:29Z</time>
      </trkpt>
      <trkpt lat="42.79668" lon="-0.13996">
        <ele>2079</ele>
        <time>2014-03-15T13:28:30Z</time>
      </trkpt>
      <trkpt lat="42.79665" lon="-0.13994">
        <ele>2081</ele>
        <time>2014-03-15T13:28:33Z</time>
      </trkpt>
      <trkpt lat="42.79664" lon="-0.13993">
        <ele>2081</ele>
        <time>2014-03-15T13:28:35Z</time>
      </trkpt>
      <trkpt lat="42.79662" lon="-0.13994">
        <ele>2081</ele>
        <time>2014-03-15T13:28:37Z</time>
      </trkpt>
      <trkpt lat="42.79653" lon="-0.13993">
        <ele>2083</ele>
        <time>2014-03-15T13:28:43Z</time>
      </trkpt>
      <trkpt lat="42.7965" lon="-0.13993">
        <ele>2084</ele>
        <time>2014-03-15T13:28:47Z</time>
      </trkpt>
      <trkpt lat="42.79648" lon="-0.13994">
        <ele>2084</ele>
        <time>2014-03-15T13:28:48Z</time>
      </trkpt>
      <trkpt lat="42.79642" lon="-0.13996">
        <ele>2085</ele>
        <time>2014-03-15T13:28:51Z</time>
      </trkpt>
      <trkpt lat="42.79632" lon="-0.13997">
        <ele>2086</ele>
        <time>2014-03-15T13:29:00Z</time>
      </trkpt>
      <trkpt lat="42.79628" lon="-0.13997">
        <ele>2086</ele>
        <time>2014-03-15T13:29:05Z</time>
      </trkpt>
      <trkpt lat="42.79627" lon="-0.13997">
        <ele>2086</ele>
        <time>2014-03-15T13:29:07Z</time>
      </trkpt>
      <trkpt lat="42.79626" lon="-0.13996">
        <ele>2087</ele>
        <time>2014-03-15T13:29:08Z</time>
      </trkpt>
      <trkpt lat="42.79625" lon="-0.13996">
        <ele>2087</ele>
        <time>2014-03-15T13:29:09Z</time>
      </trkpt>
      <trkpt lat="42.7961" lon="-0.13998">
        <ele>2087</ele>
        <time>2014-03-15T13:29:28Z</time>
      </trkpt>
      <trkpt lat="42.7961" lon="-0.13997">
        <ele>2087</ele>
        <time>2014-03-15T13:29:29Z</time>
      </trkpt>
      <trkpt lat="42.79609" lon="-0.13998">
        <ele>2087</ele>
        <time>2014-03-15T13:29:31Z</time>
      </trkpt>
      <trkpt lat="42.79599" lon="-0.13995">
        <ele>2087</ele>
        <time>2014-03-15T13:29:43Z</time>
      </trkpt>
      <trkpt lat="42.79598" lon="-0.13995">
        <ele>2087</ele>
        <time>2014-03-15T13:29:44Z</time>
      </trkpt>
      <trkpt lat="42.79598" lon="-0.13994">
        <ele>2086</ele>
        <time>2014-03-15T13:29:47Z</time>
      </trkpt>
      <trkpt lat="42.79599" lon="-0.14009">
        <ele>2083</ele>
        <time>2014-03-15T13:29:59Z</time>
      </trkpt>
      <trkpt lat="42.79592" lon="-0.14004">
        <ele>2084</ele>
        <time>2014-03-15T13:30:10Z</time>
      </trkpt>
      <trkpt lat="42.79579" lon="-0.13993">
        <ele>2088</ele>
        <time>2014-03-15T13:30:25Z</time>
      </trkpt>
      <trkpt lat="42.79562" lon="-0.13984">
        <ele>2095</ele>
        <time>2014-03-15T13:30:46Z</time>
      </trkpt>
      <trkpt lat="42.79561" lon="-0.13984">
        <ele>2095</ele>
        <time>2014-03-15T13:30:48Z</time>
      </trkpt>
      <trkpt lat="42.79551" lon="-0.13987">
        <ele>2096</ele>
        <time>2014-03-15T13:31:00Z</time>
      </trkpt>
      <trkpt lat="42.79528" lon="-0.13993">
        <ele>2098</ele>
        <time>2014-03-15T13:31:27Z</time>
      </trkpt>
      <trkpt lat="42.79513" lon="-0.13997">
        <ele>2097</ele>
        <time>2014-03-15T13:31:43Z</time>
      </trkpt>
      <trkpt lat="42.79507" lon="-0.14">
        <ele>2097</ele>
        <time>2014-03-15T13:31:45Z</time>
      </trkpt>
      <trkpt lat="42.79505" lon="-0.14001">
        <ele>2095</ele>
        <time>2014-03-15T13:31:47Z</time>
      </trkpt>
      <trkpt lat="42.79494" lon="-0.13999">
        <ele>2102</ele>
        <time>2014-03-15T13:32:00Z</time>
      </trkpt>
      <trkpt lat="42.79478" lon="-0.14005">
        <ele>2105</ele>
        <time>2014-03-15T13:32:19Z</time>
      </trkpt>
      <trkpt lat="42.79459" lon="-0.14013">
        <ele>2110</ele>
        <time>2014-03-15T13:32:40Z</time>
      </trkpt>
      <trkpt lat="42.79436" lon="-0.14018">
        <ele>2115</ele>
        <time>2014-03-15T13:33:02Z</time>
      </trkpt>
      <trkpt lat="42.79422" lon="-0.14025">
        <ele>2116</ele>
        <time>2014-03-15T13:33:21Z</time>
      </trkpt>
      <trkpt lat="42.79405" lon="-0.14031">
        <ele>2130</ele>
        <time>2014-03-15T13:33:42Z</time>
      </trkpt>
      <trkpt lat="42.79401" lon="-0.14031">
        <ele>2131</ele>
        <time>2014-03-15T13:33:49Z</time>
      </trkpt>
      <trkpt lat="42.79386" lon="-0.14039">
        <ele>2132</ele>
        <time>2014-03-15T13:34:08Z</time>
      </trkpt>
      <trkpt lat="42.79385" lon="-0.14039">
        <ele>2132</ele>
        <time>2014-03-15T13:34:09Z</time>
      </trkpt>
      <trkpt lat="42.79384" lon="-0.14039">
        <ele>2132</ele>
        <time>2014-03-15T13:34:11Z</time>
      </trkpt>
      <trkpt lat="42.79382" lon="-0.14039">
        <ele>2133</ele>
        <time>2014-03-15T13:34:13Z</time>
      </trkpt>
      <trkpt lat="42.79377" lon="-0.14039">
        <ele>2133</ele>
        <time>2014-03-15T13:34:18Z</time>
      </trkpt>
      <trkpt lat="42.79371" lon="-0.14041">
        <ele>2134</ele>
        <time>2014-03-15T13:34:47Z</time>
      </trkpt>
      <trkpt lat="42.79369" lon="-0.14039">
        <ele>2134</ele>
        <time>2014-03-15T13:34:48Z</time>
      </trkpt>
      <trkpt lat="42.79351" lon="-0.14037">
        <ele>2136</ele>
        <time>2014-03-15T13:35:07Z</time>
      </trkpt>
      <trkpt lat="42.79348" lon="-0.14039">
        <ele>2136</ele>
        <time>2014-03-15T13:35:10Z</time>
      </trkpt>
      <trkpt lat="42.79339" lon="-0.14046">
        <ele>2136</ele>
        <time>2014-03-15T13:35:23Z</time>
      </trkpt>
      <trkpt lat="42.79331" lon="-0.14052">
        <ele>2147</ele>
        <time>2014-03-15T13:35:37Z</time>
      </trkpt>
      <trkpt lat="42.79328" lon="-0.14053">
        <ele>2147</ele>
        <time>2014-03-15T13:35:39Z</time>
      </trkpt>
      <trkpt lat="42.79325" lon="-0.14055">
        <ele>2147</ele>
        <time>2014-03-15T13:35:41Z</time>
      </trkpt>
      <trkpt lat="42.79324" lon="-0.14053">
        <ele>2148</ele>
        <time>2014-03-15T13:35:44Z</time>
      </trkpt>
      <trkpt lat="42.7932" lon="-0.14054">
        <ele>2148</ele>
        <time>2014-03-15T13:35:53Z</time>
      </trkpt>
      <trkpt lat="42.79314" lon="-0.14055">
        <ele>2149</ele>
        <time>2014-03-15T13:36:01Z</time>
      </trkpt>
      <trkpt lat="42.79314" lon="-0.14065">
        <ele>2147</ele>
        <time>2014-03-15T13:36:22Z</time>
      </trkpt>
      <trkpt lat="42.7931" lon="-0.1407">
        <ele>2147</ele>
        <time>2014-03-15T13:36:27Z</time>
      </trkpt>
      <trkpt lat="42.7931" lon="-0.14076">
        <ele>2147</ele>
        <time>2014-03-15T13:36:30Z</time>
      </trkpt>
      <trkpt lat="42.79309" lon="-0.14083">
        <ele>2147</ele>
        <time>2014-03-15T13:36:35Z</time>
      </trkpt>
      <trkpt lat="42.79312" lon="-0.14092">
        <ele>2144</ele>
        <time>2014-03-15T13:36:39Z</time>
      </trkpt>
      <trkpt lat="42.79309" lon="-0.14096">
        <ele>2145</ele>
        <time>2014-03-15T13:36:42Z</time>
      </trkpt>
      <trkpt lat="42.79309" lon="-0.14098">
        <ele>2145</ele>
        <time>2014-03-15T13:36:43Z</time>
      </trkpt>
      <trkpt lat="42.79307" lon="-0.14101">
        <ele>2145</ele>
        <time>2014-03-15T13:36:46Z</time>
      </trkpt>
      <trkpt lat="42.79302" lon="-0.14109">
        <ele>2146</ele>
        <time>2014-03-15T13:36:52Z</time>
      </trkpt>
      <trkpt lat="42.79301" lon="-0.14111">
        <ele>2146</ele>
        <time>2014-03-15T13:36:53Z</time>
      </trkpt>
      <trkpt lat="42.79299" lon="-0.1412">
        <ele>2147</ele>
        <time>2014-03-15T13:36:59Z</time>
      </trkpt>
      <trkpt lat="42.79299" lon="-0.14122">
        <ele>2147</ele>
        <time>2014-03-15T13:37:00Z</time>
      </trkpt>
      <trkpt lat="42.79296" lon="-0.14131">
        <ele>2147</ele>
        <time>2014-03-15T13:37:18Z</time>
      </trkpt>
      <trkpt lat="42.79297" lon="-0.14132">
        <ele>2147</ele>
        <time>2014-03-15T13:37:19Z</time>
      </trkpt>
      <trkpt lat="42.79291" lon="-0.14136">
        <ele>2147</ele>
        <time>2014-03-15T13:37:23Z</time>
      </trkpt>
      <trkpt lat="42.7928" lon="-0.14142">
        <ele>2147</ele>
        <time>2014-03-15T13:37:48Z</time>
      </trkpt>
      <trkpt lat="42.79273" lon="-0.14144">
        <ele>2148</ele>
        <time>2014-03-15T13:38:13Z</time>
      </trkpt>
      <trkpt lat="42.79273" lon="-0.14145">
        <ele>2148</ele>
        <time>2014-03-15T13:38:14Z</time>
      </trkpt>
      <trkpt lat="42.79274" lon="-0.14144">
        <ele>2148</ele>
        <time>2014-03-15T13:38:46Z</time>
      </trkpt>
      <trkpt lat="42.79275" lon="-0.14143">
        <ele>2148</ele>
        <time>2014-03-15T13:38:58Z</time>
      </trkpt>
      <trkpt lat="42.7928" lon="-0.14141">
        <ele>2147</ele>
        <time>2014-03-15T13:39:08Z</time>
      </trkpt>
      <trkpt lat="42.79281" lon="-0.14141">
        <ele>2147</ele>
        <time>2014-03-15T13:39:09Z</time>
      </trkpt>
      <trkpt lat="42.79284" lon="-0.14146">
        <ele>2147</ele>
        <time>2014-03-15T13:39:22Z</time>
      </trkpt>
    </trkseg>
  </trk>
</gpx>